[[{"header":{"parameterUnit":"m.s-1","parameterCategory":1,"la1":31.0,"la2":29.5877,"lo1":-88.7671,"lo2":-86.6584,"dy":0.0162,"dx":0.0185,"nx":115,"ny":88,"refTime":"2023-09-08T18:00:00:Z","depth":0,"parameterNumber":2,"parameterNumberName":"U-component_of_WINDS"},"data":[0.0,0.0,0.0,0.0,0.0,0.0,0.0,0.0,0.0,0.0,0.0,0.0,0.0,0.0,0.0,0.0,0.0,0.0,0.0,0.0,0.0,0.0,0.0,0.0,0.0,0.0,0.0,0.0,0.0,0.0,0.0,0.0,0.0,0.0,0.0,0.0,0.0,0.0,0.0,0.0,0.0,0.0,0.0,0.0,0.0,0.0,0.0,0.0,0.0,0.0,0.0,0.0,0.0,0.0,0.0,0.0,0.0,0.0,0.0,0.0,0.0,0.0,0.0,0.0,0.0,0.0,0.0,0.0,0.0,0.0,0.0,0.0,0.0,0.0,0.0,0.0,0.0,0.0,0.0,0.0,0.0,0.0,0.0,0.0,0.0,0.0,0.0,0.0,0.0,0.0,0.0,0.0,0.0,0.0,0.0,0.0,0.0,0.0,0.0,0.0,0.0,0.0,0.0,0.0,0.0,0.0,0.0,0.0,0.0,0.0,0.0,0.0,0.0,0.0,0.0,0.0,0.0,0.0,0.0,0.0,0.0,0.0,0.0,0.0,0.0,0.0,0.0,0.0,0.0,0.0,0.0,0.0,0.0,0.0,0.0,0.0,0.0,0.0,0.0,0.0,0.0,0.0,0.0,0.0,0.0,0.0,0.0,0.0,0.0,0.0,0.0,0.0,0.0,0.0,0.0,0.0,0.0,0.0,0.0,0.0,0.0,0.0,0.0,0.0,0.0,0.0,0.0,0.0,0.0,0.0,0.0,0.0,0.0,0.0,0.0,0.0,0.0,0.0,0.0,0.0,0.0,0.0,0.0,0.0,0.0,0.0,0.0,0.0,0.0,0.0,0.0,0.0,0.0,0.0,0.0,0.0,0.0,0.0,0.0,0.0,0.0,0.0,0.0,0.0,0.0,0.0,0.0,0.0,0.0,0.0,0.0,0.0,0.0,0.0,0.0,0.0,0.0,0.0,0.0,0.0,0.0,0.0,0.0,0.0,0.0,0.0,0.0,0.0,0.0,0.0,0.0,0.0,0.0,0.0,0.0,0.0,0.0,0.0,0.0,0.0,0.0,0.0,0.0,0.0,0.0,0.0,0.0,0.0,0.0,0.0,0.0,0.0,0.0,0.0,0.0,0.0,0.0,0.0,0.0,0.0,0.0,0.0,0.0,0.0,0.0,0.0,0.0,0.0,0.0,0.0,0.0,0.0,0.0,0.0,0.0,0.0,0.0,0.0,0.0,0.0,0.0,0.0,0.0,0.0,0.0,0.0,0.0,0.0,0.0,0.0,0.0,0.0,0.0,0.0,0.0,0.0,0.0,0.0,0.0,0.0,0.0,0.0,0.0,0.0,0.0,0.0,0.0,0.0,0.0,0.0,0.0,0.0,0.0,0.0,0.0,0.0,0.0,0.0,0.0,0.0,0.0,0.0,0.0,0.0,0.0,0.0,0.0,0.0,0.0,0.0,0.0,0.0,0.0,0.0,0.0,0.0,0.0,0.0,0.0,0.0,0.0,0.0,0.0,0.0,0.0,0.0,0.0,0.0,0.0,0.0,0.0,0.0,0.0,0.0,0.0,0.0,0.0,0.0,0.0,0.0,0.0,0.0,0.0,0.0,0.0,0.0,0.0,0.0,0.0,0.0,0.0,0.0,0.0,0.0,0.0,0.0,0.0,0.0,0.0,0.0,0.0,0.0,0.0,0.0,0.0,0.0,0.0,0.0,0.0,0.0,0.0,0.0,0.0,0.0,0.0,0.0,0.0,0.0,0.0,0.0,0.0,0.0,0.0,0.0,0.0,0.0,0.0,0.0,0.0,0.0,0.0,0.0,0.0,0.0,0.0,0.0,0.0,0.0,0.0,0.0,0.0,0.0,0.0,0.0,0.0,0.0,0.0,0.0,0.0,0.0,0.0,0.0,0.0,0.0,0.0,0.0,0.0,0.0,0.0,0.0,0.0,0.0,0.0,0.0,0.0,0.0,0.0,0.0,0.0,0.0,0.0,0.0,0.0,0.0,0.0,0.0,0.0,0.0,0.0,0.0,0.0,0.0,0.0,0.0,0.0,0.0,0.0,0.0,0.0,0.0,0.0,0.0,0.0,0.0,0.0,0.0,0.0,0.0,0.0,0.0,0.0,0.0,0.0,0.0,0.0,0.0,0.0,0.0,0.0,0.0,0.0,0.0,0.0,0.0,0.0,0.0,0.0,0.0,0.0,0.0,0.0,0.0,0.0,0.0,0.0,0.0,0.0,0.0,0.0,0.0,0.0,0.0,0.0,0.0,0.0,0.0,0.0,0.0,0.0,0.0,0.0,0.0,0.0,0.0,0.0,0.0,0.0,0.0,0.0,0.0,0.0,0.0,0.0,0.0,0.0,0.0,0.0,0.0,0.0,0.0,0.0,0.0,0.0,0.0,0.0,0.0,0.0,0.0,0.0,0.0,0.0,0.0,0.0,0.0,0.0,0.0,0.0,0.0,0.0,0.0,0.0,0.0,0.0,0.0,0.0,0.0,0.0,0.0,0.0,0.0,0.0,0.0,0.0,0.0,0.0,0.0,0.0,0.0,0.0,0.0,0.0,0.0,0.0,0.0,0.0,0.0,0.0,0.0,0.0,0.0,0.0,0.0,0.0,0.0,0.0,0.0,0.0,0.0,0.0,0.0,0.0,0.0,0.0,0.0,0.0,0.0,0.0,0.0,0.0,0.0,0.0,0.0,0.0,0.0,0.0,0.0,0.0,0.0,0.0,0.0,0.0,0.0,0.0,0.0,0.0,0.0,0.0,0.0,0.0,0.0,0.0,0.0,0.0,0.0,0.0,0.0,0.0,0.0,0.0,0.0,0.0,0.0,0.0,0.0,0.0,0.0,0.0,0.0,0.0,0.0,0.0,0.0,0.0,0.0,0.0,0.0,0.0,0.0,0.0,0.0,0.0,0.0,0.0,0.0,0.0,0.0,0.0,0.0,0.0,0.0,0.0,0.0,0.0,0.0,0.0,0.0,0.0,0.0,0.0,0.0,0.0,0.0,0.0,0.0,0.0,0.0,0.0,0.0,0.0,0.0,0.0,0.0,0.0,0.0,0.0,0.0,0.0,0.0,0.0,0.0,0.0,0.0,0.0,0.0,0.0,0.0,0.0,0.0,0.0,0.0,0.0,0.0,0.0,0.0,0.0,0.0,0.0,0.0,0.0,0.0,0.0,0.0,0.0,0.0,0.0,0.0,0.0,0.0,0.0,0.0,0.0,0.0,0.0,0.0,0.0,0.0,0.0,0.0,0.0,0.0,0.0,0.0,0.0,0.0,0.0,0.0,0.0,0.0,0.0,0.0,0.0,0.0,0.0,0.0,0.0,0.0,0.0,0.0,0.0,0.0,0.0,0.0,0.0,0.0,0.0,0.0,0.0,0.0,0.0,0.0,0.0,0.0,0.0,0.0,0.0,0.0,0.0,0.0,0.0,0.0,0.0,0.0,0.0,0.0,0.0,0.0,0.0,0.0,0.0,0.0,0.0,0.0,0.0,0.0,0.0,0.0,0.0,0.0,0.0,0.0,0.0,0.0,0.0,0.0,0.0,0.0,0.0,0.0,0.0,0.0,0.0,0.0,0.0,0.0,0.0,0.0,0.0,0.0,0.0,0.0,0.0,0.0,0.0,0.0,0.0,0.0,0.0,0.0,0.0,0.0,0.0,0.0,0.0,0.0,0.0,0.0,0.0,0.0,0.0,0.0,0.0,0.0,0.0,0.0,0.0,0.0,0.0,0.0,0.0,0.0,0.0,0.0,0.0,0.0,0.0,0.0,0.0,0.0,0.0,0.0,0.0,0.0,0.0,0.0,0.0,0.0,0.0,0.0,0.0,0.0,0.0,0.0,0.0,0.0,0.0,0.0,0.0,0.0,0.0,0.0,0.0,0.0,0.0,0.0,0.0,0.0,0.0,0.0,0.0,0.0,0.0,0.0,0.0,0.0,0.0,0.0,0.0,0.0,0.0,0.0,0.0,0.0,0.0,0.0,0.0,0.0,0.0,0.0,0.0,0.0,0.0,0.0,0.0,0.0,0.0,0.0,0.0,0.0,0.0,0.0,0.0,0.0,0.0,0.0,0.0,0.0,0.0,0.0,0.0,0.0,0.0,0.0,0.0,0.0,0.0,0.0,0.0,0.0,0.0,0.0,0.0,0.0,0.0,0.0,0.0,0.0,0.0,0.0,0.0,0.0,0.0,0.0,0.0,0.0,0.0,0.0,0.0,0.0,0.0,0.0,0.0,0.0,0.0,0.0,0.0,0.0,1.1757,0.0,0.0,0.0,0.0,0.0,0.0,0.0,0.0,0.0,0.0,0.0,0.0,0.0,0.0,0.0,0.0,0.0,0.0,0.0,0.0,0.0,0.0,0.0,0.0,0.0,0.0,0.0,0.0,0.0,0.0,0.0,0.0,0.0,0.0,0.0,0.0,0.0,0.0,0.0,0.0,0.0,0.0,0.0,0.0,0.0,0.0,0.0,0.0,0.0,0.0,0.0,0.0,0.0,0.0,0.0,0.0,0.0,0.0,0.0,0.0,0.0,0.0,0.0,0.0,0.0,0.0,0.0,0.0,0.0,0.0,0.0,0.0,0.0,0.0,0.0,0.0,0.0,0.0,0.0,0.0,0.0,0.0,0.0,0.0,0.0,0.0,0.0,0.0,0.0,0.0,0.0,0.0,0.0,0.0,0.0,0.0,0.0,0.0,0.0,0.0,0.0,0.0,0.0,0.0,0.0,0.0,0.0,0.0,0.0,0.0,1.317,1.2899,1.2569,1.2332,1.2229,0.0,0.0,0.0,0.0,0.0,0.0,0.0,0.0,0.0,0.0,0.0,0.0,0.0,0.0,0.0,0.0,0.0,0.0,0.0,0.0,0.0,0.0,0.0,0.0,0.0,0.0,0.0,0.0,0.0,0.0,0.0,0.0,0.0,0.0,0.0,0.0,0.0,0.0,0.0,0.0,0.0,0.0,0.0,0.0,0.0,0.0,0.0,0.0,0.0,0.0,0.0,0.0,0.0,0.0,0.0,0.0,0.0,0.0,0.0,0.0,0.0,0.0,0.0,0.0,0.0,0.0,0.0,0.0,0.0,0.0,0.0,0.0,0.0,0.0,0.0,0.0,0.0,0.0,0.0,0.0,0.0,0.0,0.0,0.0,0.0,0.0,0.0,0.0,0.0,0.0,0.0,0.0,0.0,0.0,0.0,0.0,0.0,0.0,0.0,0.0,0.0,0.0,0.0,0.0,0.0,0.0,0.0,0.0,0.0,0.0,0.0,0.0,1.2715,1.2637,1.252,0.0,0.0,0.0,0.0,0.0,0.0,0.0,0.0,0.0,0.0,0.0,0.0,0.0,0.0,0.0,0.0,0.0,0.0,0.0,0.0,0.0,0.0,0.0,0.0,0.0,0.0,0.0,0.0,0.0,0.0,0.0,0.0,0.0,0.0,0.0,0.0,0.0,0.0,0.0,0.0,0.0,0.0,0.0,0.0,0.0,0.0,0.0,0.0,0.0,0.0,0.0,0.0,0.0,0.0,0.0,0.0,0.0,0.0,0.0,0.0,0.0,0.0,0.0,0.0,0.0,0.0,0.0,0.0,0.0,0.0,0.0,0.0,0.0,0.0,0.0,0.0,0.0,0.0,0.0,0.0,0.0,0.0,0.0,0.0,0.0,0.0,0.0,0.0,0.0,0.0,0.0,0.0,0.0,0.0,0.0,0.0,0.0,0.0,0.0,0.0,0.0,0.0,0.0,0.0,0.0,0.0,0.0,0.0,0.0,0.0,1.2676,1.2529,1.2539,0.0,1.2175,0.0,0.0,0.0,0.0,0.0,0.0,0.0,0.0,0.0,0.0,0.0,0.0,0.0,0.0,0.0,0.0,0.0,0.0,0.0,0.0,0.0,0.0,0.0,0.0,0.0,0.0,0.0,0.0,0.0,0.0,0.0,0.0,0.0,0.0,0.0,0.0,0.0,0.0,0.0,0.0,0.0,0.0,0.0,0.0,0.0,0.0,0.0,0.0,0.0,0.0,0.0,0.0,0.0,0.0,0.0,0.0,0.0,0.0,0.0,0.0,0.0,0.0,0.0,0.0,0.0,0.0,0.0,0.0,0.0,0.0,0.0,0.0,0.0,0.0,0.0,0.0,0.0,0.0,0.0,0.0,0.0,0.0,0.0,0.0,0.0,0.0,0.0,0.0,0.0,0.0,0.0,0.0,0.0,0.0,0.0,0.0,0.0,0.0,0.0,0.0,0.0,0.0,0.0,0.0,0.0,0.0,0.0,0.0,0.0,0.0,1.2175,1.2126,1.2085,1.1927,0.0,0.0,0.0,0.0,0.0,0.0,0.0,0.0,0.0,0.0,0.0,0.0,0.0,0.0,0.0,0.0,0.0,0.0,0.0,0.0,0.0,0.0,0.0,0.0,0.0,0.0,0.0,0.0,0.0,0.0,0.0,0.0,0.0,0.0,0.0,0.0,0.0,0.0,0.0,0.0,0.0,0.0,0.0,0.0,0.0,0.0,0.0,0.0,0.0,0.0,0.0,0.0,0.0,0.0,0.0,0.0,0.0,0.0,0.0,0.0,0.0,0.0,0.0,0.0,0.0,0.0,0.0,0.0,0.0,0.0,0.0,0.0,0.0,0.0,0.0,0.0,0.0,0.0,0.0,0.0,0.0,0.0,0.0,0.0,0.0,0.0,0.0,0.0,0.0,0.0,0.0,0.0,0.0,0.0,0.0,0.0,0.0,0.0,0.0,0.0,0.0,0.0,0.0,0.0,0.0,0.0,0.0,0.0,0.0,0.0,1.1769,1.1719,1.1728,1.1628,1.1477,1.1368,0.0,0.0,0.0,0.0,0.0,0.0,0.0,0.0,0.0,0.0,0.0,0.0,0.0,0.0,0.0,0.0,0.0,0.0,0.0,0.0,0.0,0.0,0.0,0.0,0.0,0.0,0.0,0.0,0.0,0.0,0.0,0.0,0.0,0.0,0.0,0.0,0.0,0.0,0.0,0.0,0.0,0.0,0.0,0.0,0.0,0.0,0.0,0.0,0.0,0.0,0.0,0.0,0.0,0.0,0.0,0.0,0.0,0.0,0.0,0.0,0.0,0.0,0.0,0.0,0.0,0.0,0.0,0.0,0.0,0.0,0.0,0.0,0.0,0.0,0.0,0.0,0.0,0.0,0.0,0.0,0.0,0.0,0.0,0.0,0.0,0.0,0.0,0.0,0.0,0.0,0.0,0.0,0.0,0.0,0.0,0.0,0.0,0.0,0.0,0.0,0.0,0.0,0.0,0.0,0.0,0.0,0.0,0.0,1.1528,1.1394,1.1335,1.1344,1.1184,1.1124,0.0,0.0,0.0,0.0,0.0,0.0,0.0,0.0,0.0,0.0,0.0,0.0,0.0,0.0,0.0,0.0,0.0,0.0,0.0,0.0,0.0,0.0,0.0,0.0,0.0,0.0,0.0,0.0,0.0,0.0,0.0,0.0,0.0,0.0,0.0,0.0,0.0,0.0,0.0,0.0,0.0,0.0,0.0,0.0,0.0,0.0,0.0,0.0,0.0,0.0,0.0,0.0,0.0,0.0,0.0,0.0,0.0,0.0,0.0,0.0,0.0,0.0,0.0,0.0,0.0,0.0,0.0,0.0,0.0,0.0,0.0,0.0,0.0,0.0,0.0,0.0,0.0,0.0,0.0,0.0,0.0,0.0,0.0,0.0,0.0,0.0,0.0,0.0,0.0,0.0,0.0,0.0,0.0,0.0,0.0,0.0,0.0,0.0,0.0,0.0,0.0,0.0,0.0,0.0,0.0,0.0,0.0,0.0,0.0,1.1262,1.1333,1.1347,1.1339,1.1129,1.0902,0.0,0.0,0.0,0.0,0.0,0.0,0.0,0.0,0.0,0.0,0.0,0.0,0.0,0.0,0.0,0.0,0.0,0.0,0.0,0.0,0.0,0.0,0.0,0.0,0.0,0.0,0.0,0.0,0.0,0.0,0.0,0.0,0.0,0.0,0.0,0.0,0.0,0.0,0.0,0.0,0.0,0.0,0.0,0.0,0.0,0.0,0.0,0.0,0.0,0.0,0.0,0.0,0.0,0.0,0.0,0.0,0.0,0.0,0.0,0.0,0.0,0.0,0.0,0.0,0.0,0.0,0.0,0.0,0.0,0.0,0.0,0.0,0.0,0.0,0.0,0.0,0.0,0.0,0.0,0.0,0.0,0.0,0.0,0.0,0.0,0.0,0.0,0.0,0.0,0.0,0.0,0.0,0.0,0.0,0.0,0.0,0.0,0.0,0.0,0.0,0.0,0.0,0.0,0.0,0.0,0.0,0.0,0.0,0.0,1.1083,0.0,1.1285,1.1277,1.1059,1.0833,0.0,0.0,0.0,0.0,0.0,0.0,0.0,0.0,0.0,0.0,0.0,0.0,0.0,0.0,0.0,0.0,0.0,0.0,0.0,0.0,0.0,0.0,0.0,0.0,0.0,0.0,0.0,0.0,0.0,0.0,0.0,0.0,0.0,0.0,0.0,0.0,0.0,0.0,0.0,0.0,0.0,0.0,0.0,0.0,0.0,0.0,0.0,0.0,0.0,0.0,0.0,0.0,0.0,0.0,0.0,0.0,0.0,0.0,0.0,0.0,0.0,0.0,0.0,0.0,0.0,0.0,0.0,0.0,0.0,0.0,0.0,0.0,0.0,0.0,0.0,0.0,0.0,0.0,0.0,0.0,0.0,0.0,0.0,0.0,0.0,0.0,0.0,0.0,0.0,0.0,0.0,0.0,0.0,0.0,0.0,0.0,0.0,0.0,0.0,0.0,0.0,0.0,0.0,0.0,0.0,0.0,0.0,0.0,1.0793,1.0994,1.0967,1.1062,1.1024,1.1024,1.0864,0.0,0.0,0.0,0.0,0.0,0.0,0.0,0.0,0.0,0.0,0.0,0.0,0.0,0.0,0.0,0.0,0.0,0.0,0.0,0.0,0.0,0.0,0.0,0.0,0.0,0.0,0.0,0.0,0.0,0.0,0.0,0.0,0.0,0.0,0.0,0.0,0.0,0.0,0.0,0.0,0.0,0.0,0.0,0.0,0.0,0.0,0.0,0.0,0.0,0.0,0.0,0.0,0.0,0.0,0.0,0.0,0.0,0.0,0.0,0.0,0.0,0.0,0.0,0.0,0.0,0.0,0.0,0.0,0.0,0.0,0.0,0.0,0.0,0.0,0.0,0.0,0.0,0.0,0.0,0.0,0.0,0.0,0.0,0.0,0.0,0.0,0.0,0.0,0.0,0.0,0.0,0.0,0.0,0.0,0.0,0.0,0.0,0.0,0.0,0.0,0.0,0.0,0.0,0.0,0.0,0.0,0.0,0.0,0.0,1.0872,1.103,1.1085,1.1077,1.0869,1.071,0.0,0.0,0.0,0.0,0.0,0.0,0.0,0.0,0.0,0.0,0.0,0.0,0.0,0.0,0.0,0.0,0.0,0.0,0.0,0.0,0.0,0.0,0.0,0.0,0.0,0.0,0.0,0.0,0.0,0.0,0.0,0.0,0.0,0.0,0.0,0.0,0.0,0.0,0.0,0.0,0.0,0.0,0.0,0.0,0.0,0.0,0.0,0.0,0.0,0.0,0.0,0.0,0.0,0.0,0.0,0.0,0.0,0.0,0.0,0.0,0.0,0.0,0.0,0.0,0.0,0.0,0.0,0.0,0.0,0.0,0.0,0.0,0.0,0.0,0.0,0.0,0.0,0.0,0.0,0.0,0.0,0.0,0.0,0.0,0.0,0.0,0.0,0.0,0.0,0.0,0.0,0.0,0.0,0.0,0.0,0.0,0.0,0.0,0.0,0.0,0.0,0.0,0.0,0.0,0.0,0.0,0.0,0.0,0.0,1.1052,1.1297,1.1395,1.1395,1.1101,1.0877,1.0758,0.0,0.0,0.0,0.0,0.0,0.0,0.0,0.0,0.0,0.0,0.0,0.0,0.0,0.0,0.0,0.0,0.0,0.0,0.0,0.0,0.0,0.0,0.0,0.0,0.0,0.0,0.0,0.0,0.0,0.0,0.0,0.0,0.0,0.0,0.0,0.0,0.0,0.0,0.0,0.0,0.0,0.0,0.0,0.0,0.0,0.0,0.0,0.0,0.0,0.0,0.0,0.0,0.0,0.0,0.0,0.0,0.0,0.0,0.0,0.0,0.0,0.0,0.0,0.0,0.0,0.0,0.0,0.0,0.0,0.0,0.0,0.0,0.0,0.0,0.0,0.0,0.0,0.0,0.0,0.0,0.0,0.0,0.0,0.0,0.0,0.0,0.0,0.0,0.0,0.0,0.0,0.0,0.0,0.0,0.0,0.0,0.0,0.0,0.0,0.0,0.0,0.0,0.0,0.0,0.0,0.0,0.0,0.0,1.145,1.1737,1.1867,1.1819,1.1616,1.1323,0.0,0.0,0.0,0.0,0.0,0.0,0.0,0.0,0.0,0.0,0.0,0.0,0.0,0.0,0.0,0.0,0.0,0.0,0.0,0.0,0.0,0.0,0.0,0.0,0.0,0.0,0.0,0.0,0.0,0.0,0.0,0.0,0.0,0.0,0.0,0.0,0.0,0.0,0.0,0.0,0.0,0.0,0.0,0.0,0.0,0.0,0.0,0.0,0.0,0.0,0.0,0.0,0.0,0.0,0.0,0.0,0.0,0.0,0.0,0.0,0.0,0.0,0.0,0.0,0.0,0.0,0.0,0.0,0.0,0.0,0.0,0.0,0.0,0.0,0.0,0.0,0.0,0.0,0.0,0.0,0.0,0.0,0.0,0.0,0.0,0.0,0.0,0.0,0.0,0.0,0.0,0.0,0.0,0.0,0.0,0.0,0.0,0.0,0.0,0.0,0.0,0.0,0.0,0.0,0.0,0.0,0.0,0.0,0.0,1.1757,1.1886,1.1864,1.1505,1.1349,1.1109,0.0,0.0,0.0,0.0,0.0,0.0,0.0,0.0,0.0,0.0,0.0,0.0,0.0,0.0,0.0,0.0,0.0,0.0,0.0,0.0,0.0,0.0,0.0,0.0,0.0,0.0,0.0,0.0,0.0,0.0,0.0,0.0,0.0,0.0,0.0,0.0,0.0,0.0,0.0,0.0,0.0,0.0,0.0,0.0,0.0,0.0,0.0,0.0,0.0,0.0,0.0,0.0,0.0,0.0,0.0,0.0,0.0,0.0,0.0,0.0,0.0,0.0,0.0,0.0,0.0,0.0,0.0,0.0,0.0,0.0,0.0,0.0,0.0,0.0,0.0,0.0,0.0,0.0,0.0,0.0,0.0,0.0,0.0,0.0,0.0,0.0,0.0,0.0,0.0,0.0,0.0,0.0,0.0,0.0,0.0,0.0,0.0,0.0,0.0,0.0,0.0,0.0,0.0,0.0,0.0,0.0,0.0,0.0,1.1781,1.1834,1.1844,1.1773,1.1514,1.132,1.1063,0.0,0.0,0.0,0.0,0.0,0.0,0.0,0.0,0.0,0.0,0.0,0.0,0.0,0.0,0.0,0.0,0.0,0.0,0.0,0.0,0.0,0.0,0.0,0.0,0.0,0.0,0.0,0.0,0.0,0.0,0.0,0.0,0.0,0.0,0.0,0.0,0.0,0.0,0.0,0.0,0.0,0.0,0.0,0.0,0.0,0.0,0.0,0.0,0.0,0.0,0.0,0.0,0.0,0.0,0.0,0.0,0.0,0.0,0.0,0.0,0.0,0.0,0.0,0.0,0.0,0.0,0.0,0.0,0.0,0.0,0.0,0.0,0.0,0.0,0.0,0.0,0.0,0.0,0.0,0.0,0.0,0.0,0.0,0.0,0.0,0.0,0.0,0.0,0.0,0.0,0.0,0.0,0.0,0.0,0.0,0.0,0.0,0.0,0.0,0.0,0.0,0.0,0.0,0.0,0.0,0.0,0.0,0.0,1.1623,1.1745,1.1751,1.1751,1.1745,1.1484,1.121,0.0,0.0,0.0,0.0,0.0,0.0,0.0,0.0,0.0,0.0,0.0,0.0,0.0,0.0,0.0,0.0,0.0,0.0,0.0,0.0,0.0,0.0,0.0,0.0,0.0,0.0,0.0,0.0,0.0,0.0,0.0,0.0,0.0,0.0,0.0,0.0,0.0,0.0,0.0,0.0,0.0,0.0,0.0,0.0,0.0,0.0,0.0,0.0,0.0,0.0,0.0,0.0,0.0,0.0,0.0,0.0,0.0,0.0,0.0,0.0,0.0,0.0,0.0,0.0,0.0,0.0,0.0,0.0,0.0,0.0,0.0,0.0,0.0,0.0,0.0,0.0,0.0,0.0,0.0,0.0,0.0,0.0,0.0,0.0,0.0,0.0,0.0,0.0,0.0,0.0,0.0,0.0,0.0,0.0,0.0,0.0,0.0,0.0,0.0,0.0,0.0,0.0,0.0,0.0,0.0,0.0,0.0,0.0,1.1764,1.1967,1.1827,1.175,1.175,1.1546,1.1272,0.0,0.0,0.0,0.0,0.0,0.0,0.0,0.0,0.0,0.0,0.0,0.0,0.0,0.0,0.0,0.0,0.0,0.0,0.0,0.0,0.0,0.0,0.0,0.0,0.0,0.0,0.0,0.0,0.0,0.0,0.0,0.0,0.0,0.0,0.0,0.0,0.0,0.0,0.0,0.0,0.0,0.0,0.0,0.0,0.0,0.0,0.0,0.0,1.2141,0.0,0.0,0.0,0.0,0.0,0.0,0.0,0.0,0.0,0.0,0.0,0.0,0.0,0.0,0.0,0.0,0.0,0.0,0.0,0.0,0.0,0.0,0.0,0.0,0.0,0.0,0.0,0.0,0.0,0.0,0.0,0.0,0.0,0.0,0.0,0.0,0.0,0.0,0.0,0.0,0.0,0.0,0.0,0.0,0.0,0.0,0.0,0.0,0.0,0.0,0.0,0.0,0.0,0.0,0.0,0.0,0.0,0.0,0.0,1.1764,1.1837,1.1811,1.1811,1.1689,1.1536,1.1279,0.0,0.0,0.0,0.0,0.0,0.0,0.0,0.0,0.0,0.0,0.0,0.0,0.0,0.0,0.0,0.0,0.0,0.0,0.0,0.0,0.0,0.0,0.0,0.0,0.0,0.0,0.0,0.0,0.0,0.0,0.0,0.0,0.0,0.0,0.0,0.0,0.0,0.0,0.0,0.0,0.0,0.0,0.0,0.0,0.0,0.0,0.0,0.0,0.0,0.0,0.0,0.0,0.0,0.0,0.0,0.0,0.0,0.0,0.0,0.0,0.0,0.0,0.0,0.0,0.0,0.0,0.0,0.0,0.0,0.0,0.0,0.0,0.0,0.0,0.0,0.0,0.0,0.0,0.0,0.0,0.0,0.0,0.0,0.0,0.0,0.0,0.0,0.0,0.0,0.0,0.0,0.0,0.0,0.0,0.0,0.0,0.0,0.0,0.0,0.0,0.0,0.0,0.0,0.0,0.0,0.0,0.0,1.1633,1.1707,1.16,1.1848,1.1872,1.1661,1.1612,1.1359,1.0864,0.0,0.0,0.0,0.0,0.0,0.0,0.0,0.0,0.0,0.0,0.0,0.0,0.0,0.0,0.0,0.0,0.0,0.0,0.0,0.0,0.0,0.0,0.0,0.0,0.0,0.0,0.0,0.0,0.0,0.0,0.0,0.0,0.0,0.0,0.0,0.0,0.0,0.0,1.0545,1.124,0.0,0.0,0.0,0.0,0.0,0.0,0.0,0.0,1.3067,0.0,0.0,0.0,0.0,0.0,0.0,0.0,0.0,0.0,0.0,0.0,0.0,0.0,0.0,0.0,0.0,0.0,0.0,0.0,0.0,0.0,0.0,0.0,0.0,0.0,0.0,0.0,0.0,0.0,0.0,0.0,0.0,0.0,0.0,0.0,0.0,0.0,0.0,0.0,0.0,0.0,0.0,0.0,0.0,0.0,0.0,0.0,0.0,0.0,0.0,0.0,0.0,0.0,0.0,0.0,0.0,1.1293,1.1483,1.1636,1.1854,1.2113,1.2228,1.218,1.1968,1.1715,1.1395,0.0,0.0,0.0,0.0,0.0,0.0,0.0,0.0,0.0,0.0,0.0,0.0,0.0,0.0,0.0,0.0,0.0,0.0,0.0,0.0,0.0,0.0,0.0,0.0,0.0,0.0,0.0,0.0,0.0,0.0,0.0,0.0,0.0,0.0,0.0,0.0,0.0,0.0,0.0,1.1872,1.217,0.0,0.0,0.0,0.0,0.0,0.0,0.0,0.0,1.368,0.0,0.0,0.0,0.0,0.0,0.0,0.0,0.0,0.0,0.0,0.0,0.0,0.0,0.0,0.0,0.0,0.0,0.0,0.0,0.0,0.0,0.0,0.0,0.0,0.0,0.0,0.0,0.0,0.0,0.0,0.0,0.0,0.0,0.0,0.0,0.0,0.0,0.0,0.0,0.0,0.0,0.0,0.0,0.0,0.0,0.0,0.0,0.0,0.0,0.0,0.0,0.0,0.0,0.0,0.0,1.1651,1.1689,1.186,1.2119,1.2385,1.2368,1.2147,1.1897,1.1561,0.0,0.0,0.0,0.0,0.0,0.0,0.0,0.0,0.0,0.0,0.0,0.0,0.0,0.0,0.0,0.0,0.0,0.0,0.0,0.0,0.0,0.0,0.0,0.0,0.0,0.0,0.0,0.0,0.0,0.0,0.0,0.0,0.0,0.0,0.0,0.0,0.0,0.0,0.0,0.0,1.253,1.2774,1.2599,0.0,0.0,0.0,0.0,0.0,0.0,1.4255,1.4275,0.0,0.0,0.0,0.0,0.0,0.0,0.0,0.0,0.0,0.0,0.0,0.0,0.0,0.0,0.0,0.0,0.0,0.0,0.0,0.0,0.0,0.0,0.0,0.0,0.0,0.0,0.0,0.0,0.0,0.0,0.0,0.0,0.0,0.0,0.0,0.0,0.0,0.0,0.0,0.0,0.0,0.0,0.0,0.0,0.0,0.0,0.0,0.0,0.0,0.0,0.0,0.0,0.0,0.0,0.0,1.2043,1.1945,1.1972,1.2224,1.2487,1.2439,1.1986,1.1682,1.1346,0.0,0.0,0.0,0.0,0.0,0.0,0.0,0.0,0.0,0.0,0.0,0.0,0.0,0.0,0.0,0.0,0.0,0.0,0.0,0.0,0.0,0.0,0.0,0.0,0.0,0.0,0.0,0.0,0.0,0.0,0.0,0.0,0.0,0.0,0.0,0.0,0.0,0.0,0.0,0.0,0.0,1.3348,1.3545,1.3648,0.0,0.0,0.0,0.0,1.4034,1.4519,0.0,0.0,0.0,0.0,0.0,0.0,0.0,0.0,0.0,0.0,0.0,0.0,0.0,0.0,0.0,0.0,0.0,0.0,0.0,0.0,0.0,0.0,0.0,0.0,0.0,0.0,0.0,0.0,0.0,0.0,0.0,0.0,0.0,0.0,0.0,0.0,0.0,0.0,0.0,0.0,0.0,0.0,0.0,0.0,0.0,0.0,0.0,0.0,0.0,0.0,0.0,0.0,0.0,0.0,0.0,0.0,1.2043,1.1945,1.1972,1.2064,1.2312,1.2266,1.1992,1.1617,1.1347,0.0,0.0,0.0,0.0,0.0,0.0,0.0,0.0,0.0,0.0,0.0,0.0,0.0,0.0,0.0,0.0,0.0,0.0,0.0,0.0,0.0,0.0,0.0,0.0,0.0,0.0,0.0,0.0,0.0,0.0,0.0,0.0,0.0,0.0,0.0,0.0,0.0,0.0,0.0,0.0,0.0,1.3669,1.3643,1.3846,1.4045,0.0,0.0,1.429,1.4695,1.4727,0.0,0.0,0.0,0.0,0.0,0.0,0.0,0.0,0.0,0.0,0.0,0.0,0.0,0.0,0.0,0.0,0.0,0.0,0.0,0.0,0.0,0.0,0.0,0.0,0.0,0.0,0.0,0.0,0.0,0.0,0.0,0.0,0.0,0.0,0.0,0.0,0.0,0.0,0.0,0.0,0.0,0.0,0.0,0.0,0.0,0.0,0.0,0.0,0.0,0.0,0.0,0.0,0.0,0.0,0.0,1.1297,1.2264,1.1945,1.1875,1.2187,1.2231,1.2032,1.1871,1.1517,1.1176,0.0,0.0,0.0,0.0,0.0,0.0,0.0,0.0,0.0,0.0,0.0,0.0,0.0,0.0,0.0,0.0,0.0,0.0,0.0,0.0,0.0,0.0,0.0,0.0,0.0,0.0,0.0,0.0,0.0,0.0,0.0,0.0,0.0,0.0,0.0,0.0,0.0,0.0,0.0,0.0,0.0,0.0,1.4125,1.4315,0.0,0.0,0.0,1.4466,1.4697,0.0,0.0,0.0,0.0,0.0,0.0,0.0,0.0,0.0,0.0,0.0,0.0,0.0,0.0,0.0,0.0,0.0,0.0,0.0,0.0,0.0,0.0,0.0,0.0,0.0,0.0,0.0,0.0,0.0,0.0,0.0,0.0,0.0,0.0,0.0,0.0,0.0,0.0,0.0,0.0,0.0,0.0,0.0,0.0,0.0,0.0,0.0,0.0,0.0,0.0,0.0,0.0,0.0,0.0,0.0,0.0,0.0,1.2288,1.184,1.177,1.218,1.2037,1.1785,1.1607,1.1365,0.0,0.0,0.0,0.0,0.0,0.0,0.0,0.0,0.0,0.0,0.0,0.0,0.0,0.0,0.0,0.0,0.0,0.0,0.0,0.0,0.0,0.0,0.0,0.0,0.0,0.0,0.0,1.1272,0.0,0.0,0.0,0.0,0.0,0.0,0.0,0.0,0.0,0.0,0.0,0.0,0.0,0.0,1.401,1.4554,1.464,1.4704,0.0,0.0,1.4798,1.4784,1.4921,1.4911,0.0,0.0,0.0,0.0,0.0,0.0,0.0,0.0,0.0,0.0,0.0,0.0,0.0,0.0,0.0,0.0,0.0,0.0,0.0,0.0,0.0,0.0,0.0,0.0,0.0,0.0,0.0,0.0,0.0,0.0,0.0,0.0,0.0,0.0,0.0,0.0,0.0,0.0,0.0,0.0,0.0,0.0,0.0,0.0,0.0,0.0,0.0,0.0,0.0,0.0,0.0,0.0,0.0,0.0,0.0,1.189,1.1525,1.1447,1.1763,1.1699,1.1613,1.1348,1.1112,1.0875,0.0,0.0,0.0,0.0,0.0,0.0,0.0,0.0,0.0,0.0,0.0,0.0,0.0,0.0,0.0,0.0,0.0,0.0,0.0,0.0,0.0,0.0,0.0,0.0,0.0,0.0,0.0,0.0,0.0,0.0,0.0,0.0,0.0,0.0,0.0,0.0,0.0,0.0,0.0,0.0,0.0,1.4437,1.4593,1.4699,1.4903,0.0,0.0,1.5294,1.5197,1.5282,1.5186,1.4514,0.0,0.0,0.0,0.0,0.0,0.0,0.0,0.0,0.0,0.0,0.0,0.0,0.0,0.0,0.0,0.0,0.0,0.0,0.0,0.0,0.0,0.0,0.0,0.0,0.0,0.0,0.0,0.0,0.0,0.0,0.0,0.0,0.0,0.0,0.0,0.0,0.0,0.0,0.0,0.0,0.0,0.0,0.0,0.0,0.0,0.0,0.0,0.0,0.0,0.0,0.0,0.0,0.0,1.1211,1.1668,1.1432,1.1433,1.1677,1.1527,1.144,1.1267,1.1257,1.1095,0.0,0.0,0.0,0.0,0.0,0.0,0.0,0.0,0.0,0.0,0.0,0.0,0.0,0.0,0.0,0.0,0.0,0.0,0.0,0.0,0.0,0.0,0.0,0.0,0.0,0.0,0.0,0.0,1.2489,1.2653,1.2634,0.0,0.0,0.0,0.0,0.0,0.0,0.0,0.0,0.0,0.0,1.4419,1.4545,1.4811,0.0,0.0,1.5142,1.5104,1.505,1.5179,1.5161,1.5059,1.4872,0.0,0.0,0.0,0.0,0.0,0.0,0.0,0.0,0.0,0.0,0.0,0.0,0.0,0.0,0.0,0.0,0.0,0.0,0.0,0.0,0.0,0.0,0.0,0.0,0.0,0.0,0.0,0.0,0.0,0.0,0.0,0.0,0.0,0.0,0.0,0.0,0.0,0.0,0.0,0.0,0.0,0.0,0.0,0.0,0.0,0.0,0.0,0.0,0.0,0.0,0.0,0.0,1.1165,1.1358,1.1277,1.1354,1.1607,1.144,1.1267,1.1267,1.1267,1.1235,0.0,0.0,0.0,0.0,0.0,0.0,0.0,0.0,0.0,0.0,0.0,0.0,0.0,0.0,0.0,0.0,0.0,0.0,0.0,0.0,0.0,0.0,0.0,0.0,0.0,0.0,0.0,0.0,1.2668,1.2766,1.2282,0.0,0.0,0.0,0.0,0.0,0.0,0.0,0.0,0.0,0.0,1.4405,1.4668,1.4849,1.4896,1.5053,1.5065,1.5016,1.4997,1.5053,1.5108,1.5095,0.0,0.0,0.0,0.0,0.0,0.0,0.0,0.0,0.0,0.0,0.0,0.0,0.0,0.0,0.0,0.0,0.0,0.0,0.0,0.0,0.0,0.0,0.0,0.0,0.0,0.0,0.0,0.0,0.0,0.0,1.0763,0.0,0.0,0.0,0.0,0.0,0.0,0.0,0.0,0.0,0.0,0.0,0.0,0.0,0.0,0.0,0.0,0.0,0.0,0.0,0.0,0.0,0.0,1.1105,1.0961,1.104,1.1112,1.1343,1.1267,1.1267,1.1267,1.1267,1.1241,1.0993,0.0,0.0,0.0,0.0,0.0,0.0,0.0,0.0,0.0,0.0,0.0,0.0,0.0,0.0,0.0,0.0,0.0,0.0,0.0,0.0,0.0,0.0,0.0,0.0,0.0,0.0,1.2016,1.2487,1.2462,0.0,0.0,0.0,0.0,0.0,0.0,0.0,0.0,0.0,0.0,1.4141,1.4388,1.4849,1.4793,1.4764,1.5145,1.51,1.5036,1.4896,1.5072,1.5048,0.0,0.0,0.0,0.0,0.0,0.0,0.0,0.0,0.0,0.0,0.0,0.0,0.0,0.0,0.0,0.0,0.0,0.0,0.0,0.0,0.0,0.0,0.0,0.0,0.0,0.0,0.0,1.2041,1.1942,0.0,0.0,0.0,0.0,0.0,0.0,0.0,0.0,0.0,0.0,0.0,1.1593,1.1425,0.0,0.0,0.0,0.0,0.0,0.0,0.0,0.0,0.0,0.0,0.0,0.0,1.095,1.0947,1.1106,1.1268,1.1262,1.1267,1.1267,1.1267,1.1267,1.1235,1.0993,0.0,0.0,0.0,0.0,0.0,0.0,0.0,0.0,0.0,0.0,0.0,0.0,0.0,0.0,0.0,0.0,0.0,0.0,0.0,0.0,0.0,0.0,0.0,0.0,0.0,1.1333,0.0,0.0,0.0,0.0,0.0,0.0,0.0,0.0,0.0,0.0,0.0,1.3441,1.3986,1.4165,1.4244,1.4264,1.4384,1.4504,0.0,0.0,0.0,0.0,0.0,0.0,0.0,0.0,0.0,0.0,0.0,0.0,0.0,0.0,1.1952,1.172,1.1725,1.1796,1.1796,0.0,0.0,0.0,0.0,0.0,0.0,0.0,0.0,0.0,0.0,0.0,0.0,0.0,0.0,1.2541,0.0,1.2359,0.0,0.0,0.0,0.0,0.0,0.0,0.0,0.0,1.1885,1.1888,1.1972,1.1727,1.1605,0.0,1.1278,1.0852,0.0,0.0,0.0,0.0,0.0,0.0,0.0,0.0,1.0996,1.0988,1.1225,1.1267,1.1267,1.1267,1.1267,1.1181,1.1089,1.0973,1.0742,1.0589,1.0295,0.0,0.0,0.0,0.0,0.0,0.0,0.0,0.0,0.0,0.0,0.0,0.0,0.0,0.0,0.0,0.0,0.0,0.0,0.0,0.0,0.0,0.0,0.0,1.1144,0.0,0.0,0.0,0.0,0.0,0.0,0.0,0.0,0.0,1.298,1.2995,1.3168,1.3591,1.3662,1.3661,1.3761,0.0,0.0,0.0,0.0,0.0,0.0,0.0,1.3717,1.3802,1.3644,1.348,1.3307,1.2737,1.2266,1.2188,0.0,0.0,1.1643,1.1689,1.169,1.169,1.1758,1.1826,1.169,1.1683,1.1614,0.0,0.0,0.0,0.0,0.0,0.0,0.0,0.0,1.3585,1.3703,0.0,1.3181,0.0,0.0,0.0,0.0,0.0,1.1926,0.0,0.0,1.2065,1.1921,1.1969,1.1752,1.1387,1.0897,1.0908,1.0816,1.0643,1.0972,0.0,0.0,0.0,0.0,0.0,0.0,1.1233,1.1009,1.1235,1.1267,1.1267,1.1267,1.1181,1.1008,1.0824,1.0626,1.0338,1.0317,1.0115,0.9607,0.9607,0.0,0.0,0.0,0.0,0.0,0.0,0.0,0.0,0.0,0.0,0.0,0.0,0.0,0.0,0.0,0.0,0.0,0.0,0.0,0.0,1.0615,0.0,0.0,0.0,0.0,0.0,0.0,0.0,0.0,0.0,0.0,1.2235,1.255,1.276,1.2871,0.0,0.0,0.0,0.0,1.279,1.296,1.279,1.2705,1.2705,1.2875,1.2954,1.2705,0.0,0.0,1.2117,1.17,1.1445,1.1284,1.1421,1.1594,1.1563,1.1365,1.1095,1.095,1.0956,1.0842,1.0836,1.0962,1.0937,1.3995,0.0,0.0,0.0,0.0,1.3452,1.362,1.3811,1.3331,1.3121,1.3114,1.2798,0.0,0.0,0.0,0.0,0.0,0.0,1.224,1.2318,1.2266,1.2265,1.2251,1.1855,1.1573,1.1483,1.1234,1.1144,1.1144,1.1229,1.1055,1.0805,0.0,0.0,0.0,0.0,1.1153,1.1241,1.1149,1.1094,1.1094,1.0997,1.0819,1.0824,1.0733,1.0697,1.055,1.0403,1.0257,1.012,0.9756,0.0,0.0,0.0,0.0,0.0,0.0,0.0,0.0,0.0,0.0,0.0,0.0,0.0,0.0,0.0,0.0,0.0,0.0,0.0,1.0315,1.0627,1.0824,0.0,0.0,0.0,0.0,0.0,0.0,0.0,0.0,0.0,1.1182,1.1571,1.2129,0.0,0.0,1.2014,1.2345,1.2277,1.2192,1.2289,1.2203,0.0,1.2203,1.2295,1.2295,1.2203,1.2203,1.218,1.2026,1.1796,1.1541,1.1458,1.1392,1.1278,1.1312,1.1435,1.1565,1.1546,1.147,1.1398,1.1253,1.1247,1.1174,1.4554,1.4283,1.4049,1.3796,1.36,1.3729,1.379,1.3804,1.3391,1.3147,1.3059,1.2814,1.2644,1.2562,1.248,0.0,0.0,0.0,1.2386,1.2302,1.2383,1.2283,1.2118,1.1866,1.1618,1.1527,1.1354,1.1267,1.1267,1.1445,1.1348,1.1063,0.0,0.0,1.1128,1.1219,1.1257,1.1308,1.1315,1.1185,1.1091,1.0828,1.069,1.0685,1.0517,1.0381,1.0381,1.0262,1.0149,0.9981,0.9809,0.9533,0.0,0.0,0.0,0.0,0.0,0.0,0.0,0.0,0.0,0.0,0.0,0.9303,0.9547,0.0,0.0,0.0,1.0252,1.0242,1.0141,1.039,0.0,0.0,0.0,0.0,0.0,0.0,0.0,1.0985,1.0891,1.0847,1.0683,1.0863,1.1256,1.1655,1.1499,1.1332,1.1499,0.0,1.1602,1.1607,1.1699,1.1699,1.1693,1.1693,1.1693,1.1699,1.1693,1.1699,1.1693,1.1566,1.1472,1.1444,1.1433,1.1415,1.1415,1.1618,1.1726,1.1624,1.1552,1.1437,1.1354,1.1354,1.1272,1.4997,1.4943,1.4389,1.3814,1.3322,1.3853,1.3887,1.3436,1.3625,1.3632,1.3376,1.318,1.3076,1.3052,1.279,0.0,1.2355,1.2596,1.2534,1.2369,1.2369,1.2123,1.1727,1.1727,1.1565,1.1413,1.1402,1.1321,1.1337,1.1623,1.1725,1.172,1.151,1.1402,1.1418,1.1618,1.1547,1.1373,1.1566,1.1492,1.1211,1.0844,1.0561,1.0561,1.0264,1.0067,1.0062,1.0043,0.9866,0.9682,0.9822,0.9635,0.9096,0.0,0.0,0.0,0.0,0.0,0.0,0.0,0.0,0.0,0.0,0.0,0.0,0.0,0.0,0.0,0.9948,0.0,0.9958,0.9958,0.0,0.0,0.0,1.0258,1.0518,1.0345,1.0341,1.0564,0.0,0.0,1.0616,1.0381,1.0386,1.0641,1.0641,1.0641,1.0641,1.0824,1.0921,1.1008,1.1176,1.1267,1.1267,1.1354,1.1354,1.1354,1.1267,1.1354,1.1354,1.1343,1.1257,1.1338,1.1521,1.1688,1.1699,1.1652,1.1621,1.1305,1.1209,1.118,1.1238,1.1232,1.1221,1.5297,1.5257,1.4718,1.4242,1.3894,1.4343,1.43,1.404,1.3862,1.3779,1.376,1.3297,1.299,1.2796,1.2705,1.2583,1.236,1.2419,1.2363,1.2123,1.1957,1.1875,1.1965,1.1794,1.1798,1.1871,1.1881,1.1876,1.1887,1.1935,1.1962,1.1962,1.1908,1.1881,1.1887,1.1754,1.1689,1.1592,1.1283,1.1032,1.0755,1.0615,1.0591,1.0591,1.0305,1.0197,1.0192,1.0036,1.0014,0.988,0.9729,0.9601,0.9502,0.9152,0.0,0.0,0.0,0.0,0.0,0.0,0.0,0.0,0.0,0.9332,0.9554,0.0,1.0176,0.0,1.0219,1.0228,1.0228,1.0228,0.0,0.0,1.0253,1.0386,1.0634,1.0422,1.0317,1.0363,1.0307,1.024,1.0202,1.0125,1.012,1.0125,1.0125,1.0212,1.0381,1.0386,1.0559,1.0733,1.0916,1.1094,1.1094,1.1176,1.1267,1.1267,1.1267,1.1267,1.1267,1.1267,1.1267,1.1267,1.1354,1.144,1.1354,1.1386,1.1423,1.125,1.1222,1.1192,1.1192,1.1197,1.1197,1.5803,1.5576,1.5324,1.4993,1.4574,1.443,1.434,1.4263,1.3979,1.3882,1.3695,1.3357,1.3212,1.3067,1.2973,1.2797,1.2715,1.2622,1.2363,1.2192,1.2104,1.1998,1.2035,1.1945,1.1925,1.2043,1.2043,1.2048,1.1962,1.1966,1.2024,1.1843,1.2031,1.2083,1.2078,1.189,1.1745,1.146,1.1179,1.0944,1.0849,1.0764,1.0721,1.0529,1.0334,1.0185,0.9917,0.9803,0.9698,0.9694,0.967,0.9572,0.9484,0.9344,0.9204,0.0,0.0,0.0,0.0,0.0,0.0,0.0,0.0,0.0,0.0,0.0,1.002,1.0198,1.0144,1.0212,1.012,1.0125,1.0212,1.0207,1.0191,1.0257,1.0371,1.0277,1.0167,1.0197,1.012,1.012,1.0038,0.9951,0.9864,0.9781,0.9781,0.9781,1.012,1.0212,1.0381,1.0467,1.0824,1.1008,1.1094,1.1176,1.1181,1.1181,1.1089,1.0997,1.0997,1.1003,1.0997,1.0997,1.1084,1.1089,1.1084,1.0992,1.0906,1.0961,1.0958,1.105,1.12,1.12,1.12,1.6355,1.5921,1.5829,1.5602,1.5076,1.4583,1.4349,1.4299,1.4091,1.378,1.3562,1.3477,1.3459,1.3423,1.3144,1.3053,1.2962,1.2774,1.2592,1.2409,1.2318,1.2242,1.2097,1.2183,1.2113,1.214,1.2134,1.2047,1.1775,1.1974,1.1883,1.1702,1.1884,1.198,1.197,1.1985,1.1692,1.1216,1.1201,1.1198,1.1189,1.0927,1.0747,1.045,1.0256,0.9983,0.9639,0.9492,0.9477,0.931,0.9441,0.9525,0.9361,0.9493,0.9475,0.0,0.9341,0.0,0.0,0.0,0.0,0.0,0.0,0.0,0.0,0.9587,0.9762,0.9937,1.0038,1.0038,1.0038,1.0038,1.0038,1.0038,1.0038,0.9951,0.9951,0.9951,0.9951,0.9951,0.9956,0.9864,0.9864,0.9689,0.9519,0.9602,0.9432,0.9524,0.9868,1.0038,1.0207,1.0207,1.0564,1.0916,1.1089,1.1089,1.0921,1.0916,1.0824,1.0733,1.0733,1.0727,1.0727,1.0641,1.0733,1.0733,1.0641,1.0458,1.0366,1.0549,1.0621,1.0697,1.1052,1.1219,1.1176,1.6179,1.5921,1.572,1.5376,1.5114,1.4941,1.4655,1.4254,1.4242,1.4026,1.3833,1.3548,1.3338,1.315,1.2865,1.2683,1.25,1.25,1.2318,1.214,1.214,1.2248,1.2344,1.2344,1.2441,1.2619,1.2432,1.2336,1.2245,1.2088,1.2017,1.1915,1.196,1.1883,1.1683,0.0,0.0,0.0,1.0979,1.09,1.09,1.0672,1.0458,1.0453,1.0171,0.0,1.0017,0.9627,0.9448,0.9499,0.9433,0.0,0.0,0.0,0.0,0.0,0.0,0.0,0.0,0.0,0.0,0.0,0.9549,0.9563,0.9555,0.98,0.9908,1.0033,1.0038,1.0038,1.0038,1.0038,1.0038,1.0038,1.0038,0.9951,0.9689,0.9689,0.9607,0.9432,0.9437,0.9432,0.9432,0.9349,0.9345,0.9345,0.9349,0.9349,0.9432,0.9607,0.9685,0.9777,1.0212,1.0559,1.0814,1.0738,1.0738,1.0733,1.0733,1.0641,1.0641,1.0646,1.0554,1.0381,1.0289,1.0197,1.012,0.985,0.984,1.012,1.0125,1.0299,1.0727,1.0819,1.0819,1.624,0.0,1.5704,1.5515,0.0,1.5101,1.5068,1.5122,1.4667,1.4262,1.3921,1.3726,1.3561,1.3251,1.2963,1.2869,1.2775,1.2681,1.2587,1.2498,1.2398,1.2468,1.2587,1.2587,1.255,1.2565,1.2467,1.2278,1.198,1.1883,1.1688,1.1585,1.159,1.159,1.1389,1.1389,1.1292,1.1194,1.0904,1.0806,1.0806,1.0511,1.031,1.0212,1.0125,0.0,0.0,0.0,0.0,0.0,0.0,0.0,0.0,0.9256,0.0,0.9452,0.9356,0.9301,0.9297,0.9297,0.9342,0.9447,0.9461,0.9542,0.98,0.9803,0.9777,0.9777,0.9689,0.9694,0.9689,0.9694,0.9607,0.9607,0.9694,0.9607,0.9432,0.9432,0.9432,0.9345,0.9349,0.9262,0.9087,0.899,0.8907,0.8819,0.8644,0.8648,0.8648,0.9082,0.9519,0.9781,0.996,1.0222,1.0381,1.0304,1.013,1.013,1.0038,1.0038,1.0038,1.0038,0.9951,0.9864,0.9685,0.9685,0.9694,0.9515,0.9423,0.9602,0.9607,0.9689,0.9951,1.0294,1.0554,1.6293,1.5891,1.5885,1.5652,1.5246,1.5246,1.545,1.5732,0.0,0.0,0.0,1.3899,1.3682,1.3443,1.3147,1.3044,1.305,1.2861,1.2759,1.2759,1.2759,1.2759,1.2764,1.2764,1.2565,1.237,1.2273,1.2073,1.1585,1.1585,1.1394,1.1194,1.1194,1.1194,1.1194,1.1198,1.11,1.1096,1.09,1.0703,1.0703,1.0413,1.0117,0.992,0.992,0.9751,0.9505,0.9372,0.9206,0.8889,0.9018,0.9097,0.8924,0.9087,0.9262,0.9349,0.9349,0.9349,0.9349,0.9349,0.9349,0.9349,0.9349,0.9432,0.9864,0.9689,0.9519,0.9515,0.9432,0.9349,0.9349,0.9349,0.9349,0.9349,0.9349,0.9257,0.9174,0.917,0.917,0.9082,0.8999,0.8999,0.8736,0.8556,0.8372,0.8109,0.7937,0.7852,0.794,0.864,0.9345,0.9694,0.9791,0.996,1.0038,0.9873,0.9529,0.9519,0.9345,0.9257,0.917,0.917,0.917,0.9082,0.9082,0.9082,0.9082,0.8995,0.9082,0.9082,0.9082,0.9082,0.917,0.9515,0.9946,1.6193,1.5943,1.5943,1.5813,1.5777,1.5777,1.5545,1.5219,1.4855,1.4395,1.3859,1.3656,1.3445,1.3152,1.2958,1.2861,1.2861,1.2861,1.2759,1.2759,1.2759,1.2662,1.2467,1.2467,1.237,1.2078,1.1883,1.1688,1.1585,1.1394,1.1194,1.1194,1.1194,1.1194,1.1194,1.0998,1.0801,1.09,1.0605,1.031,1.0117,0.9821,0.9727,0.9628,0.9628,0.9616,0.9587,0.9441,0.9263,0.9068,0.8905,0.8828,0.8924,0.8911,0.9087,0.9257,0.9349,0.9349,0.9262,0.9349,0.9349,0.9349,0.9349,0.9345,0.9432,0.9349,0.9349,0.9349,0.9349,0.9349,0.9349,0.9257,0.9262,0.9262,0.9262,0.917,0.8723,0.8727,0.8552,0.8208,0.812,0.812,0.8032,0.8028,0.7848,0.7665,0.7489,0.7584,0.7683,0.8197,0.8815,0.9257,0.9437,0.9437,0.9432,0.9437,0.9174,0.8995,0.8911,0.8819,0.8727,0.8723,0.864,0.8372,0.8376,0.838,0.8204,0.812,0.8204,0.8204,0.8204,0.8208,0.8376,0.8552,0.8815,1.5998,1.5885,1.5885,1.5897,1.5916,1.5577,1.518,1.4853,1.4738,1.4367,1.3931,1.3814,1.3551,1.3352,1.3252,1.3152,1.3147,1.2908,1.275,1.274,1.252,1.2268,1.2175,1.2073,1.1878,1.178,1.1487,1.1389,1.1394,1.1292,1.1194,1.1194,1.1194,1.1096,1.0998,1.09,1.0609,1.0408,1.0216,1.0117,1.0019,0.9723,0.9624,0.9624,0.9624,0.9624,0.9624,0.9547,0.9421,0.9246,0.9068,0.8893,0.8893,0.8794,0.8828,0.8915,0.8915,0.8915,0.8915,0.8915,0.8915,0.8915,0.8915,0.8915,0.8915,0.8999,0.9087,0.9087,0.8999,0.8911,0.8915,0.8819,0.8727,0.8732,0.8644,0.8468,0.8288,0.8109,0.7933,0.7669,0.7584,0.7408,0.7323,0.7326,0.7234,0.6962,0.6871,0.6989,0.7337,0.762,0.7945,0.8576,0.8732,0.8732,0.8732,0.8644,0.8472,0.8384,0.8384,0.8292,0.8204,0.8201,0.8201,0.8113,0.8028,0.8028,0.7944,0.7944,0.7944,0.7944,0.7944,0.794,0.8025,0.8028,0.8292,1.5891,1.5791,1.5785,1.5696,1.5499,1.4928,1.4487,1.439,1.4277,1.4077,1.3767,1.3789,1.3735,1.3372,1.3372,1.3372,1.3243,1.2871,1.2682,1.2666,1.2302,1.2003,1.1865,1.1663,1.1541,1.1301,1.11,1.1002,1.0998,1.1096,1.11,1.1194,1.1096,1.0998,1.0806,1.0703,1.0408,1.0019,0.992,0.9924,0.9924,0.9727,0.9624,0.9624,0.9624,0.9624,0.9624,0.9624,0.9543,0.936,0.919,0.9015,0.8832,0.8658,0.8572,0.8572,0.8572,0.8572,0.8572,0.8572,0.8572,0.8572,0.8572,0.8572,0.8656,0.874,0.8828,0.8823,0.8744,0.8568,0.8476,0.838,0.8201,0.8021,0.7937,0.7764,0.7676,0.7496,0.7316,0.7228,0.7051,0.6789,0.6704,0.6615,0.645,0.6388,0.632,0.6569,0.7024,0.7047,0.7269,0.7645,0.796,0.8042,0.8004,0.7912,0.7723,0.7694,0.768,0.7676,0.7676,0.7676,0.7676,0.7676,0.7676,0.7676,0.7676,0.7676,0.7676,0.7676,0.7676,0.7676,0.7672,0.7672,0.794,1.5791,1.5589,1.5482,1.5261,1.46,1.3804,1.3599,1.3743,1.3532,1.3408,1.3434,1.3673,1.357,1.3075,1.3075,1.2977,1.2771,1.2622,1.2612,1.2612,1.2592,1.2176,1.1601,1.1487,1.1188,1.0636,1.0516,1.0524,1.0511,1.0708,1.09,1.1096,1.0998,1.0801,1.0703,1.0314,1.0023,1.0019,0.9723,0.9628,0.9628,0.9628,0.9624,0.9624,0.9624,0.9624,0.9624,0.9624,0.9547,0.9364,0.919,0.9015,0.8836,0.8662,0.8572,0.8572,0.8572,0.8572,0.8572,0.8572,0.8572,0.8572,0.8572,0.8572,0.8572,0.8656,0.8652,0.8652,0.8564,0.8476,0.8292,0.8201,0.7933,0.7665,0.7492,0.7404,0.6969,0.6881,0.6792,0.6517,0.6346,0.6171,0.6094,0.6014,0.5871,0.5965,0.6048,0.6114,0.6432,0.6629,0.6735,0.6995,0.7272,0.7489,0.739,0.7346,0.7305,0.7022,0.689,0.6989,0.6996,0.6982,0.6969,0.7143,0.7231,0.7231,0.7139,0.7139,0.7139,0.7228,0.7228,0.7228,0.7139,0.7231,0.7408,1.5256,1.5154,1.5041,1.4606,1.3959,1.3393,1.329,1.3423,1.3315,1.332,1.331,1.3434,1.3342,1.3148,1.3148,1.3148,1.3032,1.2485,1.2321,1.2307,1.1879,1.1461,1.1187,1.0771,1.0569,1.0501,1.0179,1.0116,1.043,1.0511,1.0605,1.0708,1.0609,1.0511,1.0314,1.0117,0.992,0.9723,0.9628,0.9624,0.9624,0.9624,0.9624,0.9624,0.9624,0.9624,0.9624,0.9624,0.9596,0.9502,0.925,0.9064,0.8986,0.8718,0.8572,0.8572,0.8572,0.8572,0.8572,0.8572,0.8572,0.8572,0.8572,0.8572,0.8572,0.8476,0.8384,0.8384,0.8384,0.8292,0.8025,0.776,0.7492,0.7228,0.6962,0.6612,0.6438,0.6171,0.5905,0.5813,0.5636,0.5486,0.5461,0.5527,0.5491,0.5541,0.5688,0.5923,0.6075,0.6187,0.6222,0.6276,0.6393,0.6594,0.6904,0.7038,0.691,0.6771,0.6697,0.665,0.6638,0.6563,0.6612,0.67,0.6707,0.6707,0.6694,0.6694,0.6694,0.6697,0.6697,0.6697,0.6877,0.6881,0.7054,1.4928,1.4713,1.4272,1.3738,1.331,1.2748,1.2649,1.2876,1.2876,1.2881,1.2876,1.2876,1.2881,1.2881,1.2985,1.2989,1.2748,1.2182,1.201,1.1884,1.1314,1.1015,1.0753,1.033,1.0244,1.0199,0.9863,0.9868,1.0203,1.0233,1.0216,1.0413,1.0314,1.0216,1.0019,0.992,0.9821,0.9628,0.9624,0.9624,0.9624,0.9624,0.9624,0.9624,0.9624,0.9624,0.9624,0.9624,0.9624,0.962,0.9328,0.9145,0.9088,0.8804,0.8617,0.8572,0.8572,0.8572,0.8572,0.8572,0.8572,0.8572,0.8572,0.8568,0.8476,0.8296,0.8113,0.7933,0.7937,0.7848,0.7676,0.7319,0.6966,0.6786,0.6257,0.5994,0.5816,0.5458,0.5292,0.5318,0.5158,0.4915,0.5016,0.5016,0.5179,0.5274,0.5403,0.5627,0.5799,0.5821,0.5849,0.5927,0.5734,0.5857,0.637,0.6421,0.6415,0.6358,0.6278,0.6325,0.6415,0.6412,0.6418,0.6644,0.6508,0.6462,0.6523,0.6428,0.6438,0.6432,0.6428,0.6432,0.6612,0.67,0.6789,1.4713,1.4056,1.296,1.2536,1.2436,1.176,1.1546,1.1787,1.1678,1.1678,1.1678,1.1678,1.1678,1.1678,1.2114,1.2114,1.1673,1.1655,1.1538,1.1538,1.152,1.1108,1.0408,1.04,0.9997,0.9533,0.9418,0.953,0.9758,0.9705,0.9924,1.031,1.0117,1.0019,0.992,0.9723,0.9624,0.9624,0.9624,0.9624,0.9624,0.9624,0.9624,0.9624,0.9624,0.9624,0.9624,0.9624,0.9624,0.9624,0.9437,0.9267,0.9104,0.8905,0.8723,0.8589,0.8572,0.8572,0.8572,0.8572,0.8572,0.8568,0.8568,0.8476,0.8292,0.8116,0.7845,0.7231,0.7139,0.7139,0.7051,0.6881,0.6435,0.5899,0.5813,0.5463,0.5104,0.5037,0.5063,0.5048,0.4899,0.4758,0.4653,0.4647,0.4886,0.5007,0.5163,0.5313,0.5506,0.562,0.5627,0.5529,0.5529,0.5598,0.5603,0.5771,0.563,0.5684,0.5944,0.5894,0.6078,0.6244,0.636,0.6486,0.6459,0.6488,0.6385,0.6346,0.6361,0.6361,0.6349,0.6349,0.6435,0.6428,0.652,1.3635,1.298,1.2432,1.1887,1.1564,1.1227,1.1122,1.1021,1.1021,1.1025,1.1021,1.1021,1.0911,1.0802,1.1021,1.1131,1.124,1.0911,1.0802,1.0692,1.0582,1.0331,1.0058,0.9607,0.9417,0.9179,0.9055,0.9025,0.9282,0.921,0.9225,0.9525,0.9529,0.9529,0.9723,0.9628,0.9624,0.9624,0.9624,0.9624,0.9624,0.9624,0.9624,0.9624,0.9624,0.9624,0.9624,0.9624,0.9624,0.9624,0.9453,0.9275,0.9096,0.8816,0.8633,0.8576,0.8572,0.8572,0.8572,0.8572,0.848,0.8384,0.8384,0.8204,0.8028,0.7672,0.7404,0.7054,0.6517,0.6251,0.6163,0.6166,0.5902,0.5555,0.5255,0.5115,0.4947,0.4804,0.4767,0.4806,0.4759,0.4724,0.4661,0.4734,0.4785,0.4889,0.5118,0.5135,0.5135,0.5238,0.5338,0.5135,0.5135,0.5024,0.5099,0.5383,0.556,0.5623,0.5684,0.5833,0.6005,0.6135,0.6253,0.6324,0.6304,0.6371,0.6282,0.6218,0.621,0.6192,0.6175,0.623,0.6171,0.6221,0.6385,1.2659,1.2219,1.1782,1.1345,1.1017,1.0798,1.0582,1.0363,1.0363,1.0363,1.0363,1.0363,1.0147,1.0036,0.9812,0.9919,1.0245,1.0036,1.004,0.9926,0.9702,0.9482,0.9372,0.8923,0.8766,0.8669,0.851,0.8574,0.8756,0.8686,0.8685,0.8939,0.9137,0.9236,0.943,0.9533,0.9624,0.9624,0.9624,0.9624,0.9624,0.9624,0.9624,0.9624,0.9624,0.9624,0.9624,0.9624,0.9624,0.9608,0.9506,0.934,0.9096,0.8816,0.8625,0.8576,0.8568,0.8476,0.8476,0.8388,0.83,0.8116,0.8021,0.7845,0.7676,0.7231,0.6962,0.6609,0.6166,0.5638,0.5412,0.5422,0.5335,0.517,0.4977,0.4758,0.4765,0.4628,0.4579,0.462,0.4692,0.4738,0.4755,0.48,0.4824,0.4832,0.4935,0.4935,0.4834,0.4935,0.5037,0.4834,0.4834,0.4832,0.4822,0.5116,0.5216,0.5289,0.5473,0.5637,0.5804,0.5932,0.6077,0.6059,0.6138,0.6121,0.6078,0.6013,0.5977,0.5958,0.6034,0.6098,0.6065,0.6133,0.6227,1.2005,1.1787,1.1021,1.0692,1.0582,1.0147,0.9816,0.9816,0.9812,0.9702,0.9706,0.9489,0.9375,0.9268,0.8819,0.8595,0.8706,0.9044,0.9265,0.9265,0.9037,0.8813,0.8595,0.8484,0.826,0.8017,0.7901,0.7877,0.8046,0.8107,0.8275,0.8457,0.8836,0.9137,0.9232,0.943,0.9628,0.9529,0.9628,0.9624,0.9624,0.9624,0.9624,0.9624,0.9624,0.9624,0.9624,0.9624,0.9624,0.9624,0.9616,0.9453,0.9153,0.893,0.8751,0.8533,0.8308,0.8212,0.8113,0.8025,0.7944,0.7764,0.7584,0.7404,0.7054,0.6894,0.6456,0.5925,0.5665,0.5425,0.4975,0.491,0.491,0.4818,0.4797,0.4759,0.4668,0.4577,0.4612,0.4698,0.4775,0.4826,0.483,0.483,0.4832,0.4834,0.4834,0.4834,0.4834,0.4834,0.4834,0.4834,0.4832,0.4832,0.4832,0.4832,0.4832,0.4828,0.5125,0.5311,0.5499,0.5654,0.5816,0.5894,0.6074,0.6152,0.62,0.6138,0.6102,0.6081,0.6067,0.6037,0.6098,0.6076,0.6197,1.1126,1.1017,1.0363,0.9926,0.9816,0.9596,0.9265,0.893,0.8927,0.8819,0.8598,0.8488,0.8491,0.838,0.8263,0.8156,0.8156,0.8045,0.8045,0.8377,0.8266,0.8266,0.8045,0.782,0.7376,0.7135,0.7147,0.724,0.7434,0.7613,0.7778,0.8065,0.8237,0.8535,0.8928,0.9229,0.9331,0.9335,0.9529,0.9624,0.9624,0.9624,0.9624,0.9624,0.9624,0.9624,0.9624,0.9624,0.9624,0.9624,0.9624,0.9421,0.9104,0.882,0.8559,0.8324,0.8207,0.796,0.7771,0.7672,0.7418,0.7238,0.7061,0.6792,0.645,0.6253,0.6026,0.5587,0.5366,0.506,0.4904,0.478,0.4687,0.4633,0.4706,0.4762,0.4671,0.4714,0.4761,0.4787,0.4818,0.4832,0.4832,0.4832,0.4832,0.4832,0.4832,0.4832,0.4832,0.4832,0.4832,0.4832,0.4832,0.4832,0.4832,0.4832,0.4832,0.4834,0.5037,0.5138,0.5238,0.5436,0.561,0.5795,0.5981,0.6057,0.6208,0.6168,0.6128,0.6088,0.6059,0.6124,0.6097,0.6108,0.6138,1.0363,1.0366,0.9816,0.9596,0.9379,0.9154,0.8819,0.8484,0.8374,0.8152,0.8045,0.7934,0.7826,0.7712,0.7601,0.749,0.7379,0.7046,0.7046,0.7382,0.7379,0.7382,0.7382,0.7049,0.6715,0.6594,0.6646,0.6769,0.6757,0.7061,0.7244,0.7434,0.7766,0.8035,0.8528,0.8733,0.8935,0.9031,0.9225,0.9327,0.9327,0.9327,0.9327,0.9327,0.9327,0.9327,0.9324,0.9324,0.9426,0.9529,0.9529,0.9249,0.8891,0.8672,0.8355,0.8047,0.782,0.759,0.7406,0.7138,0.7031,0.6675,0.6494,0.6221,0.5962,0.5752,0.5596,0.5241,0.5092,0.4864,0.4812,0.4764,0.4687,0.4677,0.472,0.4755,0.4765,0.4802,0.4828,0.483,0.4832,0.4832,0.4832,0.4832,0.4832,0.4832,0.4832,0.4832,0.4832,0.4832,0.4832,0.4832,0.4832,0.4832,0.4832,0.4832,0.4832,0.4834,0.4935,0.4935,0.5035,0.5238,0.5425,0.5722,0.5914,0.5912,0.5973,0.596,0.5932,0.5992,0.6058,0.5879,0.5876,0.5863,0.5881,0.9706,0.9706,0.9379,0.9268,0.9268,0.8709,0.8374,0.8149,0.8042,0.7823,0.7823,0.7496,0.7382,0.7157,0.6935,0.6717,0.6386,0.6383,0.6383,0.6386,0.6386,0.6383,0.6383,0.6383,0.6272,0.6161,0.6267,0.6208,0.6199,0.652,0.6741,0.6711,0.7196,0.7633,0.7935,0.8237,0.8432,0.8627,0.8726,0.8825,0.8825,0.8825,0.8825,0.8825,0.8825,0.8825,0.8825,0.8825,0.9027,0.943,0.9229,0.897,0.8642,0.8308,0.8041,0.7809,0.7318,0.7111,0.692,0.6599,0.6324,0.6227,0.5946,0.5603,0.5576,0.5405,0.5239,0.4957,0.4882,0.4822,0.4795,0.4722,0.4753,0.4812,0.4814,0.482,0.483,0.4832,0.4832,0.4832,0.4832,0.4832,0.4832,0.4832,0.4832,0.4832,0.4832,0.4832,0.4832,0.4832,0.4832,0.4832,0.4832,0.4832,0.4832,0.4832,0.4832,0.4834,0.4834,0.4834,0.4834,0.5035,0.5338,0.5539,0.5639,0.5739,0.5732,0.571,0.5705,0.5785,0.5691,0.5627,0.5615,0.5678,0.5664,0.9144,0.9034,0.8598,0.8494,0.8605,0.8266,0.7931,0.7487,0.7487,0.716,0.6826,0.6717,0.6606,0.6495,0.6495,0.6386,0.6272,0.6049,0.5933,0.5935,0.5717,0.5714,0.5935,0.5935,0.5826,0.5717,0.5822,0.5883,0.5782,0.6114,0.622,0.6316,0.6603,0.6836,0.7141,0.7534,0.7829,0.7928,0.8329,0.8528,0.8528,0.8627,0.8825,0.8825,0.8726,0.8726,0.8726,0.8627,0.863,0.8924,0.8733,0.8524,0.8174,0.7865,0.7602,0.7208,0.6888,0.6556,0.6295,0.5994,0.5803,0.5611,0.5443,0.5325,0.5135,0.5108,0.5048,0.4876,0.4818,0.4765,0.4794,0.4798,0.4814,0.4826,0.4832,0.4832,0.4832,0.4832,0.4832,0.4832,0.4832,0.4832,0.4832,0.4832,0.4832,0.4832,0.4832,0.4832,0.4832,0.4832,0.4832,0.4832,0.4832,0.4832,0.4832,0.4832,0.4832,0.4832,0.4834,0.4834,0.4834,0.4935,0.5138,0.534,0.5338,0.5338,0.5536,0.5525,0.5532,0.5434,0.5534,0.5436,0.5534,0.5613,0.561,0.8481,0.8484,0.8152,0.8048,0.8162,0.782,0.7374,0.6927,0.6824,0.6606,0.6386,0.6272,0.6272,0.6047,0.6047,0.6049,0.594,0.5714,0.5601,0.5601,0.5493,0.5493,0.5603,0.5603,0.5491,0.5382,0.5603,0.5571,0.5505,0.5712,0.5824,0.5853,0.6017,0.6242,0.6442,0.6836,0.7132,0.7335,0.7637,0.7932,0.7935,0.8031,0.8131,0.8131,0.8127,0.8127,0.8131,0.7932,0.8031,0.8226,0.8131,0.7935,0.7537,0.7235,0.6901,0.6637,0.6336,0.6105,0.5863,0.5552,0.5361,0.5266,0.5169,0.4973,0.4884,0.4927,0.4858,0.4769,0.481,0.4828,0.4832,0.4832,0.4832,0.4832,0.4832,0.4832,0.4832,0.4832,0.4832,0.4832,0.4832,0.4832,0.4832,0.4832,0.4832,0.4832,0.4832,0.4832,0.4832,0.4832,0.4832,0.4832,0.4832,0.4832,0.4832,0.4832,0.4832,0.4832,0.4832,0.4832,0.4832,0.4832,0.4935,0.5138,0.5037,0.5035,0.5236,0.5233,0.5135,0.5135,0.5236,0.5336,0.5334,0.5434,0.5334,0.7934,0.7934,0.7934,0.7934,0.7826,0.7376,0.6816,0.6255,0.6267,0.6274,0.6163,0.6163,0.5938,0.5712,0.5712,0.5603,0.5384,0.5493,0.5382,0.5382,0.5382,0.5382,0.5493,0.5493,0.5382,0.5382,0.5382,0.538,0.5435,0.5519,0.5437,0.5477,0.5535,0.5648,0.5942,0.6237,0.6439,0.6639,0.6939,0.7039,0.7138,0.7135,0.7235,0.7235,0.7235,0.7135,0.7138,0.7039,0.7135,0.7329,0.7431,0.7235,0.6742,0.6439,0.6234,0.6029,0.5822,0.562,0.5527,0.5309,0.5125,0.5114,0.4916,0.4834,0.4814,0.4814,0.4818,0.4818,0.4832,0.4832,0.4832,0.4832,0.4832,0.4832,0.4832,0.4832,0.4832,0.4832,0.4832,0.4832,0.4832,0.4832,0.4832,0.4832,0.4832,0.4832,0.4832,0.4832,0.4832,0.4832,0.4832,0.4832,0.4832,0.4832,0.4832,0.4832,0.4832,0.4832,0.4832,0.4832,0.4832,0.4832,0.4832,0.4834,0.4935,0.4935,0.4935,0.4935,0.4834,0.4935,0.5035,0.4935,0.4832,0.5033,0.5033,0.7715,0.7715,0.749,0.7382,0.7276,0.6937,0.6376,0.5592,0.5819,0.5826,0.5603,0.5605,0.5605,0.5491,0.5491,0.5491,0.5382,0.5382,0.5382,0.5382,0.5382,0.5382,0.5382,0.5382,0.5382,0.5382,0.5382,0.5382,0.5339,0.532,0.5214,0.5187,0.5246,0.534,0.5438,0.5636,0.5737,0.5937,0.6139,0.6339,0.6339,0.6437,0.6537,0.6537,0.6537,0.6437,0.6342,0.6242,0.6239,0.6134,0.6434,0.6437,0.6242,0.5939,0.5737,0.5636,0.5438,0.5238,0.524,0.5035,0.4935,0.4935,0.4834,0.4832,0.4832,0.4832,0.4832,0.4832,0.4832,0.4832,0.4832,0.4832,0.4832,0.4832,0.4832,0.4832,0.4832,0.4832,0.4832,0.4832,0.4832,0.4832,0.4832,0.4832,0.4832,0.4832,0.4832,0.4832,0.4832,0.4832,0.4832,0.4832,0.4832,0.4832,0.4832,0.4832,0.4832,0.4832,0.4832,0.4832,0.4832,0.4832,0.4832,0.4832,0.4834,0.4832,0.4832,0.4832,0.4834,0.4834,0.4832,0.4832,0.4832,0.4832,0.4832,0.7382,0.7382,0.7046,0.7049,0.7057,0.6604,0.5931,0.5485,0.5489,0.5491,0.5382,0.5382,0.5382,0.5382,0.5382,0.5382,0.5382,0.5382,0.5382,0.5382,0.5382,0.5382,0.5382,0.5382,0.5382,0.5382,0.5382,0.5382,0.5335,0.5212,0.5106,0.5092,0.5029,0.5046,0.5037,0.5238,0.5438,0.5438,0.5639,0.5839,0.5837,0.5937,0.6037,0.6034,0.6034,0.5937,0.5839,0.5839,0.5639,0.5539,0.5636,0.5739,0.5641,0.5539,0.5336,0.5236,0.5135,0.5037,0.4935,0.4935,0.4834,0.4832,0.4832,0.4832,0.4832,0.4832,0.4832,0.4832,0.4832,0.4832,0.4832,0.4832,0.4832,0.4832,0.4832,0.4832,0.4832,0.4832,0.4832,0.4832,0.4832,0.4832,0.4832,0.4832,0.4832,0.4832,0.4832,0.4832,0.4832,0.4832,0.4832,0.4832,0.4832,0.4832,0.4832,0.4832,0.4832,0.4832,0.4832,0.4832,0.4832,0.4832,0.4832,0.4832,0.4832,0.4832,0.4832,0.4832,0.4832,0.4832,0.4832,0.4832,0.4832,0.4832,0.4832,0.7154,0.7154,0.6824,0.6826,0.6943,0.6158,0.571,0.5373,0.5377,0.5382,0.5382,0.5382,0.5382,0.5382,0.5382,0.5382,0.5382,0.5382,0.5382,0.5382,0.5382,0.5382,0.5382,0.5382,0.5382,0.5382,0.5382,0.5382,0.5335,0.521,0.511,0.5075,0.4924,0.4843,0.4834,0.5037,0.5138,0.5138,0.5336,0.5436,0.5436,0.5436,0.5436,0.5436,0.5434,0.5434,0.5436,0.5436,0.5336,0.5138,0.5138,0.5138,0.5138,0.5138,0.5037,0.4834,0.4834,0.4834,0.4834,0.4834,0.4832,0.4832,0.4832,0.4832,0.4832,0.4832,0.4832,0.4832,0.4832,0.4832,0.4832,0.4832,0.4832,0.4832,0.4832,0.4832,0.4832,0.4832,0.4832,0.4832,0.4832,0.4832,0.4832,0.4832,0.4832,0.4832,0.4832,0.4832,0.4832,0.4832,0.4832,0.4832,0.4832,0.4832,0.4832,0.4832,0.4832,0.4832,0.4832,0.4832,0.4832,0.4832,0.4832,0.4832,0.4832,0.4832,0.4832,0.4832,0.4832,0.4832,0.4832,0.4832,0.4832,0.4832,0.4832,0.7046,0.6826,0.6715,0.6606,0.6383,0.5935,0.5601,0.538,0.5382,0.5382,0.5382,0.5382,0.5382,0.5382,0.5382,0.5382,0.5382,0.5382,0.5382,0.5382,0.5382,0.5382,0.5382,0.5382,0.5382,0.5382,0.5382,0.5382,0.5341,0.5208,0.5114,0.5069,0.4924,0.4836,0.4834,0.4834,0.4935,0.4935,0.4935,0.5035,0.5035,0.5035,0.5035,0.5035,0.5035,0.5033,0.4933,0.4935,0.4935,0.4834,0.4834,0.4834,0.4935,0.4935,0.4834,0.4834,0.4832,0.4832,0.4832,0.4832,0.4832,0.4832,0.4832,0.4832,0.4832,0.4832,0.4832,0.4832,0.4832,0.4832,0.4832,0.4832,0.4832,0.4832,0.4832,0.4832,0.4832,0.4832,0.4832,0.4832,0.4832,0.4832,0.4832,0.4832,0.4832,0.4832,0.4832,0.4832,0.4832,0.4832,0.4832,0.4832,0.4832,0.4832,0.4832,0.4832,0.4832,0.4832,0.4832,0.4832,0.4832,0.4832,0.4832,0.4832,0.4832,0.4832,0.4832,0.4832,0.4832,0.4832,0.4832,0.4832,0.4832,0.4832,0.4832,0.6826,0.6495,0.6267,0.627,0.6163,0.5826,0.5491,0.5382,0.5382,0.5382,0.5382,0.5382,0.5382,0.5382,0.5382,0.5382,0.5382,0.5382,0.5382,0.5382,0.5382,0.5382,0.5382,0.5382,0.5382,0.5382,0.5382,0.5382,0.5363,0.5198,0.5116,0.5063,0.4924,0.4834,0.4832,0.4834,0.4832,0.4832,0.4832,0.4832,0.4832,0.4832,0.4832,0.4832,0.4832,0.4832,0.4832,0.4832,0.4834,0.4834,0.4834,0.4832,0.4832,0.4832,0.4832,0.4832,0.4832,0.4832,0.4832,0.4832,0.4832,0.4832,0.4832,0.4832,0.4832,0.4832,0.4832,0.4832,0.4832,0.4832,0.4832,0.4832,0.4832,0.4832,0.4832,0.4832,0.4832,0.4832,0.4832,0.4832,0.4832,0.4832,0.4832,0.4832,0.4832,0.4832,0.4832,0.4832,0.4832,0.4832,0.4832,0.4832,0.4832,0.4832,0.4832,0.4832,0.4832,0.4832,0.4832,0.4832,0.4832,0.4832,0.4832,0.4832,0.4832,0.4832,0.4832,0.4832,0.4832,0.4832,0.4832,0.4832,0.4832,0.4832,0.4832,0.6495,0.6161,0.5933,0.5938,0.6051,0.5607,0.5382,0.5382,0.5382,0.5382,0.5382,0.5382,0.5382,0.5382,0.5382,0.5382,0.5382,0.5382,0.5382,0.5382,0.5382,0.5382,0.5382,0.5382,0.5382,0.5382,0.5382,0.5382,0.5349,0.5198,0.512,0.5057,0.4924,0.4832,0.4832,0.4832,0.4832,0.4832,0.4832,0.4832,0.4832,0.4832,0.4832,0.4832,0.4832,0.4832,0.4832,0.4832,0.4832,0.4832,0.4832,0.4832,0.4832,0.4832,0.4832,0.4832,0.4832,0.4832,0.4832,0.4832,0.4832,0.4832,0.4832,0.4832,0.4832,0.4832,0.4832,0.4832,0.4832,0.4832,0.4832,0.4832,0.4832,0.4832,0.4832,0.4832,0.4832,0.4832,0.4832,0.4832,0.4832,0.4832,0.4832,0.4832,0.4832,0.4832,0.4832,0.4832,0.4832,0.4832,0.4832,0.4832,0.4832,0.4832,0.4832,0.4832,0.4832,0.4832,0.4832,0.4832,0.4832,0.4832,0.4832,0.4832,0.4832,0.4832,0.4832,0.4832,0.4832,0.4832,0.4832,0.4832,0.4832,0.4832,0.4832,0.6161,0.5822,0.5822,0.5712,0.5493,0.5493,0.5382,0.5382,0.5382,0.5382,0.5382,0.5382,0.5382,0.5382,0.5382,0.5382,0.5382,0.5382,0.5382,0.5382,0.5382,0.5382,0.5382,0.5382,0.5371,0.5365,0.5369,0.5382,0.5322,0.5177,0.5104,0.5061,0.493,0.4832,0.4832,0.4832,0.4832,0.4832,0.4832,0.4832,0.4832,0.4832,0.4832,0.4832,0.4832,0.4832,0.4832,0.4832,0.4832,0.4832,0.4832,0.4832,0.4832,0.4832,0.4832,0.4832,0.4832,0.4832,0.4832,0.4832,0.4832,0.4832,0.4832,0.4832,0.4832,0.4832,0.4832,0.4832,0.4832,0.4832,0.4832,0.4832,0.4832,0.4832,0.4832,0.4832,0.4832,0.4832,0.4832,0.4832,0.4832,0.4832,0.4832,0.4832,0.4832,0.4832,0.4832,0.4832,0.4832,0.4832,0.4832,0.4832,0.4832,0.4832,0.4832,0.4832,0.4832,0.4832,0.4832,0.4832,0.4832,0.4832,0.4832,0.4832,0.4832,0.4832,0.4832,0.4832,0.4832,0.4832,0.4832,0.4832,0.4832,0.4832,0.4832,0.5717,0.5601,0.5601,0.5491,0.5382,0.5382,0.5382,0.5382,0.5382,0.5382,0.5382,0.5382,0.5382,0.5382,0.5382,0.5382,0.5382,0.5382,0.5382,0.5382,0.5382,0.5382,0.5382,0.5377,0.5363,0.5314,0.5296,0.5257,0.5214,0.5159,0.509,0.5016,0.4908,0.4832,0.4832,0.4832,0.4832,0.4832,0.4832,0.4832,0.4832,0.4832,0.4832,0.4832,0.4832,0.4832,0.4832,0.4832,0.4832,0.4832,0.4832,0.4832,0.4832,0.4832,0.4832,0.4832,0.4832,0.4832,0.4832,0.4832,0.4832,0.4832,0.4832,0.4832,0.4832,0.4832,0.4832,0.4832,0.4832,0.4832,0.4832,0.4832,0.4832,0.4832,0.4832,0.4832,0.4832,0.4832,0.4832,0.4832,0.4832,0.4832,0.4832,0.4832,0.4832,0.4832,0.4832,0.4832,0.4832,0.4832,0.4832,0.4832,0.4832,0.4832,0.4832,0.4832,0.4832,0.4832,0.4832,0.4832,0.4832,0.4832,0.4832,0.4832,0.4832,0.4832,0.4832,0.4832,0.4832,0.4832,0.4832,0.4832,0.4832,0.4832,0.4832,0.5382,0.5382,0.5382,0.5382,0.5382,0.5382,0.5382,0.5382,0.5382,0.5382,0.5382,0.5382,0.5382,0.5382,0.5382,0.5382,0.5382,0.5382,0.5382,0.5382,0.5382,0.5382,0.5371,0.5361,0.5306,0.5241,0.5218,0.5167,0.5106,0.5065,0.503,0.4967,0.4885,0.4841,0.4832,0.4832,0.4832,0.4832,0.4832,0.4832,0.4832,0.4832,0.4832,0.4832,0.4832,0.4832,0.4832,0.4832,0.4832,0.4832,0.4832,0.4832,0.4832,0.4832,0.4832,0.4832,0.4832,0.4832,0.4832,0.4832,0.4832,0.4832,0.4832,0.4832,0.4832,0.4832,0.4832,0.4832,0.4832,0.4832,0.4832,0.4832,0.4832,0.4832,0.4832,0.4832,0.4832,0.4832,0.4832,0.4832,0.4832,0.4832,0.4832,0.4832,0.4832,0.4832,0.4832,0.4832,0.4832,0.4832,0.4832,0.4832,0.4832,0.4832,0.4832,0.4832,0.4832,0.4832,0.4832,0.4832,0.4832,0.4832,0.4832,0.4832,0.4832,0.4832,0.4832,0.4832,0.4832,0.4832,0.4832,0.4832,0.4832,0.4832,0.4832,0.5382,0.5382,0.5382,0.5382,0.5382,0.5382,0.5382,0.5382,0.5382,0.5382,0.5382,0.5382,0.5382,0.5382,0.5382,0.5382,0.5382,0.5382,0.5382,0.5382,0.5382,0.5369,0.5343,0.5294,0.5241,0.521,0.5153,0.5069,0.5002,0.4981,0.4975,0.4959,0.4873,0.4843,0.4832,0.4832,0.4832,0.4832,0.4832,0.4832,0.4832,0.4832,0.4832,0.4832,0.4832,0.4832,0.4832,0.4832,0.4832,0.4832,0.4832,0.4832,0.4832,0.4832,0.4832,0.4832,0.4832,0.4832,0.4832,0.4832,0.4832,0.4832,0.4832,0.4832,0.4832,0.4832,0.4832,0.4832,0.4832,0.4832,0.4832,0.4832,0.4832,0.4832,0.4832,0.4832,0.4832,0.4832,0.4832,0.4832,0.4832,0.4832,0.4832,0.4832,0.4832,0.4832,0.4832,0.4832,0.4832,0.4832,0.4832,0.4832,0.4832,0.4832,0.4832,0.4832,0.4832,0.4832,0.4832,0.4832,0.4832,0.4832,0.4832,0.4832,0.4832,0.4832,0.4832,0.4832,0.4832,0.4832,0.4832,0.4832,0.4832,0.4832,0.4832,0.5382,0.5382,0.5382,0.5382,0.5382,0.5382,0.5382,0.5382,0.5382,0.5382,0.5382,0.5382,0.5382,0.5382,0.5382,0.5382,0.5382,0.5382,0.5382,0.5359,0.5335,0.5304,0.5265,0.5206,0.5132,0.5088,0.5035,0.4975,0.4896,0.4898,0.4888,0.4869,0.4851,0.4841,0.4832,0.4832,0.4832,0.4832,0.4832,0.4832,0.4832,0.4832,0.4832,0.4832,0.4832,0.4832,0.4832,0.4832,0.4832,0.4832,0.4832,0.4832,0.4832,0.4832,0.4832,0.4832,0.4832,0.4832,0.4832,0.4832,0.4832,0.4832,0.4832,0.4832,0.4832,0.4832,0.4832,0.4832,0.4832,0.4832,0.4832,0.4832,0.4832,0.4832,0.4832,0.4832,0.4832,0.4832,0.4832,0.4832,0.4832,0.4832,0.4832,0.4832,0.4832,0.4832,0.4832,0.4832,0.4832,0.4832,0.4832,0.4832,0.4832,0.4832,0.4832,0.4832,0.4832,0.4832,0.4832,0.4832,0.4832,0.4832,0.4832,0.4832,0.4832,0.4832,0.4832,0.4832,0.4832,0.4832,0.4832,0.4832,0.4832,0.4832,0.4832,0.5382,0.5382,0.5382,0.5382,0.5382,0.5382,0.5382,0.5382,0.5382,0.5382,0.5382,0.5382,0.5382,0.5382,0.5382,0.5382,0.5382,0.538,0.5361,0.5326,0.5279,0.523,0.5181,0.5116,0.5041,0.4973,0.4932,0.4888,0.4847,0.4836,0.4841,0.4843,0.4832,0.4832,0.4832,0.4832,0.4832,0.4832,0.4832,0.4832,0.4832,0.4832,0.4832,0.4832,0.4832,0.4832,0.4832,0.4832,0.4832,0.4832,0.4832,0.4832,0.4832,0.4832,0.4832,0.4832,0.4832,0.4832,0.4832,0.4832,0.4832,0.4832,0.4832,0.4832,0.4832,0.4832,0.4832,0.4832,0.4832,0.4832,0.4832,0.4832,0.4832,0.4832,0.4832,0.4832,0.4832,0.4832,0.4832,0.4832,0.4832,0.4832,0.4832,0.4832,0.4832,0.4832,0.4832,0.4832,0.4832,0.4832,0.4832,0.4832,0.4832,0.4832,0.4832,0.4832,0.4832,0.4832,0.4832,0.4832,0.4832,0.4832,0.4832,0.4832,0.4832,0.4832,0.4832,0.4832,0.4832,0.4832,0.4832,0.4832,0.4832,0.4832,0.4832,0.5382,0.5382,0.5382,0.5382,0.5382,0.5382,0.5382,0.5382,0.5382,0.5382,0.5382,0.5382,0.5382,0.5382,0.5382,0.5373,0.5359,0.5361,0.5326,0.5253,0.5206,0.5173,0.5104,0.5024,0.4963,0.4949,0.4902,0.4855,0.4832,0.4832,0.4832,0.4832,0.4832,0.4832,0.4832,0.4832,0.4832,0.4832,0.4832,0.4832,0.4832,0.4832,0.4832,0.4832,0.4832,0.4832,0.4832,0.4832,0.4832,0.4832,0.4832,0.4832,0.4832,0.4832,0.4832,0.4832,0.4832,0.4832,0.4832,0.4832,0.4832,0.4832,0.4832,0.4832,0.4832,0.4832,0.4832,0.4832,0.4832,0.4832,0.4832,0.4832,0.4832,0.4832,0.4832,0.4832,0.4832,0.4832,0.4832,0.4832,0.4832,0.4832,0.4832,0.4832,0.4832,0.4832,0.4832,0.4832,0.4832,0.4832,0.4832,0.4832,0.4832,0.4832,0.4832,0.4832,0.4832,0.4832,0.4832,0.4832,0.4832,0.4832,0.4832,0.4832,0.4832,0.4832,0.4832,0.4832,0.4832,0.4832,0.4832,0.4832,0.4832,0.4832,0.4832,0.5382,0.5382,0.5382,0.5382,0.5382,0.5382,0.5382,0.5382,0.5382,0.5382,0.5382,0.5382,0.5382,0.5382,0.5371,0.5347,0.5294,0.5288,0.5241,0.5155,0.5104,0.5053,0.4996,0.4939,0.4888,0.4873,0.4841,0.4832,0.4832,0.4832,0.4832,0.4832,0.4832,0.4832,0.4832,0.4832,0.4832,0.4832,0.4832,0.4832,0.4832,0.4832,0.4832,0.4832,0.4832,0.4832,0.4832,0.4832,0.4832,0.4832,0.4832,0.4832,0.4832,0.4832,0.4832,0.4832,0.4832,0.4832,0.4832,0.4832,0.4832,0.4832,0.4832,0.4832,0.4832,0.4832,0.4832,0.4832,0.4832,0.4832,0.4832,0.4832,0.4832,0.4832,0.4832,0.4832,0.4832,0.4832,0.4832,0.4832,0.4832,0.4832,0.4832,0.4832,0.4832,0.4832,0.4832,0.4832,0.4832,0.4832,0.4832,0.4832,0.4832,0.4832,0.4832,0.4832,0.4832,0.4832,0.4832,0.4832,0.4832,0.4832,0.4832,0.4832,0.4832,0.4832,0.4832,0.4832,0.4832,0.4832,0.4832,0.4832,0.4832,0.4832,0.4832,0.5382,0.5382,0.5382,0.5382,0.5382,0.5382,0.5382,0.5382,0.5382,0.5382,0.5382,0.5382,0.5359,0.5343,0.5326,0.5284,0.5204,0.5196,0.5147,0.5063,0.5006,0.4963,0.4914,0.4869,0.4851,0.4832,0.4832,0.4832,0.4832,0.4832,0.4832,0.4832,0.4832,0.4832,0.4832,0.4832,0.4832,0.4832,0.4832,0.4832,0.4832,0.4832,0.4832,0.4832,0.4832,0.4832,0.4832,0.4832,0.4832,0.4832,0.4832,0.4832,0.4832,0.4832,0.4832,0.4832,0.4832,0.4832,0.4832,0.4832,0.4832,0.4832,0.4834,0.4832,0.4832,0.4832,0.4832,0.4832,0.4734,0.4734,0.4734,0.4734,0.4734,0.4734,0.4734,0.4734,0.4734,0.4734,0.4734,0.4734,0.4832,0.4832,0.4832,0.4832,0.4832,0.4832,0.4832,0.4832,0.4832,0.4832,0.4832,0.4832,0.4832,0.4832,0.4832,0.4832,0.4832,0.4832,0.4832,0.4832,0.4832,0.4832,0.4832,0.4832,0.4832,0.4832,0.4832,0.4832,0.4832,0.4832,0.4832,0.4832,0.4832,0.4832,0.4832,0.5382,0.5382,0.5382,0.5377,0.5375,0.5357,0.5365,0.538,0.5375,0.5371,0.5373,0.5357,0.5308,0.5249,0.5239,0.5188,0.512,0.5106,0.5045,0.499,0.4949,0.4902,0.4869,0.4839,0.4832,0.4832,0.4832,0.4832,0.4832,0.4832,0.4832,0.4832,0.4832,0.4832,0.4832,0.4832,0.4832,0.4832,0.4832,0.4832,0.4832,0.4832,0.4832,0.4832,0.4832,0.4832,0.4832,0.4832,0.4832,0.4832,0.4832,0.4832,0.4832,0.4832,0.4832,0.4832,0.4832,0.4832,0.4834,0.4734,0.4734,0.4736,0.4734,0.4734,0.4734,0.4734,0.4634,0.4634,0.4634,0.4634,0.4734,0.4734,0.4634,0.4634,0.4634,0.4634,0.4634,0.4734,0.4734,0.4734,0.4734,0.4832,0.4832,0.4832,0.4832,0.4832,0.4832,0.4832,0.4832,0.4832,0.4832,0.4832,0.4832,0.4832,0.4832,0.4832,0.4832,0.4832,0.4832,0.4832,0.4832,0.4832,0.4832,0.4832,0.4832,0.4832,0.4832,0.4832,0.4832,0.4832,0.4832,0.4832,0.4832,0.4832,0.4832,0.5382,0.5382,0.5382,0.5345,0.5279,0.5214,0.5259,0.5365,0.5316,0.5284,0.5282,0.5214,0.5181,0.5147,0.5145,0.5088,0.5041,0.5,0.4949,0.4908,0.4888,0.4861,0.4843,0.4832,0.4832,0.4832,0.4832,0.4832,0.4832,0.4832,0.4832,0.4832,0.4832,0.4832,0.4832,0.4832,0.4832,0.4832,0.4832,0.4832,0.4832,0.4832,0.4832,0.4832,0.4832,0.4832,0.4832,0.4832,0.4832,0.4832,0.4832,0.4832,0.4832,0.4832,0.4832,0.4832,0.4832,0.4834,0.4736,0.4638,0.4539,0.4437,0.4336,0.4334,0.4435,0.4435,0.4435,0.4435,0.4332,0.4334,0.4334,0.4334,0.4334,0.4334,0.4334,0.4334,0.4334,0.4435,0.4435,0.4535,0.4634,0.4734,0.4734,0.4832,0.4832,0.4832,0.4832,0.4832,0.4832,0.4832,0.4832,0.4832,0.4832,0.4832,0.4832,0.4832,0.4832,0.4832,0.4832,0.4832,0.4832,0.4832,0.4832,0.4832,0.4832,0.4832,0.4832,0.4832,0.4832,0.4832,0.4832,0.4832,0.4832,0.4832,0.4832,0.5306,0.5275,0.5273,0.5241,0.5188,0.5132,0.5179,0.5253,0.5214,0.5192,0.5186,0.5139,0.5088,0.5057,0.5049,0.5006,0.4924,0.4916,0.4885,0.4861,0.4832,0.4836,0.4834,0.4832,0.4832,0.4832,0.4832,0.4832,0.4832,0.4832,0.4832,0.4832,0.4832,0.4832,0.4832,0.4832,0.4832,0.4832,0.4832,0.4832,0.4832,0.4832,0.4832,0.4832,0.4832,0.4832,0.4832,0.4832,0.4832,0.4832,0.4832,0.4832,0.4832,0.4832,0.4734,0.4636,0.4636,0.4535,0.4435,0.4334,0.4236,0.4237,0.4034,0.3934,0.4034,0.4034,0.4034,0.4135,0.4034,0.4034,0.4034,0.4034,0.4034,0.4034,0.4034,0.4034,0.4034,0.4034,0.4135,0.4236,0.4435,0.4535,0.4636,0.4734,0.4832,0.4832,0.4832,0.4832,0.4832,0.4832,0.4832,0.4832,0.4832,0.4832,0.4832,0.4832,0.4832,0.4832,0.4832,0.4832,0.4832,0.4832,0.4832,0.4832,0.4832,0.4832,0.4832,0.4832,0.4832,0.4832,0.4832,0.4832,0.4832,0.4832,0.4832,0.5188,0.5114,0.51,0.5102,0.5098,0.5081,0.5079,0.5088,0.5079,0.5092,0.5092,0.5086,0.5026,0.4969,0.4959,0.4922,0.4873,0.4855,0.4857,0.4832,0.4832,0.4832,0.4832,0.4832,0.4832,0.4832,0.4832,0.4832,0.4832,0.4832,0.4832,0.4832,0.4832,0.4832,0.4832,0.4832,0.4832,0.4832,0.4832,0.4832,0.4832,0.4832,0.4832,0.4832,0.4832,0.4832,0.4832,0.4832,0.4832,0.4832,0.4832,0.4832,0.4734,0.4634,0.4535,0.4437,0.4338,0.4336,0.4133,0.4033,0.3932,0.3932,0.3831,0.3531,0.343,0.3633,0.3732,0.353,0.3429,0.3429,0.3429,0.3429,0.3429,0.3429,0.3429,0.3429,0.3429,0.3531,0.3833,0.3934,0.4135,0.4336,0.4435,0.4435,0.4636,0.4734,0.4832,0.4832,0.4832,0.4832,0.4832,0.4832,0.4832,0.4832,0.4832,0.4832,0.4832,0.4832,0.4832,0.4832,0.4832,0.4832,0.4832,0.4832,0.4832,0.4832,0.4832,0.4832,0.4832,0.4832,0.4832,0.4832,0.4832,0.4832,0.4832,0.5128,0.5102,0.5035,0.5006,0.4994,0.4928,0.4902,0.49,0.49,0.4945,0.4981,0.4937,0.4898,0.4883,0.4879,0.4855,0.4843,0.4832,0.4832,0.4832,0.4832,0.4832,0.4832,0.4832,0.4832,0.4832,0.4832,0.4832,0.4832,0.4832,0.4832,0.4832,0.4832,0.4832,0.4832,0.4832,0.4832,0.4832,0.4832,0.4832,0.4832,0.4832,0.4832,0.4832,0.4832,0.4832,0.4832,0.4832,0.4832,0.4832,0.4832,0.4736,0.4537,0.4336,0.4133,0.4133,0.4034,0.3934,0.3833,0.353,0.343,0.3229,0.3128,0.2826,0.2826,0.3229,0.3229,0.3026,0.2825,0.2925,0.2825,0.2925,0.2925,0.2925,0.2825,0.2825,0.2825,0.3128,0.3432,0.3734,0.3934,0.4034,0.4135,0.4236,0.4437,0.4537,0.4734,0.4832,0.4832,0.4832,0.4832,0.4832,0.4832,0.4832,0.4832,0.4832,0.4832,0.4832,0.4832,0.4832,0.4832,0.4832,0.4832,0.4832,0.4832,0.4832,0.4832,0.4832,0.4832,0.4832,0.4832,0.4832,0.4832,0.4832,0.4832,0.5022,0.4983,0.4932,0.4912,0.4902,0.4855,0.4832,0.4832,0.4832,0.4863,0.4902,0.4859,0.4832,0.4832,0.4832,0.4832,0.4832,0.4832,0.4832,0.4832,0.4832,0.4832,0.4832,0.4832,0.4832,0.4832,0.4832,0.4832,0.4832,0.4832,0.4832,0.4832,0.4832,0.4832,0.4832,0.4832,0.4832,0.4832,0.4832,0.4832,0.4832,0.4832,0.4832,0.4832,0.4832,0.4832,0.4832,0.4734,0.4734,0.4636,0.4535,0.4332,0.4236,0.4135,0.3932,0.3731,0.3632,0.3531,0.3328,0.3127,0.2928,0.2827,0.2725,0.2623,0.2526,0.2828,0.2928,0.2725,0.2724,0.2724,0.2623,0.2623,0.2623,0.2623,0.2623,0.2522,0.2522,0.2724,0.2927,0.3128,0.343,0.3633,0.3835,0.4033,0.4236,0.4438,0.4638,0.4734,0.4734,0.4834,0.4832,0.4832,0.4832,0.4832,0.4832,0.4832,0.4832,0.4832,0.4832,0.4832,0.4832,0.4832,0.4832,0.4832,0.4832,0.4832,0.4832,0.4832,0.4832,0.4832,0.4832,0.4832,0.4832,0.4832,0.4832,0.491,0.4839,0.4836,0.4834,0.4834,0.4834,0.4832,0.4832,0.4832,0.4832,0.4841,0.4839,0.4832,0.4832,0.4832,0.4832,0.4832,0.4832,0.4832,0.4832,0.4832,0.4832,0.4832,0.4832,0.4832,0.4832,0.4832,0.4832,0.4832,0.4832,0.4832,0.4832,0.4832,0.4832,0.4832,0.4832,0.4832,0.4832,0.4832,0.4832,0.4832,0.4832,0.4832,0.4832,0.4832,0.4832,0.4734,0.4734,0.4638,0.4336,0.4135,0.3934,0.3831,0.3732,0.343,0.3228,0.3128,0.2927,0.2724,0.2624,0.2625,0.2625,0.2624,0.2423,0.2224,0.2223,0.2323,0.2424,0.2523,0.2321,0.222,0.2119,0.2119,0.2119,0.2119,0.2119,0.222,0.222,0.2423,0.2624,0.2927,0.323,0.3432,0.3732,0.3934,0.4237,0.4438,0.4537,0.4636,0.4734,0.4832,0.4832,0.4832,0.4832,0.4832,0.4832,0.4832,0.4832,0.4832,0.4832,0.4832,0.4832,0.4832,0.4832,0.4832,0.4832,0.4832,0.4832,0.4832,0.4832,0.4832,0.4832,0.4832,0.4832,0.4832,0.4853,0.4834,0.4832,0.4832,0.4832,0.4832,0.4832,0.4832,0.4832,0.4832,0.4832,0.4832,0.4832,0.4832,0.4832,0.4832,0.4832,0.4832,0.4832,0.4832,0.4832,0.4832,0.4832,0.4832,0.4832,0.4832,0.4832,0.4832,0.4832,0.4832,0.4832,0.4832,0.4832,0.4832,0.4832,0.4832,0.4832,0.4832,0.4832,0.4832,0.4832,0.4832,0.4832,0.4832,0.4832,0.4634,0.4535,0.4437,0.4336,0.4034,0.3734,0.3533,0.333,0.3228,0.2925,0.2826,0.2725,0.2624,0.2423,0.2222,0.2223,0.2324,0.2121,0.1414,0.1313,0.1313,0.1414,0.1818,0.1717,0.1414,0.1212,0.1212,0.1212,0.1212,0.1111,0.1414,0.1515,0.1717,0.1919,0.212,0.2422,0.2725,0.2927,0.3229,0.3533,0.3836,0.4138,0.4338,0.4537,0.4636,0.4734,0.4834,0.4834,0.4832,0.4832,0.4832,0.4832,0.4832,0.4832,0.4832,0.4832,0.4832,0.4832,0.4832,0.4832,0.4832,0.4832,0.4832,0.4832,0.4832,0.4832,0.4832,0.4832,0.4832,0.4832]},{"header":{"parameterUnit":"m.s-1","parameterCategory":1,"la1":31.0,"la2":29.5877,"lo1":-88.7671,"lo2":-86.6584,"dy":0.0162,"dx":0.0185,"nx":115,"ny":88,"refTime":"2023-09-08T18:00:00:Z","depth":0,"parameterNumber":3,"parameterNumberName":"V-component_of_WINDS"},"data":[0.0,0.0,0.0,0.0,0.0,0.0,0.0,0.0,0.0,0.0,0.0,0.0,0.0,0.0,0.0,0.0,0.0,0.0,0.0,0.0,0.0,0.0,0.0,0.0,0.0,0.0,0.0,0.0,0.0,0.0,0.0,0.0,0.0,0.0,0.0,0.0,0.0,0.0,0.0,0.0,0.0,0.0,0.0,0.0,0.0,0.0,0.0,0.0,0.0,0.0,0.0,0.0,0.0,0.0,0.0,0.0,0.0,0.0,0.0,0.0,0.0,0.0,0.0,0.0,0.0,0.0,0.0,0.0,0.0,0.0,0.0,0.0,0.0,0.0,0.0,0.0,0.0,0.0,0.0,0.0,0.0,0.0,0.0,0.0,0.0,0.0,0.0,0.0,0.0,0.0,0.0,0.0,0.0,0.0,0.0,0.0,0.0,0.0,0.0,0.0,0.0,0.0,0.0,0.0,0.0,0.0,0.0,0.0,0.0,0.0,0.0,0.0,0.0,0.0,0.0,0.0,0.0,0.0,0.0,0.0,0.0,0.0,0.0,0.0,0.0,0.0,0.0,0.0,0.0,0.0,0.0,0.0,0.0,0.0,0.0,0.0,0.0,0.0,0.0,0.0,0.0,0.0,0.0,0.0,0.0,0.0,0.0,0.0,0.0,0.0,0.0,0.0,0.0,0.0,0.0,0.0,0.0,0.0,0.0,0.0,0.0,0.0,0.0,0.0,0.0,0.0,0.0,0.0,0.0,0.0,0.0,0.0,0.0,0.0,0.0,0.0,0.0,0.0,0.0,0.0,0.0,0.0,0.0,0.0,0.0,0.0,0.0,0.0,0.0,0.0,0.0,0.0,0.0,0.0,0.0,0.0,0.0,0.0,0.0,0.0,0.0,0.0,0.0,0.0,0.0,0.0,0.0,0.0,0.0,0.0,0.0,0.0,0.0,0.0,0.0,0.0,0.0,0.0,0.0,0.0,0.0,0.0,0.0,0.0,0.0,0.0,0.0,0.0,0.0,0.0,0.0,0.0,0.0,0.0,0.0,0.0,0.0,0.0,0.0,0.0,0.0,0.0,0.0,0.0,0.0,0.0,0.0,0.0,0.0,0.0,0.0,0.0,0.0,0.0,0.0,0.0,0.0,0.0,0.0,0.0,0.0,0.0,0.0,0.0,0.0,0.0,0.0,0.0,0.0,0.0,0.0,0.0,0.0,0.0,0.0,0.0,0.0,0.0,0.0,0.0,0.0,0.0,0.0,0.0,0.0,0.0,0.0,0.0,0.0,0.0,0.0,0.0,0.0,0.0,0.0,0.0,0.0,0.0,0.0,0.0,0.0,0.0,0.0,0.0,0.0,0.0,0.0,0.0,0.0,0.0,0.0,0.0,0.0,0.0,0.0,0.0,0.0,0.0,0.0,0.0,0.0,0.0,0.0,0.0,0.0,0.0,0.0,0.0,0.0,0.0,0.0,0.0,0.0,0.0,0.0,0.0,0.0,0.0,0.0,0.0,0.0,0.0,0.0,0.0,0.0,0.0,0.0,0.0,0.0,0.0,0.0,0.0,0.0,0.0,0.0,0.0,0.0,0.0,0.0,0.0,0.0,0.0,0.0,0.0,0.0,0.0,0.0,0.0,0.0,0.0,0.0,0.0,0.0,0.0,0.0,0.0,0.0,0.0,0.0,0.0,0.0,0.0,0.0,0.0,0.0,0.0,0.0,0.0,0.0,0.0,0.0,0.0,0.0,0.0,0.0,0.0,0.0,0.0,0.0,0.0,0.0,0.0,0.0,0.0,0.0,0.0,0.0,0.0,0.0,0.0,0.0,0.0,0.0,0.0,0.0,0.0,0.0,0.0,0.0,0.0,0.0,0.0,0.0,0.0,0.0,0.0,0.0,0.0,0.0,0.0,0.0,0.0,0.0,0.0,0.0,0.0,0.0,0.0,0.0,0.0,0.0,0.0,0.0,0.0,0.0,0.0,0.0,0.0,0.0,0.0,0.0,0.0,0.0,0.0,0.0,0.0,0.0,0.0,0.0,0.0,0.0,0.0,0.0,0.0,0.0,0.0,0.0,0.0,0.0,0.0,0.0,0.0,0.0,0.0,0.0,0.0,0.0,0.0,0.0,0.0,0.0,0.0,0.0,0.0,0.0,0.0,0.0,0.0,0.0,0.0,0.0,0.0,0.0,0.0,0.0,0.0,0.0,0.0,0.0,0.0,0.0,0.0,0.0,0.0,0.0,0.0,0.0,0.0,0.0,0.0,0.0,0.0,0.0,0.0,0.0,0.0,0.0,0.0,0.0,0.0,0.0,0.0,0.0,0.0,0.0,0.0,0.0,0.0,0.0,0.0,0.0,0.0,0.0,0.0,0.0,0.0,0.0,0.0,0.0,0.0,0.0,0.0,0.0,0.0,0.0,0.0,0.0,0.0,0.0,0.0,0.0,0.0,0.0,0.0,0.0,0.0,0.0,0.0,0.0,0.0,0.0,0.0,0.0,0.0,0.0,0.0,0.0,0.0,0.0,0.0,0.0,0.0,0.0,0.0,0.0,0.0,0.0,0.0,0.0,0.0,0.0,0.0,0.0,0.0,0.0,0.0,0.0,0.0,0.0,0.0,0.0,0.0,0.0,0.0,0.0,0.0,0.0,0.0,0.0,0.0,0.0,0.0,0.0,0.0,0.0,0.0,0.0,0.0,0.0,0.0,0.0,0.0,0.0,0.0,0.0,0.0,0.0,0.0,0.0,0.0,0.0,0.0,0.0,0.0,0.0,0.0,0.0,0.0,0.0,0.0,0.0,0.0,0.0,0.0,0.0,0.0,0.0,0.0,0.0,0.0,0.0,0.0,0.0,0.0,0.0,0.0,0.0,0.0,0.0,0.0,0.0,0.0,0.0,0.0,0.0,0.0,0.0,0.0,0.0,0.0,0.0,0.0,0.0,0.0,0.0,0.0,0.0,0.0,0.0,0.0,0.0,0.0,0.0,0.0,0.0,0.0,0.0,0.0,0.0,0.0,0.0,0.0,0.0,0.0,0.0,0.0,0.0,0.0,0.0,0.0,0.0,0.0,0.0,0.0,0.0,0.0,0.0,0.0,0.0,0.0,0.0,0.0,0.0,0.0,0.0,0.0,0.0,0.0,0.0,0.0,0.0,0.0,0.0,0.0,0.0,0.0,0.0,0.0,0.0,0.0,0.0,0.0,0.0,0.0,0.0,0.0,0.0,0.0,0.0,0.0,0.0,0.0,0.0,0.0,0.0,0.0,0.0,0.0,0.0,0.0,0.0,0.0,0.0,0.0,0.0,0.0,0.0,0.0,0.0,0.0,0.0,0.0,0.0,0.0,0.0,0.0,0.0,0.0,0.0,0.0,0.0,0.0,0.0,0.0,0.0,0.0,0.0,0.0,0.0,0.0,0.0,0.0,0.0,0.0,0.0,0.0,0.0,0.0,0.0,0.0,0.0,0.0,0.0,0.0,0.0,0.0,0.0,0.0,0.0,0.0,0.0,0.0,0.0,0.0,0.0,0.0,0.0,0.0,0.0,0.0,0.0,0.0,0.0,0.0,0.0,0.0,0.0,0.0,0.0,0.0,0.0,0.0,0.0,0.0,0.0,0.0,0.0,0.0,0.0,0.0,0.0,0.0,0.0,0.0,0.0,0.0,0.0,0.0,0.0,0.0,0.0,0.0,0.0,0.0,0.0,0.0,0.0,0.0,0.0,0.0,0.0,0.0,0.0,0.0,0.0,0.0,0.0,0.0,0.0,0.0,0.0,0.0,0.0,0.0,0.0,0.0,0.0,0.0,0.0,0.0,0.0,0.0,0.0,0.0,0.0,0.0,0.0,0.0,0.0,0.0,0.0,0.0,0.0,0.0,0.0,0.0,0.0,0.0,0.0,0.0,0.0,0.0,0.0,0.0,0.0,0.0,0.0,0.0,0.0,0.0,0.0,0.0,0.0,0.0,0.0,0.0,0.0,0.0,0.0,0.0,0.0,0.0,0.0,0.0,0.0,0.0,0.0,0.0,0.0,0.0,0.0,0.0,0.0,0.0,0.0,0.0,0.0,0.0,0.0,0.0,0.0,0.0,0.0,0.0,0.0,0.0,0.0,0.0,0.0,0.0,0.0,0.0,0.0,0.0,0.0,0.0,0.0,0.0,0.0,0.0,0.0,0.0,0.0,0.0,0.0,0.0,0.0,0.0,0.0,0.0,0.0,0.0,0.0,0.0,0.0,0.0,0.0,0.0,0.0,0.0,0.0,0.0,0.0,0.0,0.0,0.0,-1.9959,0.0,0.0,0.0,0.0,0.0,0.0,0.0,0.0,0.0,0.0,0.0,0.0,0.0,0.0,0.0,0.0,0.0,0.0,0.0,0.0,0.0,0.0,0.0,0.0,0.0,0.0,0.0,0.0,0.0,0.0,0.0,0.0,0.0,0.0,0.0,0.0,0.0,0.0,0.0,0.0,0.0,0.0,0.0,0.0,0.0,0.0,0.0,0.0,0.0,0.0,0.0,0.0,0.0,0.0,0.0,0.0,0.0,0.0,0.0,0.0,0.0,0.0,0.0,0.0,0.0,0.0,0.0,0.0,0.0,0.0,0.0,0.0,0.0,0.0,0.0,0.0,0.0,0.0,0.0,0.0,0.0,0.0,0.0,0.0,0.0,0.0,0.0,0.0,0.0,0.0,0.0,0.0,0.0,0.0,0.0,0.0,0.0,0.0,0.0,0.0,0.0,0.0,0.0,0.0,0.0,0.0,0.0,0.0,0.0,0.0,-2.1387,-2.1575,-2.1339,-2.1252,-2.1288,0.0,0.0,0.0,0.0,0.0,0.0,0.0,0.0,0.0,0.0,0.0,0.0,0.0,0.0,0.0,0.0,0.0,0.0,0.0,0.0,0.0,0.0,0.0,0.0,0.0,0.0,0.0,0.0,0.0,0.0,0.0,0.0,0.0,0.0,0.0,0.0,0.0,0.0,0.0,0.0,0.0,0.0,0.0,0.0,0.0,0.0,0.0,0.0,0.0,0.0,0.0,0.0,0.0,0.0,0.0,0.0,0.0,0.0,0.0,0.0,0.0,0.0,0.0,0.0,0.0,0.0,0.0,0.0,0.0,0.0,0.0,0.0,0.0,0.0,0.0,0.0,0.0,0.0,0.0,0.0,0.0,0.0,0.0,0.0,0.0,0.0,0.0,0.0,0.0,0.0,0.0,0.0,0.0,0.0,0.0,0.0,0.0,0.0,0.0,0.0,0.0,0.0,0.0,0.0,0.0,0.0,0.0,0.0,0.0,0.0,0.0,0.0,-2.236,-2.2449,-2.247,0.0,0.0,0.0,0.0,0.0,0.0,0.0,0.0,0.0,0.0,0.0,0.0,0.0,0.0,0.0,0.0,0.0,0.0,0.0,0.0,0.0,0.0,0.0,0.0,0.0,0.0,0.0,0.0,0.0,0.0,0.0,0.0,0.0,0.0,0.0,0.0,0.0,0.0,0.0,0.0,0.0,0.0,0.0,0.0,0.0,0.0,0.0,0.0,0.0,0.0,0.0,0.0,0.0,0.0,0.0,0.0,0.0,0.0,0.0,0.0,0.0,0.0,0.0,0.0,0.0,0.0,0.0,0.0,0.0,0.0,0.0,0.0,0.0,0.0,0.0,0.0,0.0,0.0,0.0,0.0,0.0,0.0,0.0,0.0,0.0,0.0,0.0,0.0,0.0,0.0,0.0,0.0,0.0,0.0,0.0,0.0,0.0,0.0,0.0,0.0,0.0,0.0,0.0,0.0,0.0,0.0,0.0,0.0,0.0,0.0,-2.2405,-2.2487,-2.2504,0.0,-2.2659,0.0,0.0,0.0,0.0,0.0,0.0,0.0,0.0,0.0,0.0,0.0,0.0,0.0,0.0,0.0,0.0,0.0,0.0,0.0,0.0,0.0,0.0,0.0,0.0,0.0,0.0,0.0,0.0,0.0,0.0,0.0,0.0,0.0,0.0,0.0,0.0,0.0,0.0,0.0,0.0,0.0,0.0,0.0,0.0,0.0,0.0,0.0,0.0,0.0,0.0,0.0,0.0,0.0,0.0,0.0,0.0,0.0,0.0,0.0,0.0,0.0,0.0,0.0,0.0,0.0,0.0,0.0,0.0,0.0,0.0,0.0,0.0,0.0,0.0,0.0,0.0,0.0,0.0,0.0,0.0,0.0,0.0,0.0,0.0,0.0,0.0,0.0,0.0,0.0,0.0,0.0,0.0,0.0,0.0,0.0,0.0,0.0,0.0,0.0,0.0,0.0,0.0,0.0,0.0,0.0,0.0,0.0,0.0,0.0,0.0,-2.2659,-2.2685,-2.2729,-2.279,0.0,0.0,0.0,0.0,0.0,0.0,0.0,0.0,0.0,0.0,0.0,0.0,0.0,0.0,0.0,0.0,0.0,0.0,0.0,0.0,0.0,0.0,0.0,0.0,0.0,0.0,0.0,0.0,0.0,0.0,0.0,0.0,0.0,0.0,0.0,0.0,0.0,0.0,0.0,0.0,0.0,0.0,0.0,0.0,0.0,0.0,0.0,0.0,0.0,0.0,0.0,0.0,0.0,0.0,0.0,0.0,0.0,0.0,0.0,0.0,0.0,0.0,0.0,0.0,0.0,0.0,0.0,0.0,0.0,0.0,0.0,0.0,0.0,0.0,0.0,0.0,0.0,0.0,0.0,0.0,0.0,0.0,0.0,0.0,0.0,0.0,0.0,0.0,0.0,0.0,0.0,0.0,0.0,0.0,0.0,0.0,0.0,0.0,0.0,0.0,0.0,0.0,0.0,0.0,0.0,0.0,0.0,0.0,0.0,0.0,-2.285,-2.2876,-2.2893,-2.2944,-2.302,-2.3052,0.0,0.0,0.0,0.0,0.0,0.0,0.0,0.0,0.0,0.0,0.0,0.0,0.0,0.0,0.0,0.0,0.0,0.0,0.0,0.0,0.0,0.0,0.0,0.0,0.0,0.0,0.0,0.0,0.0,0.0,0.0,0.0,0.0,0.0,0.0,0.0,0.0,0.0,0.0,0.0,0.0,0.0,0.0,0.0,0.0,0.0,0.0,0.0,0.0,0.0,0.0,0.0,0.0,0.0,0.0,0.0,0.0,0.0,0.0,0.0,0.0,0.0,0.0,0.0,0.0,0.0,0.0,0.0,0.0,0.0,0.0,0.0,0.0,0.0,0.0,0.0,0.0,0.0,0.0,0.0,0.0,0.0,0.0,0.0,0.0,0.0,0.0,0.0,0.0,0.0,0.0,0.0,0.0,0.0,0.0,0.0,0.0,0.0,0.0,0.0,0.0,0.0,0.0,0.0,0.0,0.0,0.0,0.0,-2.2995,-2.3105,-2.3112,-2.313,-2.3186,-2.3193,0.0,0.0,0.0,0.0,0.0,0.0,0.0,0.0,0.0,0.0,0.0,0.0,0.0,0.0,0.0,0.0,0.0,0.0,0.0,0.0,0.0,0.0,0.0,0.0,0.0,0.0,0.0,0.0,0.0,0.0,0.0,0.0,0.0,0.0,0.0,0.0,0.0,0.0,0.0,0.0,0.0,0.0,0.0,0.0,0.0,0.0,0.0,0.0,0.0,0.0,0.0,0.0,0.0,0.0,0.0,0.0,0.0,0.0,0.0,0.0,0.0,0.0,0.0,0.0,0.0,0.0,0.0,0.0,0.0,0.0,0.0,0.0,0.0,0.0,0.0,0.0,0.0,0.0,0.0,0.0,0.0,0.0,0.0,0.0,0.0,0.0,0.0,0.0,0.0,0.0,0.0,0.0,0.0,0.0,0.0,0.0,0.0,0.0,0.0,0.0,0.0,0.0,0.0,0.0,0.0,0.0,0.0,0.0,0.0,-2.4014,-2.4584,-2.4899,-2.4882,-2.442,-2.4201,0.0,0.0,0.0,0.0,0.0,0.0,0.0,0.0,0.0,0.0,0.0,0.0,0.0,0.0,0.0,0.0,0.0,0.0,0.0,0.0,0.0,0.0,0.0,0.0,0.0,0.0,0.0,0.0,0.0,0.0,0.0,0.0,0.0,0.0,0.0,0.0,0.0,0.0,0.0,0.0,0.0,0.0,0.0,0.0,0.0,0.0,0.0,0.0,0.0,0.0,0.0,0.0,0.0,0.0,0.0,0.0,0.0,0.0,0.0,0.0,0.0,0.0,0.0,0.0,0.0,0.0,0.0,0.0,0.0,0.0,0.0,0.0,0.0,0.0,0.0,0.0,0.0,0.0,0.0,0.0,0.0,0.0,0.0,0.0,0.0,0.0,0.0,0.0,0.0,0.0,0.0,0.0,0.0,0.0,0.0,0.0,0.0,0.0,0.0,0.0,0.0,0.0,0.0,0.0,0.0,0.0,0.0,0.0,0.0,-2.504,0.0,-2.5953,-2.5936,-2.5434,-2.5064,0.0,0.0,0.0,0.0,0.0,0.0,0.0,0.0,0.0,0.0,0.0,0.0,0.0,0.0,0.0,0.0,0.0,0.0,0.0,0.0,0.0,0.0,0.0,0.0,0.0,0.0,0.0,0.0,0.0,0.0,0.0,0.0,0.0,0.0,0.0,0.0,0.0,0.0,0.0,0.0,0.0,0.0,0.0,0.0,0.0,0.0,0.0,0.0,0.0,0.0,0.0,0.0,0.0,0.0,0.0,0.0,0.0,0.0,0.0,0.0,0.0,0.0,0.0,0.0,0.0,0.0,0.0,0.0,0.0,0.0,0.0,0.0,0.0,0.0,0.0,0.0,0.0,0.0,0.0,0.0,0.0,0.0,0.0,0.0,0.0,0.0,0.0,0.0,0.0,0.0,0.0,0.0,0.0,0.0,0.0,0.0,0.0,0.0,0.0,0.0,0.0,0.0,0.0,0.0,0.0,0.0,0.0,0.0,-2.5272,-2.6057,-2.6153,-2.6219,-2.6129,-2.6129,-2.5751,0.0,0.0,0.0,0.0,0.0,0.0,0.0,0.0,0.0,0.0,0.0,0.0,0.0,0.0,0.0,0.0,0.0,0.0,0.0,0.0,0.0,0.0,0.0,0.0,0.0,0.0,0.0,0.0,0.0,0.0,0.0,0.0,0.0,0.0,0.0,0.0,0.0,0.0,0.0,0.0,0.0,0.0,0.0,0.0,0.0,0.0,0.0,0.0,0.0,0.0,0.0,0.0,0.0,0.0,0.0,0.0,0.0,0.0,0.0,0.0,0.0,0.0,0.0,0.0,0.0,0.0,0.0,0.0,0.0,0.0,0.0,0.0,0.0,0.0,0.0,0.0,0.0,0.0,0.0,0.0,0.0,0.0,0.0,0.0,0.0,0.0,0.0,0.0,0.0,0.0,0.0,0.0,0.0,0.0,0.0,0.0,0.0,0.0,0.0,0.0,0.0,0.0,0.0,0.0,0.0,0.0,0.0,0.0,0.0,-2.7079,-2.7647,-2.7961,-2.7943,-2.7416,-2.7017,0.0,0.0,0.0,0.0,0.0,0.0,0.0,0.0,0.0,0.0,0.0,0.0,0.0,0.0,0.0,0.0,0.0,0.0,0.0,0.0,0.0,0.0,0.0,0.0,0.0,0.0,0.0,0.0,0.0,0.0,0.0,0.0,0.0,0.0,0.0,0.0,0.0,0.0,0.0,0.0,0.0,0.0,0.0,0.0,0.0,0.0,0.0,0.0,0.0,0.0,0.0,0.0,0.0,0.0,0.0,0.0,0.0,0.0,0.0,0.0,0.0,0.0,0.0,0.0,0.0,0.0,0.0,0.0,0.0,0.0,0.0,0.0,0.0,0.0,0.0,0.0,0.0,0.0,0.0,0.0,0.0,0.0,0.0,0.0,0.0,0.0,0.0,0.0,0.0,0.0,0.0,0.0,0.0,0.0,0.0,0.0,0.0,0.0,0.0,0.0,0.0,0.0,0.0,0.0,0.0,0.0,0.0,0.0,0.0,-2.898,-2.943,-2.9685,-2.9685,-2.8919,-2.8336,-2.8026,0.0,0.0,0.0,0.0,0.0,0.0,0.0,0.0,0.0,0.0,0.0,0.0,0.0,0.0,0.0,0.0,0.0,0.0,0.0,0.0,0.0,0.0,0.0,0.0,0.0,0.0,0.0,0.0,0.0,0.0,0.0,0.0,0.0,0.0,0.0,0.0,0.0,0.0,0.0,0.0,0.0,0.0,0.0,0.0,0.0,0.0,0.0,0.0,0.0,0.0,0.0,0.0,0.0,0.0,0.0,0.0,0.0,0.0,0.0,0.0,0.0,0.0,0.0,0.0,0.0,0.0,0.0,0.0,0.0,0.0,0.0,0.0,0.0,0.0,0.0,0.0,0.0,0.0,0.0,0.0,0.0,0.0,0.0,0.0,0.0,0.0,0.0,0.0,0.0,0.0,0.0,0.0,0.0,0.0,0.0,0.0,0.0,0.0,0.0,0.0,0.0,0.0,0.0,0.0,0.0,0.0,0.0,0.0,-3.1458,-3.1393,-3.1323,-3.1195,-3.0458,-2.9691,0.0,0.0,0.0,0.0,0.0,0.0,0.0,0.0,0.0,0.0,0.0,0.0,0.0,0.0,0.0,0.0,0.0,0.0,0.0,0.0,0.0,0.0,0.0,0.0,0.0,0.0,0.0,0.0,0.0,0.0,0.0,0.0,0.0,0.0,0.0,0.0,0.0,0.0,0.0,0.0,0.0,0.0,0.0,0.0,0.0,0.0,0.0,0.0,0.0,0.0,0.0,0.0,0.0,0.0,0.0,0.0,0.0,0.0,0.0,0.0,0.0,0.0,0.0,0.0,0.0,0.0,0.0,0.0,0.0,0.0,0.0,0.0,0.0,0.0,0.0,0.0,0.0,0.0,0.0,0.0,0.0,0.0,0.0,0.0,0.0,0.0,0.0,0.0,0.0,0.0,0.0,0.0,0.0,0.0,0.0,0.0,0.0,0.0,0.0,0.0,0.0,0.0,0.0,0.0,0.0,0.0,0.0,0.0,0.0,-3.2302,-3.2878,-3.2596,-3.1396,-3.1182,-3.0729,0.0,0.0,0.0,0.0,0.0,0.0,0.0,0.0,0.0,0.0,0.0,0.0,0.0,0.0,0.0,0.0,0.0,0.0,0.0,0.0,0.0,0.0,0.0,0.0,0.0,0.0,0.0,0.0,0.0,0.0,0.0,0.0,0.0,0.0,0.0,0.0,0.0,0.0,0.0,0.0,0.0,0.0,0.0,0.0,0.0,0.0,0.0,0.0,0.0,0.0,0.0,0.0,0.0,0.0,0.0,0.0,0.0,0.0,0.0,0.0,0.0,0.0,0.0,0.0,0.0,0.0,0.0,0.0,0.0,0.0,0.0,0.0,0.0,0.0,0.0,0.0,0.0,0.0,0.0,0.0,0.0,0.0,0.0,0.0,0.0,0.0,0.0,0.0,0.0,0.0,0.0,0.0,0.0,0.0,0.0,0.0,0.0,0.0,0.0,0.0,0.0,0.0,0.0,0.0,0.0,0.0,0.0,0.0,-3.2812,-3.3188,-3.3681,-3.3478,-3.2514,-3.2189,-3.1679,0.0,0.0,0.0,0.0,0.0,0.0,0.0,0.0,0.0,0.0,0.0,0.0,0.0,0.0,0.0,0.0,0.0,0.0,0.0,0.0,0.0,0.0,0.0,0.0,0.0,0.0,0.0,0.0,0.0,0.0,0.0,0.0,0.0,0.0,0.0,0.0,0.0,0.0,0.0,0.0,0.0,0.0,0.0,0.0,0.0,0.0,0.0,0.0,0.0,0.0,0.0,0.0,0.0,0.0,0.0,0.0,0.0,0.0,0.0,0.0,0.0,0.0,0.0,0.0,0.0,0.0,0.0,0.0,0.0,0.0,0.0,0.0,0.0,0.0,0.0,0.0,0.0,0.0,0.0,0.0,0.0,0.0,0.0,0.0,0.0,0.0,0.0,0.0,0.0,0.0,0.0,0.0,0.0,0.0,0.0,0.0,0.0,0.0,0.0,0.0,0.0,0.0,0.0,0.0,0.0,0.0,0.0,0.0,-3.3283,-3.4109,-3.4127,-3.4127,-3.4109,-3.3352,-3.2558,0.0,0.0,0.0,0.0,0.0,0.0,0.0,0.0,0.0,0.0,0.0,0.0,0.0,0.0,0.0,0.0,0.0,0.0,0.0,0.0,0.0,0.0,0.0,0.0,0.0,0.0,0.0,0.0,0.0,0.0,0.0,0.0,0.0,0.0,0.0,0.0,0.0,0.0,0.0,0.0,0.0,0.0,0.0,0.0,0.0,0.0,0.0,0.0,0.0,0.0,0.0,0.0,0.0,0.0,0.0,0.0,0.0,0.0,0.0,0.0,0.0,0.0,0.0,0.0,0.0,0.0,0.0,0.0,0.0,0.0,0.0,0.0,0.0,0.0,0.0,0.0,0.0,0.0,0.0,0.0,0.0,0.0,0.0,0.0,0.0,0.0,0.0,0.0,0.0,0.0,0.0,0.0,0.0,0.0,0.0,0.0,0.0,0.0,0.0,0.0,0.0,0.0,0.0,0.0,0.0,0.0,0.0,0.0,-3.4164,-3.5003,-3.5092,-3.5118,-3.5118,-3.4259,-3.3445,0.0,0.0,0.0,0.0,0.0,0.0,0.0,0.0,0.0,0.0,0.0,0.0,0.0,0.0,0.0,0.0,0.0,0.0,0.0,0.0,0.0,0.0,0.0,0.0,0.0,0.0,0.0,0.0,0.0,0.0,0.0,0.0,0.0,0.0,0.0,0.0,0.0,0.0,0.0,0.0,0.0,0.0,0.0,0.0,0.0,0.0,0.0,0.0,-2.4892,0.0,0.0,0.0,0.0,0.0,0.0,0.0,0.0,0.0,0.0,0.0,0.0,0.0,0.0,0.0,0.0,0.0,0.0,0.0,0.0,0.0,0.0,0.0,0.0,0.0,0.0,0.0,0.0,0.0,0.0,0.0,0.0,0.0,0.0,0.0,0.0,0.0,0.0,0.0,0.0,0.0,0.0,0.0,0.0,0.0,0.0,0.0,0.0,0.0,0.0,0.0,0.0,0.0,0.0,0.0,0.0,0.0,0.0,0.0,-3.4907,-3.5377,-3.5818,-3.5818,-3.5447,-3.4983,-3.4204,0.0,0.0,0.0,0.0,0.0,0.0,0.0,0.0,0.0,0.0,0.0,0.0,0.0,0.0,0.0,0.0,0.0,0.0,0.0,0.0,0.0,0.0,0.0,0.0,0.0,0.0,0.0,0.0,0.0,0.0,0.0,0.0,0.0,0.0,0.0,0.0,0.0,0.0,0.0,0.0,0.0,0.0,0.0,0.0,0.0,0.0,0.0,0.0,0.0,0.0,0.0,0.0,0.0,0.0,0.0,0.0,0.0,0.0,0.0,0.0,0.0,0.0,0.0,0.0,0.0,0.0,0.0,0.0,0.0,0.0,0.0,0.0,0.0,0.0,0.0,0.0,0.0,0.0,0.0,0.0,0.0,0.0,0.0,0.0,0.0,0.0,0.0,0.0,0.0,0.0,0.0,0.0,0.0,0.0,0.0,0.0,0.0,0.0,0.0,0.0,0.0,0.0,0.0,0.0,0.0,0.0,0.0,-3.4518,-3.5502,-3.5702,-3.6463,-3.6538,-3.5887,-3.5739,-3.4959,-3.3436,0.0,0.0,0.0,0.0,0.0,0.0,0.0,0.0,0.0,0.0,0.0,0.0,0.0,0.0,0.0,0.0,0.0,0.0,0.0,0.0,0.0,0.0,0.0,0.0,0.0,0.0,0.0,0.0,0.0,0.0,0.0,0.0,0.0,0.0,0.0,0.0,0.0,0.0,-2.3547,-2.5098,0.0,0.0,0.0,0.0,0.0,0.0,0.0,0.0,-2.7091,0.0,0.0,0.0,0.0,0.0,0.0,0.0,0.0,0.0,0.0,0.0,0.0,0.0,0.0,0.0,0.0,0.0,0.0,0.0,0.0,0.0,0.0,0.0,0.0,0.0,0.0,0.0,0.0,0.0,0.0,0.0,0.0,0.0,0.0,0.0,0.0,0.0,0.0,0.0,0.0,0.0,0.0,0.0,0.0,0.0,0.0,0.0,0.0,0.0,0.0,0.0,0.0,0.0,0.0,0.0,0.0,-3.2798,-3.4568,-3.5813,-3.6482,-3.7281,-3.7634,-3.7485,-3.6835,-3.6055,-3.507,0.0,0.0,0.0,0.0,0.0,0.0,0.0,0.0,0.0,0.0,0.0,0.0,0.0,0.0,0.0,0.0,0.0,0.0,0.0,0.0,0.0,0.0,0.0,0.0,0.0,0.0,0.0,0.0,0.0,0.0,0.0,0.0,0.0,0.0,0.0,0.0,0.0,0.0,0.0,-2.6356,-2.7335,0.0,0.0,0.0,0.0,0.0,0.0,0.0,0.0,-2.8205,0.0,0.0,0.0,0.0,0.0,0.0,0.0,0.0,0.0,0.0,0.0,0.0,0.0,0.0,0.0,0.0,0.0,0.0,0.0,0.0,0.0,0.0,0.0,0.0,0.0,0.0,0.0,0.0,0.0,0.0,0.0,0.0,0.0,0.0,0.0,0.0,0.0,0.0,0.0,0.0,0.0,0.0,0.0,0.0,0.0,0.0,0.0,0.0,0.0,0.0,0.0,0.0,0.0,0.0,0.0,-3.4079,-3.5447,-3.65,-3.7299,-3.8116,-3.8348,-3.7947,-3.7166,-3.6391,0.0,0.0,0.0,0.0,0.0,0.0,0.0,0.0,0.0,0.0,0.0,0.0,0.0,0.0,0.0,0.0,0.0,0.0,0.0,0.0,0.0,0.0,0.0,0.0,0.0,0.0,0.0,0.0,0.0,0.0,0.0,0.0,0.0,0.0,0.0,0.0,0.0,0.0,0.0,0.0,-2.7816,-2.8691,-2.8298,0.0,0.0,0.0,0.0,0.0,0.0,-3.0225,-2.9761,0.0,0.0,0.0,0.0,0.0,0.0,0.0,0.0,0.0,0.0,0.0,0.0,0.0,0.0,0.0,0.0,0.0,0.0,0.0,0.0,0.0,0.0,0.0,0.0,0.0,0.0,0.0,0.0,0.0,0.0,0.0,0.0,0.0,0.0,0.0,0.0,0.0,0.0,0.0,0.0,0.0,0.0,0.0,0.0,0.0,0.0,0.0,0.0,0.0,0.0,0.0,0.0,0.0,0.0,0.0,-3.5225,-3.6226,-3.7121,-3.7902,-3.872,-3.8858,-3.8305,-3.7336,-3.6541,0.0,0.0,0.0,0.0,0.0,0.0,0.0,0.0,0.0,0.0,0.0,0.0,0.0,0.0,0.0,0.0,0.0,0.0,0.0,0.0,0.0,0.0,0.0,0.0,0.0,0.0,0.0,0.0,0.0,0.0,0.0,0.0,0.0,0.0,0.0,0.0,0.0,0.0,0.0,0.0,0.0,-2.9804,-3.0422,-3.0654,0.0,0.0,0.0,0.0,-3.0973,-3.1137,0.0,0.0,0.0,0.0,0.0,0.0,0.0,0.0,0.0,0.0,0.0,0.0,0.0,0.0,0.0,0.0,0.0,0.0,0.0,0.0,0.0,0.0,0.0,0.0,0.0,0.0,0.0,0.0,0.0,0.0,0.0,0.0,0.0,0.0,0.0,0.0,0.0,0.0,0.0,0.0,0.0,0.0,0.0,0.0,0.0,0.0,0.0,0.0,0.0,0.0,0.0,0.0,0.0,0.0,0.0,0.0,-3.5225,-3.6226,-3.7121,-3.7973,-3.8755,-3.92,-3.9223,-3.7704,-3.6827,0.0,0.0,0.0,0.0,0.0,0.0,0.0,0.0,0.0,0.0,0.0,0.0,0.0,0.0,0.0,0.0,0.0,0.0,0.0,0.0,0.0,0.0,0.0,0.0,0.0,0.0,0.0,0.0,0.0,0.0,0.0,0.0,0.0,0.0,0.0,0.0,0.0,0.0,0.0,0.0,0.0,-3.0345,-3.0463,-3.11,-3.1546,0.0,0.0,-3.1907,-3.2432,-3.1945,0.0,0.0,0.0,0.0,0.0,0.0,0.0,0.0,0.0,0.0,0.0,0.0,0.0,0.0,0.0,0.0,0.0,0.0,0.0,0.0,0.0,0.0,0.0,0.0,0.0,0.0,0.0,0.0,0.0,0.0,0.0,0.0,0.0,0.0,0.0,0.0,0.0,0.0,0.0,0.0,0.0,0.0,0.0,0.0,0.0,0.0,0.0,0.0,0.0,0.0,0.0,0.0,0.0,0.0,0.0,-3.3044,-3.5872,-3.6493,-3.7378,-3.8652,-3.9088,-3.9354,-3.9444,-3.8265,-3.743,0.0,0.0,0.0,0.0,0.0,0.0,0.0,0.0,0.0,0.0,0.0,0.0,0.0,0.0,0.0,0.0,0.0,0.0,0.0,0.0,0.0,0.0,0.0,0.0,0.0,0.0,0.0,0.0,0.0,0.0,0.0,0.0,0.0,0.0,0.0,0.0,0.0,0.0,0.0,0.0,0.0,0.0,-3.1724,-3.2152,0.0,0.0,0.0,-3.2491,-3.2816,0.0,0.0,0.0,0.0,0.0,0.0,0.0,0.0,0.0,0.0,0.0,0.0,0.0,0.0,0.0,0.0,0.0,0.0,0.0,0.0,0.0,0.0,0.0,0.0,0.0,0.0,0.0,0.0,0.0,0.0,0.0,0.0,0.0,0.0,0.0,0.0,0.0,0.0,0.0,0.0,0.0,0.0,0.0,0.0,0.0,0.0,0.0,0.0,0.0,0.0,0.0,0.0,0.0,0.0,0.0,0.0,0.0,-3.6461,-3.6712,-3.7616,-3.9227,-3.9373,-3.9469,-3.9502,-3.8677,0.0,0.0,0.0,0.0,0.0,0.0,0.0,0.0,0.0,0.0,0.0,0.0,0.0,0.0,0.0,0.0,0.0,0.0,0.0,0.0,0.0,0.0,0.0,0.0,0.0,0.0,0.0,-2.5618,0.0,0.0,0.0,0.0,0.0,0.0,0.0,0.0,0.0,0.0,0.0,0.0,0.0,0.0,-3.1283,-3.2688,-3.3077,-3.3219,0.0,0.0,-3.3434,-3.3205,-3.3123,-3.2719,0.0,0.0,0.0,0.0,0.0,0.0,0.0,0.0,0.0,0.0,0.0,0.0,0.0,0.0,0.0,0.0,0.0,0.0,0.0,0.0,0.0,0.0,0.0,0.0,0.0,0.0,0.0,0.0,0.0,0.0,0.0,0.0,0.0,0.0,0.0,0.0,0.0,0.0,0.0,0.0,0.0,0.0,0.0,0.0,0.0,0.0,0.0,0.0,0.0,0.0,0.0,0.0,0.0,0.0,0.0,-3.6593,-3.6833,-3.7736,-3.9395,-3.9495,-3.952,-3.9577,-3.8751,-3.7925,0.0,0.0,0.0,0.0,0.0,0.0,0.0,0.0,0.0,0.0,0.0,0.0,0.0,0.0,0.0,0.0,0.0,0.0,0.0,0.0,0.0,0.0,0.0,0.0,0.0,0.0,0.0,0.0,0.0,0.0,0.0,0.0,0.0,0.0,0.0,0.0,0.0,0.0,0.0,0.0,0.0,-3.1862,-3.2777,-3.3605,-3.4071,0.0,0.0,-3.4965,-3.4133,-3.3924,-3.3324,-3.1849,0.0,0.0,0.0,0.0,0.0,0.0,0.0,0.0,0.0,0.0,0.0,0.0,0.0,0.0,0.0,0.0,0.0,0.0,0.0,0.0,0.0,0.0,0.0,0.0,0.0,0.0,0.0,0.0,0.0,0.0,0.0,0.0,0.0,0.0,0.0,0.0,0.0,0.0,0.0,0.0,0.0,0.0,0.0,0.0,0.0,0.0,0.0,0.0,0.0,0.0,0.0,0.0,0.0,-3.476,-3.6726,-3.7393,-3.829,-3.942,-3.9546,-3.9571,-3.962,-3.9258,-3.8694,0.0,0.0,0.0,0.0,0.0,0.0,0.0,0.0,0.0,0.0,0.0,0.0,0.0,0.0,0.0,0.0,0.0,0.0,0.0,0.0,0.0,0.0,0.0,0.0,0.0,0.0,0.0,0.0,-2.9602,-2.9808,-2.9583,0.0,0.0,0.0,0.0,0.0,0.0,0.0,0.0,0.0,0.0,-3.2769,-3.3651,-3.4473,0.0,0.0,-3.5244,-3.5367,-3.5029,-3.4909,-3.4661,-3.4023,-3.3016,0.0,0.0,0.0,0.0,0.0,0.0,0.0,0.0,0.0,0.0,0.0,0.0,0.0,0.0,0.0,0.0,0.0,0.0,0.0,0.0,0.0,0.0,0.0,0.0,0.0,0.0,0.0,0.0,0.0,0.0,0.0,0.0,0.0,0.0,0.0,0.0,0.0,0.0,0.0,0.0,0.0,0.0,0.0,0.0,0.0,0.0,0.0,0.0,0.0,0.0,0.0,0.0,-3.541,-3.6864,-3.7766,-3.864,-3.9502,-3.9571,-3.962,-3.962,-3.962,-3.9183,0.0,0.0,0.0,0.0,0.0,0.0,0.0,0.0,0.0,0.0,0.0,0.0,0.0,0.0,0.0,0.0,0.0,0.0,0.0,0.0,0.0,0.0,0.0,0.0,0.0,0.0,0.0,0.0,-3.0966,-3.082,-2.9836,0.0,0.0,0.0,0.0,0.0,0.0,0.0,0.0,0.0,0.0,-3.3732,-3.4555,-3.5411,-3.5963,-3.5897,-3.6146,-3.6251,-3.5984,-3.5897,-3.581,-3.5562,0.0,0.0,0.0,0.0,0.0,0.0,0.0,0.0,0.0,0.0,0.0,0.0,0.0,0.0,0.0,0.0,0.0,0.0,0.0,0.0,0.0,0.0,0.0,0.0,0.0,0.0,0.0,0.0,0.0,0.0,-2.75,0.0,0.0,0.0,0.0,0.0,0.0,0.0,0.0,0.0,0.0,0.0,0.0,0.0,0.0,0.0,0.0,0.0,0.0,0.0,0.0,0.0,0.0,-3.6043,-3.7004,-3.7877,-3.8751,-3.9558,-3.962,-3.962,-3.962,-3.962,-3.9201,-3.8338,0.0,0.0,0.0,0.0,0.0,0.0,0.0,0.0,0.0,0.0,0.0,0.0,0.0,0.0,0.0,0.0,0.0,0.0,0.0,0.0,0.0,0.0,0.0,0.0,0.0,0.0,-3.2352,-3.232,-3.1638,0.0,0.0,0.0,0.0,0.0,0.0,0.0,0.0,0.0,0.0,-3.3929,-3.4736,-3.5411,-3.6385,-3.7007,-3.679,-3.7609,-3.7929,-3.7102,-3.6841,-3.6555,0.0,0.0,0.0,0.0,0.0,0.0,0.0,0.0,0.0,0.0,0.0,0.0,0.0,0.0,0.0,0.0,0.0,0.0,0.0,0.0,0.0,0.0,0.0,0.0,0.0,0.0,0.0,-3.0964,-3.0709,0.0,0.0,0.0,0.0,0.0,0.0,0.0,0.0,0.0,0.0,0.0,-3.5416,-3.5163,0.0,0.0,0.0,0.0,0.0,0.0,0.0,0.0,0.0,0.0,0.0,0.0,-3.6967,-3.7863,-3.8732,-3.9295,-3.9602,-3.962,-3.962,-3.962,-3.962,-3.9183,-3.8338,0.0,0.0,0.0,0.0,0.0,0.0,0.0,0.0,0.0,0.0,0.0,0.0,0.0,0.0,0.0,0.0,0.0,0.0,0.0,0.0,0.0,0.0,0.0,0.0,0.0,-3.2681,0.0,0.0,0.0,0.0,0.0,0.0,0.0,0.0,0.0,0.0,0.0,-3.3477,-3.4836,-3.5732,-3.6394,-3.668,-3.7471,-3.8031,0.0,0.0,0.0,0.0,0.0,0.0,0.0,0.0,0.0,0.0,0.0,0.0,0.0,0.0,-3.0935,-3.0334,-2.9766,-2.9381,-2.9381,0.0,0.0,0.0,0.0,0.0,0.0,0.0,0.0,0.0,0.0,0.0,0.0,0.0,0.0,-3.2885,0.0,-3.262,0.0,0.0,0.0,0.0,0.0,0.0,0.0,0.0,-3.6307,-3.6861,-3.7121,-3.6912,-3.6807,0.0,-3.6889,-3.5773,0.0,0.0,0.0,0.0,0.0,0.0,0.0,0.0,-3.7727,-3.8319,-3.9145,-3.962,-3.962,-3.962,-3.962,-3.9645,-3.965,-3.9236,-3.8409,-3.7863,-3.681,0.0,0.0,0.0,0.0,0.0,0.0,0.0,0.0,0.0,0.0,0.0,0.0,0.0,0.0,0.0,0.0,0.0,0.0,0.0,0.0,0.0,0.0,0.0,-3.3549,0.0,0.0,0.0,0.0,0.0,0.0,0.0,0.0,0.0,-3.4035,-3.43,-3.4987,-3.6351,-3.7033,-3.7533,-3.7808,0.0,0.0,0.0,0.0,0.0,0.0,0.0,-3.8737,-3.8707,-3.8265,-3.7805,-3.7577,-3.6473,-3.5623,-3.565,0.0,0.0,-3.199,-3.1474,-3.1265,-3.1265,-3.1239,-3.1214,-3.1265,-3.1247,-3.1272,0.0,0.0,0.0,0.0,0.0,0.0,0.0,0.0,-3.5622,-3.5933,0.0,-3.5253,0.0,0.0,0.0,0.0,0.0,-3.5903,0.0,0.0,-3.7132,-3.724,-3.7962,-3.7273,-3.6957,-3.7084,-3.7122,-3.7108,-3.7117,-3.7042,0.0,0.0,0.0,0.0,0.0,0.0,-3.8227,-3.8394,-3.9183,-3.962,-3.962,-3.962,-3.9645,-3.9693,-3.9703,-3.9312,-3.858,-3.8505,-3.775,-3.6168,-3.5237,0.0,0.0,0.0,0.0,0.0,0.0,0.0,0.0,0.0,0.0,0.0,0.0,0.0,0.0,0.0,0.0,0.0,0.0,0.0,0.0,-3.3925,0.0,0.0,0.0,0.0,0.0,0.0,0.0,0.0,0.0,0.0,-3.5283,-3.5938,-3.6796,-3.7646,0.0,0.0,0.0,0.0,-3.9073,-3.9017,-3.9073,-3.9101,-3.9101,-3.9045,-3.8998,-3.9101,0.0,0.0,-3.8141,-3.7392,-3.6858,-3.6907,-3.6783,-3.595,-3.3345,-3.2318,-3.1771,-3.18,-3.1819,-3.1713,-3.1695,-3.1837,-3.1763,-3.743,0.0,0.0,0.0,0.0,-3.5506,-3.5714,-3.5745,-3.6135,-3.6295,-3.6277,-3.6141,0.0,0.0,0.0,0.0,0.0,0.0,-3.7671,-3.7912,-3.8319,-3.8606,-3.8856,-3.8775,-3.8758,-3.8765,-3.8858,-3.8863,-3.8863,-3.8839,-3.8239,-3.7071,0.0,0.0,0.0,0.0,-3.8576,-3.9201,-3.9532,-3.9669,-3.9669,-3.9656,-3.9684,-3.9703,-3.9708,-3.9576,-3.9373,-3.8826,-3.8278,-3.7769,-3.6411,0.0,0.0,0.0,0.0,0.0,0.0,0.0,0.0,0.0,0.0,0.0,0.0,0.0,0.0,0.0,0.0,0.0,0.0,0.0,-3.5972,-3.6166,-3.625,0.0,0.0,0.0,0.0,0.0,0.0,0.0,0.0,0.0,-3.7448,-3.7555,-3.7891,0.0,0.0,-3.8992,-3.9154,-3.9237,-3.9264,-3.9275,-3.9301,0.0,-3.9301,-3.9293,-3.9293,-3.9301,-3.9301,-3.9227,-3.9029,-3.8282,-3.7748,-3.7773,-3.7262,-3.6603,-3.5876,-3.4934,-3.4314,-3.4259,-3.379,-3.334,-3.3389,-3.3371,-3.3395,-3.9452,-3.7948,-3.7326,-3.69,-3.6618,-3.6966,-3.7131,-3.7168,-3.7298,-3.7385,-3.7395,-3.7479,-3.7516,-3.7544,-3.7571,0.0,0.0,0.0,-3.8404,-3.8431,-3.8979,-3.9256,-3.9328,-3.9425,-3.9539,-3.9546,-3.9596,-3.962,-3.962,-3.9915,-3.9577,-3.8582,0.0,0.0,-3.8807,-3.9126,-3.9583,-4.0096,-4.0459,-4.0678,-4.0683,-4.041,-4.0245,-4.0226,-3.9947,-3.9781,-3.9781,-3.9328,-3.8893,-3.8593,-3.7589,-3.6531,0.0,0.0,0.0,0.0,0.0,0.0,0.0,0.0,0.0,0.0,0.0,-3.2178,-3.3023,0.0,0.0,0.0,-3.6051,-3.6622,-3.7197,-3.7149,0.0,0.0,0.0,0.0,0.0,0.0,0.0,-3.7384,-3.7981,-3.8461,-3.8851,-3.8841,-3.8933,-3.9345,-3.9452,-3.9521,-3.9452,0.0,-3.9483,-3.9502,-3.9495,-3.9495,-3.9476,-3.9476,-3.9476,-3.9495,-3.9476,-3.9495,-3.9476,-3.9046,-3.8727,-3.8634,-3.829,-3.7929,-3.7929,-3.7131,-3.6359,-3.6043,-3.5553,-3.52,-3.5206,-3.5206,-3.5213,-4.1203,-4.1056,-3.9533,-3.8474,-3.7882,-3.8584,-3.8946,-3.9021,-3.9017,-3.9036,-3.9124,-3.9108,-3.9081,-3.9007,-3.9073,0.0,-3.8024,-3.8767,-3.9156,-3.9229,-3.9229,-3.9346,-3.9589,-3.9589,-3.9677,-3.9802,-3.9765,-3.9808,-3.9865,-4.0534,-4.0891,-4.0872,-4.014,-3.9765,-3.9821,-4.0516,-4.0942,-4.1011,-4.1707,-4.2153,-4.2208,-4.1558,-4.1207,-4.1207,-4.0416,-4.0003,-3.9984,-3.9908,-3.957,-3.8831,-3.8674,-3.7936,-3.6481,0.0,0.0,0.0,0.0,0.0,0.0,0.0,0.0,0.0,0.0,0.0,0.0,0.0,0.0,0.0,-3.7451,0.0,-3.7489,-3.7489,0.0,0.0,0.0,-3.7307,-3.7295,-3.7303,-3.7608,-3.8418,0.0,0.0,-3.9618,-3.9781,-3.98,-3.9712,-3.9712,-3.9712,-3.9712,-3.9703,-3.9717,-3.9693,-3.9626,-3.962,-3.962,-3.9596,-3.9596,-3.9596,-3.962,-3.9596,-3.9596,-3.9558,-3.9583,-3.9539,-3.9527,-3.9458,-3.9495,-3.8714,-3.8009,-3.7268,-3.6951,-3.6857,-3.6758,-3.6739,-3.6702,-4.2029,-4.1919,-4.0993,-4.0498,-4.0351,-4.0504,-4.0664,-4.0775,-4.0836,-4.0885,-4.0829,-4.0325,-3.9686,-3.9092,-3.9101,-3.9017,-3.8904,-3.909,-3.921,-3.9346,-3.9418,-3.9769,-4.0394,-4.0465,-4.0809,-4.1398,-4.1436,-4.1417,-4.1454,-4.1623,-4.1717,-4.1717,-4.1529,-4.1436,-4.1454,-4.1675,-4.1795,-4.1801,-4.2108,-4.2276,-4.2347,-4.2181,-4.2086,-4.2086,-4.1332,-4.0896,-4.0877,-4.0252,-3.9794,-3.9627,-3.902,-3.8509,-3.8111,-3.6708,0.0,0.0,0.0,0.0,0.0,0.0,0.0,0.0,0.0,-3.4826,-3.5656,0.0,-3.7977,0.0,-3.8814,-3.9195,-3.9195,-3.9195,0.0,0.0,-3.8603,-3.8426,-3.9006,-3.8558,-3.8505,-3.9362,-3.9498,-3.9596,-3.9807,-3.9867,-3.9848,-3.9867,-3.9867,-3.9845,-3.9781,-3.98,-3.9754,-3.9708,-3.9698,-3.9669,-3.9669,-3.9626,-3.962,-3.962,-3.962,-3.962,-3.962,-3.962,-3.962,-3.962,-3.9596,-3.9571,-3.9596,-3.9383,-3.9189,-3.8914,-3.7885,-3.6894,-3.6894,-3.6913,-3.6913,-4.3716,-4.3382,-4.2975,-4.2636,-4.2327,-4.1612,-4.1354,-4.1422,-4.1477,-4.1489,-4.1531,-4.1107,-4.0661,-4.0215,-4.0225,-4.0282,-4.0328,-4.0337,-4.0437,-4.051,-4.0536,-4.0832,-4.129,-4.1316,-4.1586,-4.1999,-4.1999,-4.2018,-4.2063,-4.2427,-4.2634,-4.2705,-4.3017,-4.3205,-4.3186,-4.2874,-4.2711,-4.2769,-4.3226,-4.3488,-4.3512,-4.317,-4.3,-4.3027,-4.2231,-4.1623,-4.1307,-4.0832,-4.0395,-3.9994,-3.9518,-3.9119,-3.8759,-3.7828,-3.6917,0.0,0.0,0.0,0.0,0.0,0.0,0.0,0.0,0.0,0.0,0.0,-3.8745,-3.9082,-3.958,-3.9845,-3.9848,-3.9867,-3.9845,-3.9826,-3.9407,-3.9309,-3.9743,-3.9384,-3.9312,-3.9788,-3.9848,-3.9848,-3.9889,-3.9911,-3.9933,-3.9973,-3.9973,-3.9973,-3.9848,-3.9845,-3.9781,-3.9758,-3.9703,-3.9693,-3.9669,-3.9626,-3.9645,-3.9645,-3.965,-3.9656,-3.9656,-3.9674,-3.9656,-3.9656,-3.9631,-3.965,-3.9631,-3.9637,-3.9661,-3.9524,-3.8855,-3.822,-3.8115,-3.8115,-3.8115,-4.5551,-4.4959,-4.5013,-4.4678,-4.4096,-4.2654,-4.197,-4.1822,-4.181,-4.179,-4.1739,-4.1787,-4.1731,-4.1619,-4.1688,-4.1716,-4.1745,-4.1782,-4.1838,-4.1892,-4.1919,-4.2002,-4.2187,-4.2141,-4.2243,-4.2337,-4.2318,-4.2363,-4.246,-4.3175,-4.3585,-4.3674,-4.4353,-4.4712,-4.4674,-4.3962,-4.3636,-4.3761,-4.4511,-4.4914,-4.4876,-4.4237,-4.3919,-4.395,-4.3133,-4.2395,-4.1753,-4.1527,-4.1049,-4.0326,-4.0095,-3.9673,-3.899,-3.8797,-3.8359,0.0,-3.7466,0.0,0.0,0.0,0.0,0.0,0.0,0.0,0.0,-3.8814,-3.9153,-3.9854,-3.9889,-3.9889,-3.9889,-3.9889,-3.9889,-3.9889,-3.9889,-3.9911,-3.9911,-3.9911,-3.9911,-3.9911,-3.993,-3.9933,-3.9933,-3.9975,-4.0036,-3.9996,-4.0057,-4.0055,-3.9951,-3.9889,-3.9826,-3.9826,-3.9773,-3.9698,-3.965,-3.965,-3.9717,-3.9698,-3.9703,-3.9708,-3.9708,-3.9689,-3.9689,-3.9712,-3.9708,-3.9708,-3.9712,-3.9721,-3.9724,-3.9717,-3.9637,-3.9576,-3.9519,-3.9451,-3.9626,-4.6007,-4.5912,-4.5981,-4.5953,-4.5834,-4.5644,-4.4772,-4.3547,-4.3509,-4.3169,-4.2575,-4.2646,-4.2302,-4.1706,-4.1754,-4.181,-4.1865,-4.1865,-4.1919,-4.1991,-4.1991,-4.2366,-4.305,-4.305,-4.3388,-4.4008,-4.4081,-4.4108,-4.4154,-4.4339,-4.4459,-4.4466,-4.4636,-4.4738,-4.477,0.0,0.0,0.0,-4.4868,-4.4967,-4.4967,-4.4881,-4.4851,-4.4832,-4.4056,0.0,-4.339,-4.2117,-4.1336,-4.1144,-4.0458,0.0,0.0,0.0,0.0,0.0,0.0,0.0,0.0,0.0,0.0,0.0,-3.83,-3.8357,-3.8681,-3.9304,-3.974,-3.987,-3.9889,-3.9889,-3.9889,-3.9889,-3.9889,-3.9889,-3.9889,-3.9911,-3.9975,-3.9975,-4.0015,-4.0057,-4.0076,-4.0057,-4.0057,-4.0096,-4.0077,-4.0077,-4.0096,-4.0096,-4.0057,-4.0015,-3.9956,-3.9954,-3.9845,-3.9754,-3.9665,-3.9727,-3.9727,-3.9708,-3.9708,-3.9712,-3.9712,-3.9731,-3.9735,-3.9781,-3.9785,-3.9788,-3.9848,-3.9876,-3.9838,-3.9848,-3.9867,-3.9823,-3.9689,-3.9684,-3.9684,-4.7165,0.0,-4.6935,-4.6709,0.0,-4.6475,-4.6034,-4.5193,-4.4809,-4.4222,-4.349,-4.3532,-4.3338,-4.3005,-4.3072,-4.31,-4.3128,-4.3156,-4.3183,-4.323,-4.3238,-4.3482,-4.3895,-4.3895,-4.4129,-4.4551,-4.4578,-4.4651,-4.4712,-4.4738,-4.4789,-4.4796,-4.4815,-4.4815,-4.4846,-4.4846,-4.487,-4.4895,-4.4986,-4.501,-4.501,-4.508,-4.5106,-4.5129,-4.4748,0.0,0.0,0.0,0.0,0.0,0.0,0.0,0.0,-3.9697,0.0,-3.9369,-3.8971,-3.8743,-3.8724,-3.8724,-3.8914,-3.9351,-3.9407,-3.9368,-3.9304,-3.9686,-3.9954,-3.9954,-3.9975,-3.9994,-3.9975,-3.9994,-4.0015,-4.0015,-3.9994,-4.0015,-4.0057,-4.0057,-4.0057,-4.0077,-4.0096,-4.0117,-4.0157,-4.0138,-4.0177,-4.0196,-4.0234,-4.0253,-4.0253,-4.0138,-4.0036,-3.9973,-3.9949,-3.9883,-3.9781,-3.9841,-3.9886,-3.9886,-3.9889,-3.9889,-3.9889,-3.9889,-3.9911,-3.9933,-3.9956,-3.9956,-3.9994,-4.0017,-4.0019,-3.9996,-4.0015,-3.9975,-3.9911,-3.9804,-3.9735,-4.8344,-4.784,-4.7821,-4.7466,-4.6921,-4.6921,-4.6854,-4.6678,0.0,0.0,0.0,-4.4419,-4.4405,-4.4314,-4.4383,-4.4393,-4.4411,-4.4487,-4.4496,-4.4496,-4.4496,-4.4496,-4.4515,-4.4515,-4.4551,-4.4605,-4.4632,-4.4667,-4.4796,-4.4796,-4.4865,-4.4895,-4.4895,-4.4895,-4.4895,-4.4914,-4.4938,-4.4919,-4.4967,-4.5014,-4.5014,-4.5103,-4.517,-4.5213,-4.5213,-4.4911,-4.4244,-4.4093,-4.331,-4.182,-4.1532,-4.1035,-4.0253,-4.0157,-4.0117,-4.0096,-4.0096,-4.0096,-4.0096,-4.0096,-4.0096,-4.0096,-4.0096,-4.0057,-3.9933,-3.9975,-4.0036,-4.0017,-4.0057,-4.0096,-4.0096,-4.0096,-4.0096,-4.0096,-4.0096,-4.0098,-4.0137,-4.0118,-4.0118,-4.0138,-4.0176,-4.0176,-4.0234,-4.0253,-4.0252,-4.0306,-4.036,-4.0396,-4.0379,-4.0215,-4.0077,-3.9994,-4.0011,-3.9949,-3.9889,-3.997,-4.0074,-4.0036,-4.0077,-4.0098,-4.0118,-4.0118,-4.0118,-4.0138,-4.0138,-4.0138,-4.0138,-4.0157,-4.0138,-4.0138,-4.0138,-4.0138,-4.0118,-4.0017,-3.9892,-4.8748,-4.8707,-4.8707,-4.8667,-4.8556,-4.8556,-4.82,-4.7545,-4.6759,-4.6004,-4.5331,-4.5372,-4.5028,-4.4401,-4.4458,-4.4487,-4.4487,-4.4487,-4.4496,-4.4496,-4.4496,-4.4524,-4.4578,-4.4578,-4.4605,-4.4685,-4.4738,-4.4789,-4.4796,-4.4865,-4.4895,-4.4895,-4.4895,-4.4895,-4.4895,-4.4943,-4.4991,-4.4967,-4.5038,-4.5106,-4.517,-4.5235,-4.5275,-4.5297,-4.5297,-4.5239,-4.5105,-4.4418,-4.3577,-4.266,-4.1896,-4.1094,-4.0253,-4.0196,-4.0157,-4.0098,-4.0096,-4.0096,-4.0117,-4.0096,-4.0096,-4.0096,-4.0096,-4.0077,-4.0057,-4.0096,-4.0096,-4.0096,-4.0096,-4.0096,-4.0096,-4.0098,-4.0117,-4.0117,-4.0117,-4.0118,-4.0177,-4.0196,-4.0234,-4.0345,-4.0363,-4.0363,-4.0381,-4.0362,-4.0377,-4.0372,-4.0406,-4.0427,-4.0468,-4.0288,-4.0177,-4.0098,-4.0076,-4.0076,-4.0057,-4.0076,-4.0137,-4.0157,-4.0196,-4.0196,-4.0196,-4.0177,-4.0215,-4.0252,-4.0271,-4.029,-4.0326,-4.0363,-4.0326,-4.0326,-4.0326,-4.0345,-4.0271,-4.0234,-4.0177,-4.8874,-4.889,-4.889,-4.8927,-4.8983,-4.903,-4.8889,-4.8581,-4.8207,-4.7361,-4.6289,-4.6263,-4.6117,-4.5809,-4.5838,-4.5866,-4.5848,-4.5388,-4.5209,-4.5171,-4.4766,-4.4613,-4.4659,-4.4667,-4.4719,-4.4745,-4.4821,-4.4846,-4.4865,-4.487,-4.4895,-4.4895,-4.4895,-4.4919,-4.4943,-4.4967,-4.5057,-4.5084,-4.5148,-4.517,-4.5192,-4.5256,-4.5277,-4.5277,-4.5277,-4.5277,-4.5277,-4.4914,-4.4322,-4.3501,-4.266,-4.1839,-4.096,-4.0502,-4.0234,-4.0215,-4.0215,-4.0215,-4.0215,-4.0215,-4.0215,-4.0215,-4.0215,-4.0215,-4.0215,-4.0176,-4.0157,-4.0157,-4.0176,-4.0196,-4.0215,-4.0196,-4.0196,-4.0215,-4.0234,-4.0272,-4.0289,-4.0306,-4.0341,-4.0392,-4.0427,-4.046,-4.0495,-4.0515,-4.0511,-4.0519,-4.0515,-4.0673,-4.1088,-4.1116,-4.0875,-4.0348,-4.0215,-4.0215,-4.0215,-4.0234,-4.0291,-4.0309,-4.0309,-4.0308,-4.0326,-4.0307,-4.0307,-4.0325,-4.0362,-4.0362,-4.0398,-4.0398,-4.0398,-4.0398,-4.0398,-4.0379,-4.0342,-4.0362,-4.0308,-4.8909,-4.8962,-4.8943,-4.9033,-4.9157,-4.9211,-4.9302,-4.9371,-4.9384,-4.8689,-4.762,-4.7309,-4.7121,-4.7022,-4.7022,-4.7022,-4.6957,-4.6412,-4.612,-4.6064,-4.5515,-4.5191,-4.5066,-4.5098,-4.5029,-4.4908,-4.4938,-4.4962,-4.4943,-4.4919,-4.4938,-4.4895,-4.4919,-4.4943,-4.501,-4.5014,-4.5084,-4.5192,-4.5213,-4.5233,-4.5233,-4.5275,-4.5277,-4.5277,-4.5277,-4.5277,-4.5277,-4.5277,-4.4895,-4.4036,-4.3233,-4.2412,-4.1552,-4.0731,-4.0329,-4.0329,-4.0329,-4.0329,-4.0329,-4.0329,-4.0329,-4.0329,-4.0329,-4.0329,-4.0291,-4.0253,-4.0234,-4.0215,-4.0273,-4.031,-4.031,-4.029,-4.0307,-4.0323,-4.036,-4.0413,-4.043,-4.0444,-4.0457,-4.0473,-4.0504,-4.0569,-4.0603,-4.0617,-4.0723,-4.091,-4.1059,-4.1475,-4.1975,-4.211,-4.1755,-4.1251,-4.0952,-4.0896,-4.0705,-4.0703,-4.0679,-4.0526,-4.0449,-4.043,-4.043,-4.043,-4.043,-4.043,-4.043,-4.043,-4.043,-4.043,-4.043,-4.043,-4.043,-4.043,-4.0411,-4.0411,-4.0379,-4.8962,-4.9068,-4.9101,-4.915,-4.9289,-4.9356,-4.9453,-4.9555,-4.9634,-4.9607,-4.9276,-4.848,-4.7717,-4.7146,-4.7146,-4.7194,-4.725,-4.7108,-4.707,-4.707,-4.6994,-4.666,-4.6102,-4.607,-4.5721,-4.5171,-4.5099,-4.5137,-4.508,-4.5033,-4.4967,-4.4919,-4.4943,-4.4991,-4.5014,-4.5125,-4.5211,-4.5192,-4.5256,-4.5297,-4.5297,-4.5297,-4.5277,-4.5277,-4.5277,-4.5277,-4.5277,-4.5277,-4.4914,-4.4055,-4.3233,-4.2412,-4.1571,-4.075,-4.0329,-4.0329,-4.0329,-4.0329,-4.0329,-4.0329,-4.0329,-4.0329,-4.0329,-4.0329,-4.0329,-4.0291,-4.0272,-4.0272,-4.0291,-4.031,-4.0308,-4.0307,-4.0341,-4.0372,-4.0425,-4.0441,-4.0558,-4.0573,-4.0588,-4.0574,-4.064,-4.0687,-4.0777,-4.0849,-4.1126,-4.1783,-4.2363,-4.2827,-4.3038,-4.3067,-4.313,-4.295,-4.2884,-4.247,-4.1912,-4.1662,-4.1431,-4.0866,-4.0631,-4.0673,-4.0712,-4.0635,-4.0558,-4.0508,-4.0492,-4.0492,-4.0489,-4.0489,-4.0489,-4.0473,-4.0473,-4.0473,-4.0489,-4.0492,-4.046,-4.9131,-4.9183,-4.9197,-4.9308,-4.9495,-4.955,-4.9598,-4.9663,-4.9692,-4.9711,-4.9673,-4.9276,-4.8936,-4.8645,-4.8645,-4.8645,-4.8636,-4.8275,-4.8075,-4.8018,-4.7643,-4.7283,-4.7048,-4.7124,-4.671,-4.5944,-4.5916,-4.563,-4.5179,-4.508,-4.5038,-4.5033,-4.5057,-4.508,-4.5125,-4.517,-4.5213,-4.5256,-4.5297,-4.5277,-4.5277,-4.5277,-4.5277,-4.5277,-4.5277,-4.5277,-4.5277,-4.5277,-4.5144,-4.4704,-4.352,-4.2641,-4.2278,-4.1017,-4.0329,-4.0329,-4.0329,-4.0329,-4.0329,-4.0329,-4.0329,-4.0329,-4.0329,-4.0329,-4.0329,-4.031,-4.0309,-4.0309,-4.0309,-4.0308,-4.0342,-4.0394,-4.0425,-4.0473,-4.0519,-4.0598,-4.0646,-4.0687,-4.0726,-4.072,-4.0745,-4.0982,-4.1478,-4.1981,-4.2419,-4.2807,-4.3201,-4.3524,-4.3918,-4.402,-4.4272,-4.4659,-4.478,-4.4119,-4.2984,-4.2626,-4.2429,-4.2155,-4.1692,-4.1403,-4.1326,-4.0863,-4.0598,-4.0583,-4.0622,-4.0622,-4.0545,-4.0545,-4.0545,-4.0564,-4.0564,-4.0564,-4.0554,-4.0573,-4.0523,-4.9211,-4.9276,-4.9365,-4.9537,-4.9673,-4.974,-4.9805,-4.9788,-4.9788,-4.9807,-4.9788,-4.9788,-4.9807,-4.9807,-4.9759,-4.9778,-4.974,-4.9318,-4.9079,-4.9029,-4.8523,-4.8191,-4.801,-4.8082,-4.7681,-4.6972,-4.6904,-4.6424,-4.5551,-4.5224,-4.5148,-4.5103,-4.5125,-4.5148,-4.5192,-4.5213,-4.5235,-4.5297,-4.5277,-4.5277,-4.5277,-4.5277,-4.5277,-4.5277,-4.5277,-4.5277,-4.5277,-4.5277,-4.5277,-4.5258,-4.3883,-4.3023,-4.2756,-4.1418,-4.054,-4.0329,-4.0329,-4.0329,-4.0329,-4.0329,-4.0329,-4.0329,-4.0329,-4.031,-4.031,-4.0327,-4.0325,-4.0341,-4.036,-4.0377,-4.043,-4.0476,-4.0539,-4.0549,-4.0654,-4.0713,-4.0739,-4.0769,-4.0889,-4.1083,-4.1261,-4.1526,-4.238,-4.3186,-4.3757,-4.3746,-4.4005,-4.4233,-4.4802,-4.4976,-4.5189,-4.579,-4.5873,-4.5247,-4.3935,-4.3612,-4.3573,-4.3187,-4.2646,-4.2323,-4.229,-4.1658,-4.1103,-4.1364,-4.1089,-4.08,-4.0612,-4.0588,-4.0646,-4.0607,-4.0588,-4.0607,-4.0598,-4.0583,-4.0569,-4.9276,-4.9427,-4.9665,-4.9814,-4.9879,-4.9943,-5.0012,-5.0057,-5.0082,-5.0082,-5.0082,-5.0082,-5.0082,-5.0082,-4.9978,-4.9978,-5.0063,-4.9987,-4.9974,-4.9974,-4.9898,-4.9591,-4.8965,-4.8926,-4.8592,-4.7928,-4.7891,-4.7371,-4.6407,-4.566,-4.5233,-4.5106,-4.517,-4.5192,-4.5213,-4.5256,-4.5277,-4.5277,-4.5277,-4.5277,-4.5277,-4.5277,-4.5277,-4.5277,-4.5277,-4.5277,-4.5277,-4.5277,-4.5277,-4.5277,-4.4399,-4.3596,-4.2832,-4.1896,-4.1036,-4.0406,-4.0329,-4.0329,-4.0329,-4.0329,-4.0329,-4.031,-4.031,-4.031,-4.0308,-4.0344,-4.0358,-4.0492,-4.0489,-4.0489,-4.0504,-4.0573,-4.0626,-4.0688,-4.072,-4.0808,-4.0834,-4.102,-4.1233,-4.1865,-4.2177,-4.2586,-4.3364,-4.421,-4.4616,-4.4819,-4.5312,-4.5747,-4.5665,-4.5769,-4.5828,-4.5859,-4.5859,-4.5595,-4.4827,-4.4589,-4.4253,-4.3911,-4.3679,-4.3312,-4.3247,-4.3065,-4.2555,-4.214,-4.1967,-4.1547,-4.0891,-4.064,-4.0737,-4.0737,-4.066,-4.066,-4.0626,-4.0588,-4.0593,-4.9585,-4.9741,-4.986,-4.9993,-5.0089,-5.0125,-5.0169,-5.0231,-5.0231,-5.025,-5.0231,-5.0231,-5.0255,-5.0278,-5.0231,-5.0207,-5.0182,-5.0255,-5.0278,-5.0302,-5.0325,-5.0218,-4.9994,-5.0003,-4.9602,-4.8931,-4.8855,-4.8106,-4.6664,-4.5782,-4.5341,-4.5298,-4.5317,-4.5317,-4.5256,-4.5297,-4.5277,-4.5277,-4.5277,-4.5277,-4.5277,-4.5277,-4.5277,-4.5277,-4.5277,-4.5277,-4.5277,-4.5277,-4.5277,-4.5277,-4.4475,-4.3634,-4.2794,-4.1476,-4.0616,-4.0348,-4.0329,-4.0329,-4.0329,-4.0329,-4.0329,-4.0309,-4.0309,-4.0326,-4.0362,-4.0411,-4.0441,-4.0523,-4.0574,-4.0615,-4.0629,-4.0648,-4.0707,-4.0815,-4.1308,-4.166,-4.1798,-4.2168,-4.2664,-4.3014,-4.3451,-4.4024,-4.4345,-4.5045,-4.553,-4.5559,-4.5809,-4.5964,-4.5964,-4.5972,-4.596,-4.5964,-4.5964,-4.5878,-4.5634,-4.5483,-4.5285,-4.4982,-4.4679,-4.4305,-4.4124,-4.3653,-4.3123,-4.2955,-4.282,-4.2632,-4.2033,-4.1608,-4.155,-4.1434,-4.1318,-4.1073,-4.0687,-4.1015,-4.0891,-4.9843,-4.9933,-5.0038,-5.0139,-5.0212,-5.0259,-5.0325,-5.0371,-5.0371,-5.0371,-5.0371,-5.0371,-5.0435,-5.0457,-5.0481,-5.044,-5.0355,-5.0457,-5.0476,-5.0478,-5.0502,-5.0544,-5.0565,-5.0606,-5.0356,-4.9798,-4.9528,-4.8625,-4.7242,-4.6302,-4.5745,-4.5457,-4.5418,-4.5398,-4.5338,-4.5337,-4.5277,-4.5277,-4.5277,-4.5277,-4.5277,-4.5277,-4.5277,-4.5277,-4.5277,-4.5277,-4.5277,-4.5277,-4.5277,-4.5201,-4.4723,-4.394,-4.2794,-4.1476,-4.0578,-4.0348,-4.031,-4.031,-4.031,-4.0328,-4.0346,-4.0344,-4.0323,-4.0358,-4.043,-4.0492,-4.0519,-4.0579,-4.0648,-4.0764,-4.111,-4.1187,-4.1219,-4.1358,-4.205,-4.2586,-4.2645,-4.3131,-4.3569,-4.3957,-4.4637,-4.5084,-4.5239,-4.5666,-4.5899,-4.5977,-4.5986,-4.5986,-4.5997,-4.5986,-4.5994,-4.5997,-4.5997,-4.5977,-4.588,-4.5789,-4.5778,-4.5534,-4.5394,-4.5098,-4.4841,-4.4312,-4.3937,-4.3802,-4.3672,-4.3556,-4.3247,-4.2783,-4.2531,-4.2396,-4.2267,-4.206,-4.1828,-4.166,-4.1666,-5.0005,-5.0057,-5.0231,-5.0302,-5.0325,-5.0435,-5.05,-5.05,-5.0481,-5.0502,-5.0521,-5.0582,-5.0584,-5.0623,-5.0664,-5.0682,-5.0664,-5.0644,-5.0604,-5.0604,-5.0606,-5.0625,-5.0682,-5.0701,-5.0718,-5.0619,-4.9886,-4.9039,-4.8081,-4.718,-4.6337,-4.5629,-4.5458,-4.5418,-4.5379,-4.5338,-4.5297,-4.5317,-4.5297,-4.5277,-4.5277,-4.5277,-4.5277,-4.5277,-4.5277,-4.5277,-4.5277,-4.5277,-4.5277,-4.5277,-4.5239,-4.4475,-4.3061,-4.2011,-4.117,-4.0577,-4.0385,-4.0364,-4.0325,-4.0342,-4.0398,-4.0413,-4.0427,-4.0441,-4.0523,-4.065,-4.0761,-4.0862,-4.0958,-4.1207,-4.2031,-4.2274,-4.2274,-4.2285,-4.2936,-4.3451,-4.35,-4.3549,-4.3879,-4.4695,-4.5433,-4.5919,-4.5958,-4.5958,-4.5977,-4.5997,-4.5997,-4.5997,-4.5997,-4.5997,-4.5997,-4.5997,-4.5977,-4.5977,-4.5977,-4.5977,-4.5977,-4.5938,-4.5867,-4.5728,-4.5607,-4.5234,-4.4938,-4.477,-4.4628,-4.4479,-4.4117,-4.3672,-4.3421,-4.3266,-4.3169,-4.2957,-4.2711,-4.2557,-4.2737,-5.0188,-5.0212,-5.0371,-5.0478,-5.05,-5.0542,-5.0604,-5.0644,-5.0625,-5.0664,-5.0702,-5.072,-5.074,-5.0758,-5.0738,-5.0775,-5.0775,-5.0793,-5.0793,-5.0739,-5.0757,-5.0757,-5.0793,-5.0808,-5.0874,-5.077,-5.0059,-4.9177,-4.8298,-4.74,-4.6482,-4.574,-4.555,-4.5495,-4.54,-4.536,-4.5359,-4.5378,-4.5317,-4.5277,-4.5277,-4.5277,-4.5277,-4.5277,-4.5277,-4.5277,-4.5277,-4.5277,-4.5277,-4.5277,-4.5277,-4.4801,-4.377,-4.2872,-4.2068,-4.1378,-4.1262,-4.0952,-4.0452,-4.0411,-4.0518,-4.0531,-4.0562,-4.0588,-4.0723,-4.1228,-4.1558,-4.1737,-4.2179,-4.2748,-4.3042,-4.3645,-4.3675,-4.317,-4.385,-4.4374,-4.4443,-4.4851,-4.5297,-4.555,-4.5841,-4.5977,-4.5977,-4.5977,-4.5977,-4.5977,-4.5977,-4.5977,-4.5977,-4.5977,-4.5977,-4.5977,-4.5977,-4.5977,-4.5977,-4.5977,-4.5977,-4.5997,-4.5994,-4.5983,-4.5972,-4.5929,-4.5692,-4.5551,-4.5428,-4.5241,-4.4885,-4.4595,-4.4305,-4.4014,-4.3802,-4.3576,-4.3382,-4.346,-4.3672,-5.0371,-5.039,-5.05,-5.0542,-5.0603,-5.0624,-5.0664,-5.0701,-5.072,-5.0756,-5.0793,-5.081,-5.0846,-5.0844,-5.0861,-5.0877,-5.0893,-5.0941,-5.0941,-5.0913,-5.0893,-5.0913,-5.0913,-5.096,-5.1005,-5.0942,-5.0482,-4.9737,-4.8851,-4.7959,-4.7063,-4.6282,-4.5791,-4.5566,-4.5457,-4.5458,-4.5438,-4.54,-4.5341,-4.5339,-4.5339,-4.5339,-4.5339,-4.5339,-4.5339,-4.5339,-4.532,-4.532,-4.5319,-4.5317,-4.5317,-4.4957,-4.4193,-4.3599,-4.2984,-4.2387,-4.2192,-4.1975,-4.1473,-4.154,-4.1459,-4.1557,-4.1586,-4.1627,-4.1764,-4.2267,-4.2504,-4.2687,-4.302,-4.3538,-4.3936,-4.4393,-4.4598,-4.4501,-4.4909,-4.5239,-4.5336,-4.5686,-4.5938,-4.5958,-4.5977,-4.5977,-4.5977,-4.5977,-4.5977,-4.5977,-4.5977,-4.5977,-4.5977,-4.5977,-4.5977,-4.5977,-4.5977,-4.5977,-4.5977,-4.5977,-4.5977,-4.5997,-4.5986,-4.5986,-4.5975,-4.5972,-4.5832,-4.5776,-4.5693,-4.5674,-4.537,-4.5273,-4.506,-4.4757,-4.4511,-4.4654,-4.4634,-4.4537,-4.4673,-5.0521,-5.0521,-5.0603,-5.0623,-5.0623,-5.0683,-5.072,-5.0736,-5.0773,-5.0827,-5.0827,-5.0916,-5.0913,-5.0925,-5.0956,-5.1024,-5.1087,-5.1067,-5.1067,-5.1087,-5.1087,-5.1067,-5.1067,-5.1067,-5.1081,-5.1095,-5.1042,-5.0558,-4.9594,-4.8706,-4.7966,-4.7004,-4.6082,-4.5616,-4.5584,-4.555,-4.5495,-4.5438,-4.5419,-4.54,-4.54,-4.54,-4.54,-4.54,-4.54,-4.54,-4.54,-4.54,-4.538,-4.5338,-4.536,-4.5093,-4.4461,-4.4286,-4.3918,-4.3186,-4.3153,-4.3069,-4.3081,-4.2874,-4.2955,-4.2949,-4.2989,-4.3291,-4.3078,-4.3238,-4.3455,-4.3507,-4.3693,-4.4033,-4.4685,-4.4928,-4.522,-4.5783,-4.5802,-4.5861,-4.5958,-4.5977,-4.5977,-4.5977,-4.5977,-4.5977,-4.5977,-4.5977,-4.5977,-4.5977,-4.5977,-4.5977,-4.5977,-4.5977,-4.5977,-4.5977,-4.5977,-4.5977,-4.5977,-4.5977,-4.5977,-4.5997,-4.5997,-4.5997,-4.5997,-4.5975,-4.596,-4.5937,-4.5925,-4.5912,-4.5854,-4.568,-4.5641,-4.5473,-4.5525,-4.5828,-4.5731,-4.5428,-4.5311,-5.0567,-5.0586,-5.0702,-5.0759,-5.074,-5.0757,-5.0791,-5.0858,-5.0858,-5.0945,-5.099,-5.1024,-5.1039,-5.1053,-5.1053,-5.1087,-5.1081,-5.1108,-5.1082,-5.1102,-5.1166,-5.1146,-5.1102,-5.1102,-5.1134,-5.1166,-5.1095,-5.0655,-4.9782,-4.8916,-4.8056,-4.7177,-4.625,-4.5742,-4.5735,-4.5632,-4.5563,-4.5545,-4.5494,-4.5457,-4.5457,-4.5438,-4.54,-4.54,-4.5419,-4.5419,-4.5419,-4.5438,-4.5457,-4.5381,-4.5458,-4.5438,-4.5204,-4.518,-4.4829,-4.4261,-4.4114,-4.3868,-4.3413,-4.3337,-4.3344,-4.3349,-4.3548,-4.3366,-4.3388,-4.3982,-4.4303,-4.4519,-4.4898,-4.5336,-4.5608,-4.5647,-4.5802,-4.5919,-4.5977,-4.5977,-4.5977,-4.5977,-4.5977,-4.5977,-4.5977,-4.5977,-4.5977,-4.5977,-4.5977,-4.5977,-4.5977,-4.5977,-4.5977,-4.5977,-4.5977,-4.5977,-4.5977,-4.5977,-4.5977,-4.5977,-4.5977,-4.5977,-4.5997,-4.5997,-4.5997,-4.5986,-4.5983,-4.598,-4.596,-4.596,-4.5917,-4.582,-4.5879,-4.591,-4.5898,-4.5929,-4.5898,-4.5711,-4.5692,-5.0682,-5.0701,-5.0756,-5.0812,-5.0813,-5.0808,-5.0855,-5.0898,-5.0971,-5.1039,-5.1087,-5.1081,-5.1081,-5.1089,-5.1089,-5.1108,-5.114,-5.1146,-5.1139,-5.1139,-5.119,-5.119,-5.1159,-5.1159,-5.1171,-5.1202,-5.1159,-5.0868,-5.0266,-4.9181,-4.8302,-4.7669,-4.6487,-4.5866,-4.5838,-4.5742,-4.5677,-4.5665,-4.5635,-4.5565,-4.5584,-4.5547,-4.553,-4.553,-4.551,-4.551,-4.553,-4.5565,-4.5547,-4.5493,-4.553,-4.5584,-4.5651,-4.568,-4.5495,-4.508,-4.5084,-4.486,-4.4537,-4.442,-4.4463,-4.4494,-4.4505,-4.4508,-4.4597,-4.4985,-4.5267,-4.5375,-4.5763,-4.5938,-4.5977,-4.5977,-4.5977,-4.5977,-4.5977,-4.5977,-4.5977,-4.5977,-4.5977,-4.5977,-4.5977,-4.5977,-4.5977,-4.5977,-4.5977,-4.5977,-4.5977,-4.5977,-4.5977,-4.5977,-4.5977,-4.5977,-4.5977,-4.5977,-4.5977,-4.5977,-4.5977,-4.5977,-4.5977,-4.5977,-4.5977,-4.5977,-4.5986,-4.5983,-4.5994,-4.5975,-4.5953,-4.5933,-4.5964,-4.5964,-4.5953,-4.5941,-4.5922,-4.591,-4.5922,-5.081,-5.081,-5.081,-5.081,-5.0846,-5.0874,-5.0913,-5.0945,-5.1042,-5.1101,-5.1114,-5.1114,-5.1121,-5.1127,-5.1127,-5.1159,-5.1222,-5.119,-5.1202,-5.1202,-5.1202,-5.1202,-5.119,-5.119,-5.1202,-5.1202,-5.1202,-5.1183,-5.0647,-4.94,-4.8662,-4.8068,-4.6763,-4.6002,-4.5906,-4.5827,-4.5819,-4.5791,-4.5746,-4.5731,-4.5715,-4.5696,-4.568,-4.568,-4.568,-4.5696,-4.5715,-4.5731,-4.5696,-4.5626,-4.5629,-4.568,-4.5795,-4.5819,-4.5808,-4.5796,-4.5764,-4.5769,-4.584,-4.5708,-4.5867,-4.577,-4.5811,-4.5997,-4.5802,-4.5802,-4.5841,-4.5841,-4.5977,-4.5977,-4.5977,-4.5977,-4.5977,-4.5977,-4.5977,-4.5977,-4.5977,-4.5977,-4.5977,-4.5977,-4.5977,-4.5977,-4.5977,-4.5977,-4.5977,-4.5977,-4.5977,-4.5977,-4.5977,-4.5977,-4.5977,-4.5977,-4.5977,-4.5977,-4.5977,-4.5977,-4.5977,-4.5977,-4.5977,-4.5977,-4.5977,-4.5977,-4.5977,-4.5997,-4.5986,-4.5986,-4.5986,-4.5986,-4.5997,-4.5986,-4.5975,-4.5986,-4.5977,-4.5956,-4.5956,-5.0863,-5.0863,-5.0877,-5.0913,-5.0967,-5.0975,-5.1009,-5.1062,-5.1076,-5.1134,-5.1159,-5.1178,-5.1178,-5.1171,-5.1171,-5.1171,-5.1202,-5.1202,-5.1202,-5.1202,-5.1202,-5.1202,-5.1202,-5.1202,-5.1202,-5.1202,-5.1202,-5.1202,-5.0794,-4.9579,-4.8588,-4.8336,-4.6954,-4.598,-4.5949,-4.5905,-4.5893,-4.5867,-4.586,-4.5833,-4.5833,-4.58,-4.5786,-4.5786,-4.5786,-4.58,-4.5852,-4.5866,-4.5847,-4.5822,-4.578,-4.58,-4.5866,-4.5887,-4.5893,-4.5905,-4.5949,-4.5972,-4.5991,-4.5975,-4.5986,-4.5986,-4.5997,-4.5977,-4.5977,-4.5977,-4.5977,-4.5977,-4.5977,-4.5977,-4.5977,-4.5977,-4.5977,-4.5977,-4.5977,-4.5977,-4.5977,-4.5977,-4.5977,-4.5977,-4.5977,-4.5977,-4.5977,-4.5977,-4.5977,-4.5977,-4.5977,-4.5977,-4.5977,-4.5977,-4.5977,-4.5977,-4.5977,-4.5977,-4.5977,-4.5977,-4.5977,-4.5977,-4.5977,-4.5977,-4.5977,-4.5977,-4.5977,-4.5977,-4.5997,-4.5977,-4.5977,-4.5977,-4.5997,-4.5997,-4.5977,-4.5977,-4.5977,-4.5977,-4.5977,-5.0913,-5.0913,-5.0941,-5.096,-5.1018,-5.102,-5.1063,-5.1113,-5.1152,-5.1171,-5.1202,-5.1202,-5.1202,-5.1202,-5.1202,-5.1202,-5.1202,-5.1202,-5.1202,-5.1202,-5.1202,-5.1202,-5.1202,-5.1202,-5.1202,-5.1202,-5.1202,-5.1202,-5.0755,-4.959,-4.858,-4.8444,-4.686,-4.6072,-4.5994,-4.5972,-4.5949,-4.5949,-4.5925,-4.5899,-4.588,-4.5867,-4.5854,-4.5835,-4.5835,-4.5867,-4.5899,-4.5899,-4.5925,-4.5937,-4.5905,-4.5912,-4.5944,-4.5937,-4.5941,-4.5953,-4.5964,-4.5994,-4.5986,-4.5986,-4.5997,-4.5977,-4.5977,-4.5977,-4.5977,-4.5977,-4.5977,-4.5977,-4.5977,-4.5977,-4.5977,-4.5977,-4.5977,-4.5977,-4.5977,-4.5977,-4.5977,-4.5977,-4.5977,-4.5977,-4.5977,-4.5977,-4.5977,-4.5977,-4.5977,-4.5977,-4.5977,-4.5977,-4.5977,-4.5977,-4.5977,-4.5977,-4.5977,-4.5977,-4.5977,-4.5977,-4.5977,-4.5977,-4.5977,-4.5977,-4.5977,-4.5977,-4.5977,-4.5977,-4.5977,-4.5977,-4.5977,-4.5977,-4.5977,-4.5977,-4.5977,-4.5977,-4.5977,-4.5977,-4.5977,-5.0906,-5.0906,-5.0971,-5.099,-5.1014,-5.1075,-5.1108,-5.1125,-5.1163,-5.1202,-5.1202,-5.1202,-5.1202,-5.1202,-5.1202,-5.1202,-5.1202,-5.1202,-5.1202,-5.1202,-5.1202,-5.1202,-5.1202,-5.1202,-5.1202,-5.1202,-5.1202,-5.1202,-5.0755,-4.9571,-4.8619,-4.8289,-4.6851,-4.6074,-4.5997,-4.5994,-4.5983,-4.5983,-4.5941,-4.5929,-4.5929,-4.5929,-4.5929,-4.5929,-4.591,-4.591,-4.5929,-4.5929,-4.5941,-4.5983,-4.5983,-4.5983,-4.5983,-4.5983,-4.5994,-4.5997,-4.5997,-4.5997,-4.5997,-4.5997,-4.5977,-4.5977,-4.5977,-4.5977,-4.5977,-4.5977,-4.5977,-4.5977,-4.5977,-4.5977,-4.5977,-4.5977,-4.5977,-4.5977,-4.5977,-4.5977,-4.5977,-4.5977,-4.5977,-4.5977,-4.5977,-4.5977,-4.5977,-4.5977,-4.5977,-4.5977,-4.5977,-4.5977,-4.5977,-4.5977,-4.5977,-4.5977,-4.5977,-4.5977,-4.5977,-4.5977,-4.5977,-4.5977,-4.5977,-4.5977,-4.5977,-4.5977,-4.5977,-4.5977,-4.5977,-4.5977,-4.5977,-4.5977,-4.5977,-4.5977,-4.5977,-4.5977,-4.5977,-4.5977,-4.5977,-5.0941,-5.099,-5.1005,-5.1039,-5.1067,-5.1102,-5.1139,-5.1183,-5.1202,-5.1202,-5.1202,-5.1202,-5.1202,-5.1202,-5.1202,-5.1202,-5.1202,-5.1202,-5.1202,-5.1202,-5.1202,-5.1202,-5.1202,-5.1202,-5.1202,-5.1202,-5.1202,-5.1202,-5.0814,-4.9551,-4.8658,-4.823,-4.6851,-4.6016,-4.5997,-4.5997,-4.5986,-4.5986,-4.5986,-4.5975,-4.5975,-4.5975,-4.5975,-4.5975,-4.5975,-4.5956,-4.5966,-4.5986,-4.5986,-4.5997,-4.5997,-4.5997,-4.5986,-4.5986,-4.5997,-4.5997,-4.5977,-4.5977,-4.5977,-4.5977,-4.5977,-4.5977,-4.5977,-4.5977,-4.5977,-4.5977,-4.5977,-4.5977,-4.5977,-4.5977,-4.5977,-4.5977,-4.5977,-4.5977,-4.5977,-4.5977,-4.5977,-4.5977,-4.5977,-4.5977,-4.5977,-4.5977,-4.5977,-4.5977,-4.5977,-4.5977,-4.5977,-4.5977,-4.5977,-4.5977,-4.5977,-4.5977,-4.5977,-4.5977,-4.5977,-4.5977,-4.5977,-4.5977,-4.5977,-4.5977,-4.5977,-4.5977,-4.5977,-4.5977,-4.5977,-4.5977,-4.5977,-4.5977,-4.5977,-4.5977,-4.5977,-4.5977,-4.5977,-4.5977,-4.5977,-5.099,-5.1053,-5.1042,-5.1062,-5.1114,-5.1134,-5.1171,-5.1202,-5.1202,-5.1202,-5.1202,-5.1202,-5.1202,-5.1202,-5.1202,-5.1202,-5.1202,-5.1202,-5.1202,-5.1202,-5.1202,-5.1202,-5.1202,-5.1202,-5.1202,-5.1202,-5.1202,-5.1202,-5.1027,-4.9454,-4.8677,-4.8172,-4.6851,-4.5997,-4.5977,-4.5997,-4.5977,-4.5977,-4.5977,-4.5977,-4.5977,-4.5977,-4.5977,-4.5977,-4.5977,-4.5977,-4.5977,-4.5977,-4.5997,-4.5997,-4.5997,-4.5977,-4.5977,-4.5977,-4.5977,-4.5977,-4.5977,-4.5977,-4.5977,-4.5977,-4.5977,-4.5977,-4.5977,-4.5977,-4.5977,-4.5977,-4.5977,-4.5977,-4.5977,-4.5977,-4.5977,-4.5977,-4.5977,-4.5977,-4.5977,-4.5977,-4.5977,-4.5977,-4.5977,-4.5977,-4.5977,-4.5977,-4.5977,-4.5977,-4.5977,-4.5977,-4.5977,-4.5977,-4.5977,-4.5977,-4.5977,-4.5977,-4.5977,-4.5977,-4.5977,-4.5977,-4.5977,-4.5977,-4.5977,-4.5977,-4.5977,-4.5977,-4.5977,-4.5977,-4.5977,-4.5977,-4.5977,-4.5977,-4.5977,-4.5977,-4.5977,-4.5977,-4.5977,-4.5977,-4.5977,-5.1053,-5.1095,-5.1082,-5.1121,-5.1127,-5.1198,-5.1202,-5.1202,-5.1202,-5.1202,-5.1202,-5.1202,-5.1202,-5.1202,-5.1202,-5.1202,-5.1202,-5.1202,-5.1202,-5.1202,-5.1202,-5.1202,-5.1202,-5.1202,-5.1202,-5.1202,-5.1202,-5.1202,-5.0891,-4.9454,-4.8716,-4.8114,-4.6851,-4.5977,-4.5977,-4.5977,-4.5977,-4.5977,-4.5977,-4.5977,-4.5977,-4.5977,-4.5977,-4.5977,-4.5977,-4.5977,-4.5977,-4.5977,-4.5977,-4.5977,-4.5977,-4.5977,-4.5977,-4.5977,-4.5977,-4.5977,-4.5977,-4.5977,-4.5977,-4.5977,-4.5977,-4.5977,-4.5977,-4.5977,-4.5977,-4.5977,-4.5977,-4.5977,-4.5977,-4.5977,-4.5977,-4.5977,-4.5977,-4.5977,-4.5977,-4.5977,-4.5977,-4.5977,-4.5977,-4.5977,-4.5977,-4.5977,-4.5977,-4.5977,-4.5977,-4.5977,-4.5977,-4.5977,-4.5977,-4.5977,-4.5977,-4.5977,-4.5977,-4.5977,-4.5977,-4.5977,-4.5977,-4.5977,-4.5977,-4.5977,-4.5977,-4.5977,-4.5977,-4.5977,-4.5977,-4.5977,-4.5977,-4.5977,-4.5977,-4.5977,-4.5977,-4.5977,-4.5977,-4.5977,-4.5977,-5.1095,-5.1095,-5.1095,-5.1127,-5.119,-5.119,-5.1202,-5.1202,-5.1202,-5.1202,-5.1202,-5.1202,-5.1202,-5.1202,-5.1202,-5.1202,-5.1202,-5.1202,-5.1202,-5.1202,-5.1202,-5.1202,-5.1202,-5.1202,-5.1105,-5.1047,-5.1086,-5.1202,-5.0639,-4.926,-4.8561,-4.8153,-4.6909,-4.5977,-4.5977,-4.5977,-4.5977,-4.5977,-4.5977,-4.5977,-4.5977,-4.5977,-4.5977,-4.5977,-4.5977,-4.5977,-4.5977,-4.5977,-4.5977,-4.5977,-4.5977,-4.5977,-4.5977,-4.5977,-4.5977,-4.5977,-4.5977,-4.5977,-4.5977,-4.5977,-4.5977,-4.5977,-4.5977,-4.5977,-4.5977,-4.5977,-4.5977,-4.5977,-4.5977,-4.5977,-4.5977,-4.5977,-4.5977,-4.5977,-4.5977,-4.5977,-4.5977,-4.5977,-4.5977,-4.5977,-4.5977,-4.5977,-4.5977,-4.5977,-4.5977,-4.5977,-4.5977,-4.5977,-4.5977,-4.5977,-4.5977,-4.5977,-4.5977,-4.5977,-4.5977,-4.5977,-4.5977,-4.5977,-4.5977,-4.5977,-4.5977,-4.5977,-4.5977,-4.5977,-4.5977,-4.5977,-4.5977,-4.5977,-4.5977,-4.5977,-4.5977,-4.5977,-4.5977,-4.5977,-4.5977,-5.1166,-5.1139,-5.1139,-5.1171,-5.1202,-5.1202,-5.1202,-5.1202,-5.1202,-5.1202,-5.1202,-5.1202,-5.1202,-5.1202,-5.1202,-5.1202,-5.1202,-5.1202,-5.1202,-5.1202,-5.1202,-5.1202,-5.1202,-5.1163,-5.1027,-5.0561,-5.0386,-5.0017,-4.9609,-4.9085,-4.8425,-4.7725,-4.6696,-4.5977,-4.5977,-4.5977,-4.5977,-4.5977,-4.5977,-4.5977,-4.5977,-4.5977,-4.5977,-4.5977,-4.5977,-4.5977,-4.5977,-4.5977,-4.5977,-4.5977,-4.5977,-4.5977,-4.5977,-4.5977,-4.5977,-4.5977,-4.5977,-4.5977,-4.5977,-4.5977,-4.5977,-4.5977,-4.5977,-4.5977,-4.5977,-4.5977,-4.5977,-4.5977,-4.5977,-4.5977,-4.5977,-4.5977,-4.5977,-4.5977,-4.5977,-4.5977,-4.5977,-4.5977,-4.5977,-4.5977,-4.5977,-4.5977,-4.5977,-4.5977,-4.5977,-4.5977,-4.5977,-4.5977,-4.5977,-4.5977,-4.5977,-4.5977,-4.5977,-4.5977,-4.5977,-4.5977,-4.5977,-4.5977,-4.5977,-4.5977,-4.5977,-4.5977,-4.5977,-4.5977,-4.5977,-4.5977,-4.5977,-4.5977,-4.5977,-4.5977,-4.5977,-4.5977,-4.5977,-4.5977,-4.5977,-5.1202,-5.1202,-5.1202,-5.1202,-5.1202,-5.1202,-5.1202,-5.1202,-5.1202,-5.1202,-5.1202,-5.1202,-5.1202,-5.1202,-5.1202,-5.1202,-5.1202,-5.1202,-5.1202,-5.1202,-5.1202,-5.1202,-5.1105,-5.1008,-5.0484,-4.9862,-4.9648,-4.9163,-4.858,-4.8191,-4.7861,-4.7259,-4.6482,-4.6055,-4.5977,-4.5977,-4.5977,-4.5977,-4.5977,-4.5977,-4.5977,-4.5977,-4.5977,-4.5977,-4.5977,-4.5977,-4.5977,-4.5977,-4.5977,-4.5977,-4.5977,-4.5977,-4.5977,-4.5977,-4.5977,-4.5977,-4.5977,-4.5977,-4.5977,-4.5977,-4.5977,-4.5977,-4.5977,-4.5977,-4.5977,-4.5977,-4.5977,-4.5977,-4.5977,-4.5977,-4.5977,-4.5977,-4.5977,-4.5977,-4.5977,-4.5977,-4.5977,-4.5977,-4.5977,-4.5977,-4.5977,-4.5977,-4.5977,-4.5977,-4.5977,-4.5977,-4.5977,-4.5977,-4.5977,-4.5977,-4.5977,-4.5977,-4.5977,-4.5977,-4.5977,-4.5977,-4.5977,-4.5977,-4.5977,-4.5977,-4.5977,-4.5977,-4.5977,-4.5977,-4.5977,-4.5977,-4.5977,-4.5977,-4.5977,-4.5977,-4.5977,-4.5977,-4.5977,-4.5977,-4.5977,-5.1202,-5.1202,-5.1202,-5.1202,-5.1202,-5.1202,-5.1202,-5.1202,-5.1202,-5.1202,-5.1202,-5.1202,-5.1202,-5.1202,-5.1202,-5.1202,-5.1202,-5.1202,-5.1202,-5.1202,-5.1202,-5.1086,-5.0833,-5.0367,-4.9862,-4.9571,-4.9027,-4.823,-4.7589,-4.7395,-4.7337,-4.7181,-4.6366,-4.6074,-4.5977,-4.5977,-4.5977,-4.5977,-4.5977,-4.5977,-4.5977,-4.5977,-4.5977,-4.5977,-4.5977,-4.5977,-4.5977,-4.5977,-4.5977,-4.5977,-4.5977,-4.5977,-4.5977,-4.5977,-4.5977,-4.5977,-4.5977,-4.5977,-4.5977,-4.5977,-4.5977,-4.5977,-4.5977,-4.5977,-4.5977,-4.5977,-4.5977,-4.5977,-4.5977,-4.5977,-4.5977,-4.5977,-4.5977,-4.5977,-4.5977,-4.5977,-4.5977,-4.5977,-4.5977,-4.5977,-4.5977,-4.5977,-4.5977,-4.5977,-4.5977,-4.5977,-4.5977,-4.5977,-4.5977,-4.5977,-4.5977,-4.5977,-4.5977,-4.5977,-4.5977,-4.5977,-4.5977,-4.5977,-4.5977,-4.5977,-4.5977,-4.5977,-4.5977,-4.5977,-4.5977,-4.5977,-4.5977,-4.5977,-4.5977,-4.5977,-4.5977,-4.5977,-4.5977,-4.5977,-4.5977,-5.1202,-5.1202,-5.1202,-5.1202,-5.1202,-5.1202,-5.1202,-5.1202,-5.1202,-5.1202,-5.1202,-5.1202,-5.1202,-5.1202,-5.1202,-5.1202,-5.1202,-5.1202,-5.1202,-5.0989,-5.0755,-5.0464,-5.0095,-4.9532,-4.8832,-4.8405,-4.79,-4.7337,-4.6579,-4.6599,-4.6502,-4.6327,-4.6152,-4.6055,-4.5977,-4.5977,-4.5977,-4.5977,-4.5977,-4.5977,-4.5977,-4.5977,-4.5977,-4.5977,-4.5977,-4.5977,-4.5977,-4.5977,-4.5977,-4.5977,-4.5977,-4.5977,-4.5977,-4.5977,-4.5977,-4.5977,-4.5977,-4.5977,-4.5977,-4.5977,-4.5977,-4.5977,-4.5977,-4.5977,-4.5977,-4.5977,-4.5977,-4.5977,-4.5977,-4.5977,-4.5977,-4.5977,-4.5977,-4.5977,-4.5977,-4.5977,-4.5977,-4.5977,-4.5977,-4.5977,-4.5977,-4.5977,-4.5977,-4.5977,-4.5977,-4.5977,-4.5977,-4.5977,-4.5977,-4.5977,-4.5977,-4.5977,-4.5977,-4.5977,-4.5977,-4.5977,-4.5977,-4.5977,-4.5977,-4.5977,-4.5977,-4.5977,-4.5977,-4.5977,-4.5977,-4.5977,-4.5977,-4.5977,-4.5977,-4.5977,-4.5977,-4.5977,-4.5977,-4.5977,-4.5977,-5.1202,-5.1202,-5.1202,-5.1202,-5.1202,-5.1202,-5.1202,-5.1202,-5.1202,-5.1202,-5.1202,-5.1202,-5.1202,-5.1202,-5.1202,-5.1202,-5.1202,-5.1183,-5.1008,-5.0678,-5.0231,-4.9765,-4.9299,-4.8677,-4.7958,-4.7317,-4.6929,-4.6502,-4.6113,-4.6016,-4.6055,-4.6074,-4.5977,-4.5977,-4.5977,-4.5977,-4.5977,-4.5977,-4.5977,-4.5977,-4.5977,-4.5977,-4.5977,-4.5977,-4.5977,-4.5977,-4.5977,-4.5977,-4.5977,-4.5977,-4.5977,-4.5977,-4.5977,-4.5977,-4.5977,-4.5977,-4.5977,-4.5977,-4.5977,-4.5977,-4.5977,-4.5977,-4.5977,-4.5977,-4.5977,-4.5977,-4.5977,-4.5977,-4.5977,-4.5977,-4.5977,-4.5977,-4.5977,-4.5977,-4.5977,-4.5977,-4.5977,-4.5977,-4.5977,-4.5977,-4.5977,-4.5977,-4.5977,-4.5977,-4.5977,-4.5977,-4.5977,-4.5977,-4.5977,-4.5977,-4.5977,-4.5977,-4.5977,-4.5977,-4.5977,-4.5977,-4.5977,-4.5977,-4.5977,-4.5977,-4.5977,-4.5977,-4.5977,-4.5977,-4.5977,-4.5977,-4.5977,-4.5977,-4.5977,-4.5977,-4.5977,-4.5977,-4.5977,-4.5977,-4.5977,-5.1202,-5.1202,-5.1202,-5.1202,-5.1202,-5.1202,-5.1202,-5.1202,-5.1202,-5.1202,-5.1202,-5.1202,-5.1202,-5.1202,-5.1202,-5.1125,-5.0989,-5.1008,-5.0678,-4.9978,-4.9532,-4.9221,-4.8561,-4.7803,-4.722,-4.7084,-4.6638,-4.6191,-4.5977,-4.5977,-4.5977,-4.5977,-4.5977,-4.5977,-4.5977,-4.5977,-4.5977,-4.5977,-4.5977,-4.5977,-4.5977,-4.5977,-4.5977,-4.5977,-4.5977,-4.5977,-4.5977,-4.5977,-4.5977,-4.5977,-4.5977,-4.5977,-4.5977,-4.5977,-4.5977,-4.5977,-4.5977,-4.5977,-4.5977,-4.5977,-4.5977,-4.5977,-4.5977,-4.5977,-4.5977,-4.5977,-4.5977,-4.5977,-4.5977,-4.5977,-4.5977,-4.5977,-4.5977,-4.5977,-4.5977,-4.5977,-4.5977,-4.5977,-4.5977,-4.5977,-4.5977,-4.5977,-4.5977,-4.5977,-4.5977,-4.5977,-4.5977,-4.5977,-4.5977,-4.5977,-4.5977,-4.5977,-4.5977,-4.5977,-4.5977,-4.5977,-4.5977,-4.5977,-4.5977,-4.5977,-4.5977,-4.5977,-4.5977,-4.5977,-4.5977,-4.5977,-4.5977,-4.5977,-4.5977,-4.5977,-4.5977,-4.5977,-4.5977,-4.5977,-4.5977,-5.1202,-5.1202,-5.1202,-5.1202,-5.1202,-5.1202,-5.1202,-5.1202,-5.1202,-5.1202,-5.1202,-5.1202,-5.1202,-5.1202,-5.1105,-5.0872,-5.0367,-5.0309,-4.9862,-4.9046,-4.8561,-4.8075,-4.7531,-4.6987,-4.6502,-4.6366,-4.6055,-4.5977,-4.5977,-4.5977,-4.5977,-4.5977,-4.5977,-4.5977,-4.5977,-4.5977,-4.5977,-4.5977,-4.5977,-4.5977,-4.5977,-4.5977,-4.5977,-4.5977,-4.5977,-4.5977,-4.5977,-4.5977,-4.5977,-4.5977,-4.5977,-4.5977,-4.5977,-4.5977,-4.5977,-4.5977,-4.5977,-4.5977,-4.5977,-4.5977,-4.5977,-4.5977,-4.5977,-4.5977,-4.5977,-4.5977,-4.5977,-4.5977,-4.5977,-4.5977,-4.5977,-4.5977,-4.5977,-4.5977,-4.5977,-4.5977,-4.5977,-4.5977,-4.5977,-4.5977,-4.5977,-4.5977,-4.5977,-4.5977,-4.5977,-4.5977,-4.5977,-4.5977,-4.5977,-4.5977,-4.5977,-4.5977,-4.5977,-4.5977,-4.5977,-4.5977,-4.5977,-4.5977,-4.5977,-4.5977,-4.5977,-4.5977,-4.5977,-4.5977,-4.5977,-4.5977,-4.5977,-4.5977,-4.5977,-4.5977,-4.5977,-4.5977,-4.5977,-4.5977,-4.5977,-5.1202,-5.1202,-5.1202,-5.1202,-5.1202,-5.1202,-5.1202,-5.1202,-5.1202,-5.1202,-5.1202,-5.1202,-5.0989,-5.0833,-5.0678,-5.027,-4.9512,-4.9435,-4.8968,-4.8172,-4.7628,-4.722,-4.6754,-4.6327,-4.6152,-4.5977,-4.5977,-4.5977,-4.5977,-4.5977,-4.5977,-4.5977,-4.5977,-4.5977,-4.5977,-4.5977,-4.5977,-4.5977,-4.5977,-4.5977,-4.5977,-4.5977,-4.5977,-4.5977,-4.5977,-4.5977,-4.5977,-4.5977,-4.5977,-4.5977,-4.5977,-4.5977,-4.5977,-4.5977,-4.5977,-4.5977,-4.5977,-4.5977,-4.5977,-4.5977,-4.5977,-4.5977,-4.5997,-4.5977,-4.5977,-4.5977,-4.5977,-4.5977,-4.6007,-4.6007,-4.6007,-4.6007,-4.6007,-4.6007,-4.6007,-4.6007,-4.6007,-4.6007,-4.6007,-4.6007,-4.5977,-4.5977,-4.5977,-4.5977,-4.5977,-4.5977,-4.5977,-4.5977,-4.5977,-4.5977,-4.5977,-4.5977,-4.5977,-4.5977,-4.5977,-4.5977,-4.5977,-4.5977,-4.5977,-4.5977,-4.5977,-4.5977,-4.5977,-4.5977,-4.5977,-4.5977,-4.5977,-4.5977,-4.5977,-4.5977,-4.5977,-4.5977,-4.5977,-4.5977,-4.5977,-5.1202,-5.1202,-5.1202,-5.1163,-5.1144,-5.0969,-5.1047,-5.1183,-5.1144,-5.1105,-5.1125,-5.0969,-5.0503,-4.994,-4.9843,-4.9357,-4.8716,-4.858,-4.7997,-4.7473,-4.7084,-4.6638,-4.6327,-4.6035,-4.5977,-4.5977,-4.5977,-4.5977,-4.5977,-4.5977,-4.5977,-4.5977,-4.5977,-4.5977,-4.5977,-4.5977,-4.5977,-4.5977,-4.5977,-4.5977,-4.5977,-4.5977,-4.5977,-4.5977,-4.5977,-4.5977,-4.5977,-4.5977,-4.5977,-4.5977,-4.5977,-4.5977,-4.5977,-4.5977,-4.5977,-4.5977,-4.5977,-4.5977,-4.5997,-4.6007,-4.6007,-4.6026,-4.6007,-4.6007,-4.6007,-4.6007,-4.6017,-4.6017,-4.6017,-4.6017,-4.6007,-4.6007,-4.6017,-4.6017,-4.6017,-4.6017,-4.6017,-4.6007,-4.6007,-4.6007,-4.6007,-4.5977,-4.5977,-4.5977,-4.5977,-4.5977,-4.5977,-4.5977,-4.5977,-4.5977,-4.5977,-4.5977,-4.5977,-4.5977,-4.5977,-4.5977,-4.5977,-4.5977,-4.5977,-4.5977,-4.5977,-4.5977,-4.5977,-4.5977,-4.5977,-4.5977,-4.5977,-4.5977,-4.5977,-4.5977,-4.5977,-4.5977,-4.5977,-4.5977,-4.5977,-5.1202,-5.1202,-5.1202,-5.0853,-5.0231,-4.9609,-5.0037,-5.1047,-5.0581,-5.027,-5.025,-4.9609,-4.9299,-4.8968,-4.8949,-4.8405,-4.7958,-4.757,-4.7084,-4.6696,-4.6502,-4.6249,-4.6074,-4.5977,-4.5977,-4.5977,-4.5977,-4.5977,-4.5977,-4.5977,-4.5977,-4.5977,-4.5977,-4.5977,-4.5977,-4.5977,-4.5977,-4.5977,-4.5977,-4.5977,-4.5977,-4.5977,-4.5977,-4.5977,-4.5977,-4.5977,-4.5977,-4.5977,-4.5977,-4.5977,-4.5977,-4.5977,-4.5977,-4.5977,-4.5977,-4.5977,-4.5977,-4.5997,-4.6026,-4.6056,-4.6085,-4.6076,-4.6085,-4.6066,-4.6056,-4.6056,-4.6056,-4.6056,-4.6047,-4.6066,-4.6066,-4.6066,-4.6066,-4.6066,-4.6066,-4.6066,-4.6066,-4.6056,-4.6056,-4.6047,-4.6017,-4.6007,-4.6007,-4.5977,-4.5977,-4.5977,-4.5977,-4.5977,-4.5977,-4.5977,-4.5977,-4.5977,-4.5977,-4.5977,-4.5977,-4.5977,-4.5977,-4.5977,-4.5977,-4.5977,-4.5977,-4.5977,-4.5977,-4.5977,-4.5977,-4.5977,-4.5977,-4.5977,-4.5977,-4.5977,-4.5977,-4.5977,-4.5977,-4.5977,-4.5977,-5.0484,-5.0192,-5.0173,-4.9862,-4.9357,-4.8832,-4.9279,-4.9978,-4.9609,-4.9396,-4.9337,-4.8891,-4.8405,-4.8114,-4.8036,-4.7628,-4.6851,-4.6773,-4.6482,-4.6249,-4.5977,-4.6016,-4.5997,-4.5977,-4.5977,-4.5977,-4.5977,-4.5977,-4.5977,-4.5977,-4.5977,-4.5977,-4.5977,-4.5977,-4.5977,-4.5977,-4.5977,-4.5977,-4.5977,-4.5977,-4.5977,-4.5977,-4.5977,-4.5977,-4.5977,-4.5977,-4.5977,-4.5977,-4.5977,-4.5977,-4.5977,-4.5977,-4.5977,-4.5977,-4.6007,-4.6037,-4.6037,-4.6047,-4.6056,-4.6066,-4.6095,-4.6114,-4.6113,-4.6122,-4.6113,-4.6113,-4.6113,-4.6104,-4.6113,-4.6113,-4.6113,-4.6113,-4.6113,-4.6113,-4.6113,-4.6113,-4.6113,-4.6113,-4.6104,-4.6095,-4.6056,-4.6047,-4.6037,-4.6007,-4.5977,-4.5977,-4.5977,-4.5977,-4.5977,-4.5977,-4.5977,-4.5977,-4.5977,-4.5977,-4.5977,-4.5977,-4.5977,-4.5977,-4.5977,-4.5977,-4.5977,-4.5977,-4.5977,-4.5977,-4.5977,-4.5977,-4.5977,-4.5977,-4.5977,-4.5977,-4.5977,-4.5977,-4.5977,-4.5977,-4.5977,-4.9357,-4.8658,-4.8522,-4.8541,-4.8502,-4.8347,-4.8327,-4.8405,-4.8327,-4.8444,-4.8444,-4.8386,-4.7822,-4.7279,-4.7181,-4.6832,-4.6366,-4.6191,-4.621,-4.5977,-4.5977,-4.5977,-4.5977,-4.5977,-4.5977,-4.5977,-4.5977,-4.5977,-4.5977,-4.5977,-4.5977,-4.5977,-4.5977,-4.5977,-4.5977,-4.5977,-4.5977,-4.5977,-4.5977,-4.5977,-4.5977,-4.5977,-4.5977,-4.5977,-4.5977,-4.5977,-4.5977,-4.5977,-4.5977,-4.5977,-4.5977,-4.5977,-4.6007,-4.6017,-4.6047,-4.6076,-4.6105,-4.6085,-4.6084,-4.6093,-4.6102,-4.6102,-4.6111,-4.6154,-4.6162,-4.6166,-4.6138,-4.6135,-4.6142,-4.6142,-4.6142,-4.6142,-4.6142,-4.6142,-4.6142,-4.6142,-4.6142,-4.6154,-4.613,-4.6122,-4.6104,-4.6085,-4.6056,-4.6056,-4.6037,-4.6007,-4.5977,-4.5977,-4.5977,-4.5977,-4.5977,-4.5977,-4.5977,-4.5977,-4.5977,-4.5977,-4.5977,-4.5977,-4.5977,-4.5977,-4.5977,-4.5977,-4.5977,-4.5977,-4.5977,-4.5977,-4.5977,-4.5977,-4.5977,-4.5977,-4.5977,-4.5977,-4.5977,-4.5977,-4.5977,-4.8794,-4.8541,-4.79,-4.7628,-4.7512,-4.689,-4.6638,-4.6618,-4.6618,-4.7045,-4.7395,-4.6968,-4.6599,-4.6463,-4.6424,-4.6191,-4.6074,-4.5977,-4.5977,-4.5977,-4.5977,-4.5977,-4.5977,-4.5977,-4.5977,-4.5977,-4.5977,-4.5977,-4.5977,-4.5977,-4.5977,-4.5977,-4.5977,-4.5977,-4.5977,-4.5977,-4.5977,-4.5977,-4.5977,-4.5977,-4.5977,-4.5977,-4.5977,-4.5977,-4.5977,-4.5977,-4.5977,-4.5977,-4.5977,-4.5977,-4.5977,-4.6026,-4.6066,-4.6085,-4.6084,-4.6084,-4.6113,-4.6122,-4.613,-4.6135,-4.6162,-4.6176,-4.6183,-4.6203,-4.6203,-4.6176,-4.6176,-4.617,-4.6183,-4.6177,-4.6183,-4.6177,-4.6177,-4.6177,-4.6183,-4.6183,-4.6183,-4.6183,-4.6181,-4.6158,-4.6122,-4.6113,-4.6104,-4.6095,-4.6076,-4.6066,-4.6007,-4.5977,-4.5977,-4.5977,-4.5977,-4.5977,-4.5977,-4.5977,-4.5977,-4.5977,-4.5977,-4.5977,-4.5977,-4.5977,-4.5977,-4.5977,-4.5977,-4.5977,-4.5977,-4.5977,-4.5977,-4.5977,-4.5977,-4.5977,-4.5977,-4.5977,-4.5977,-4.5977,-4.5977,-4.7784,-4.7414,-4.6929,-4.6735,-4.6638,-4.6191,-4.5977,-4.5977,-4.5977,-4.6268,-4.6638,-4.623,-4.5977,-4.5977,-4.5977,-4.5977,-4.5977,-4.5977,-4.5977,-4.5977,-4.5977,-4.5977,-4.5977,-4.5977,-4.5977,-4.5977,-4.5977,-4.5977,-4.5977,-4.5977,-4.5977,-4.5977,-4.5977,-4.5977,-4.5977,-4.5977,-4.5977,-4.5977,-4.5977,-4.5977,-4.5977,-4.5977,-4.5977,-4.5977,-4.5977,-4.5977,-4.5977,-4.6007,-4.6007,-4.6037,-4.6047,-4.6047,-4.6095,-4.6104,-4.6102,-4.6119,-4.6146,-4.6154,-4.615,-4.6164,-4.6216,-4.6222,-4.6209,-4.6195,-4.6259,-4.6242,-4.6216,-4.6209,-4.6189,-4.6189,-4.6195,-4.6195,-4.6195,-4.6195,-4.6195,-4.6201,-4.6201,-4.6189,-4.6196,-4.6183,-4.6162,-4.6166,-4.6149,-4.6093,-4.6095,-4.6095,-4.6056,-4.6007,-4.6007,-4.5997,-4.5977,-4.5977,-4.5977,-4.5977,-4.5977,-4.5977,-4.5977,-4.5977,-4.5977,-4.5977,-4.5977,-4.5977,-4.5977,-4.5977,-4.5977,-4.5977,-4.5977,-4.5977,-4.5977,-4.5977,-4.5977,-4.5977,-4.5977,-4.5977,-4.5977,-4.6715,-4.6035,-4.6016,-4.5997,-4.5997,-4.5997,-4.5977,-4.5977,-4.5977,-4.5977,-4.6055,-4.6035,-4.5977,-4.5977,-4.5977,-4.5977,-4.5977,-4.5977,-4.5977,-4.5977,-4.5977,-4.5977,-4.5977,-4.5977,-4.5977,-4.5977,-4.5977,-4.5977,-4.5977,-4.5977,-4.5977,-4.5977,-4.5977,-4.5977,-4.5977,-4.5977,-4.5977,-4.5977,-4.5977,-4.5977,-4.5977,-4.5977,-4.5977,-4.5977,-4.5977,-4.5977,-4.6007,-4.6007,-4.6056,-4.6085,-4.6104,-4.6122,-4.6111,-4.6138,-4.6162,-4.6157,-4.6183,-4.6196,-4.6189,-4.6215,-4.6234,-4.6234,-4.6215,-4.6226,-4.6294,-4.6275,-4.625,-4.6245,-4.622,-4.6211,-4.6216,-4.6221,-4.6221,-4.6221,-4.6221,-4.6221,-4.6216,-4.6216,-4.6226,-4.6215,-4.6196,-4.6196,-4.6181,-4.6138,-4.6122,-4.6114,-4.6095,-4.6066,-4.6037,-4.6007,-4.5977,-4.5977,-4.5977,-4.5977,-4.5977,-4.5977,-4.5977,-4.5977,-4.5977,-4.5977,-4.5977,-4.5977,-4.5977,-4.5977,-4.5977,-4.5977,-4.5977,-4.5977,-4.5977,-4.5977,-4.5977,-4.5977,-4.5977,-4.5977,-4.5977,-4.6171,-4.5997,-4.5977,-4.5977,-4.5977,-4.5977,-4.5977,-4.5977,-4.5977,-4.5977,-4.5977,-4.5977,-4.5977,-4.5977,-4.5977,-4.5977,-4.5977,-4.5977,-4.5977,-4.5977,-4.5977,-4.5977,-4.5977,-4.5977,-4.5977,-4.5977,-4.5977,-4.5977,-4.5977,-4.5977,-4.5977,-4.5977,-4.5977,-4.5977,-4.5977,-4.5977,-4.5977,-4.5977,-4.5977,-4.5977,-4.5977,-4.5977,-4.5977,-4.5977,-4.5977,-4.6017,-4.6047,-4.6076,-4.6085,-4.6113,-4.6158,-4.6174,-4.6169,-4.6157,-4.6177,-4.6203,-4.6209,-4.6215,-4.6226,-4.6255,-4.6275,-4.627,-4.626,-4.6267,-4.629,-4.629,-4.6287,-4.6273,-4.6277,-4.6267,-4.6273,-4.6273,-4.6273,-4.6273,-4.6276,-4.6267,-4.6264,-4.6277,-4.6269,-4.624,-4.6206,-4.6209,-4.6196,-4.6176,-4.6174,-4.6169,-4.6143,-4.6105,-4.6066,-4.6037,-4.6007,-4.5997,-4.5997,-4.5977,-4.5977,-4.5977,-4.5977,-4.5977,-4.5977,-4.5977,-4.5977,-4.5977,-4.5977,-4.5977,-4.5977,-4.5977,-4.5977,-4.5977,-4.5977,-4.5977,-4.5977,-4.5977,-4.5977,-4.5977,-4.5977]}]]